<?xml version="1.0" encoding="UTF-8" standalone="no" ?>
<gpx xmlns="http://www.topografix.com/GPX/1/1" xmlns:xsi="http://www.w3.org/2001/XMLSchema-instance" xsi:schemaLocation="http://www.topografix.com/GPX/1/1 http://www.topografix.com/GPX/1/1/gpx.xsd" version="1.1" creator="VisuGPX - https://www.visugpx.com">
  <metadata>
    <name>Aveyron</name>
    <desc><![CDATA[9 jours de vélo dans l'Aveyron (et un peu du Lot)]]></desc>
  </metadata>
  <trk>
    <name><![CDATA[j3]]></name>
    <desc><![CDATA[comment ...]]></desc>
    <extensions>
      <line xmlns="http://www.topografix.com/GPX/gpx_style/0/2">
        <color>00ff00</color>
        <width>4</width>
      </line>
    </extensions>
    <trkseg>
      <trkpt lat="44.60413" lon="2.57933">
        <ele>686</ele>
        <time>2021-08-29T07:16:21Z</time>
      </trkpt>
      <trkpt lat="44.60413" lon="2.57933">
        <ele>686</ele>
        <time>2021-08-29T07:16:23Z</time>
      </trkpt>
      <trkpt lat="44.60415" lon="2.57927">
        <ele>683</ele>
        <time>2021-08-29T07:16:39Z</time>
      </trkpt>
      <trkpt lat="44.60418" lon="2.57912">
        <ele>680</ele>
        <time>2021-08-29T07:16:47Z</time>
      </trkpt>
      <trkpt lat="44.60421" lon="2.57907">
        <ele>679</ele>
        <time>2021-08-29T07:16:50Z</time>
      </trkpt>
      <trkpt lat="44.60425" lon="2.57903">
        <ele>679</ele>
        <time>2021-08-29T07:16:54Z</time>
      </trkpt>
      <trkpt lat="44.60428" lon="2.57897">
        <ele>680</ele>
        <time>2021-08-29T07:16:59Z</time>
      </trkpt>
      <trkpt lat="44.60425" lon="2.57893">
        <ele>680</ele>
        <time>2021-08-29T07:17:05Z</time>
      </trkpt>
      <trkpt lat="44.60388" lon="2.57887">
        <ele>680</ele>
        <time>2021-08-29T07:17:37Z</time>
      </trkpt>
      <trkpt lat="44.60382" lon="2.57887">
        <ele>680</ele>
        <time>2021-08-29T07:17:40Z</time>
      </trkpt>
      <trkpt lat="44.60378" lon="2.57884">
        <ele>681</ele>
        <time>2021-08-29T07:17:42Z</time>
      </trkpt>
      <trkpt lat="44.60375" lon="2.5787">
        <ele>681</ele>
        <time>2021-08-29T07:17:46Z</time>
      </trkpt>
      <trkpt lat="44.60374" lon="2.57862">
        <ele>681</ele>
        <time>2021-08-29T07:17:48Z</time>
      </trkpt>
      <trkpt lat="44.60375" lon="2.57856">
        <ele>682</ele>
        <time>2021-08-29T07:17:50Z</time>
      </trkpt>
      <trkpt lat="44.60374" lon="2.57841">
        <ele>681</ele>
        <time>2021-08-29T07:17:54Z</time>
      </trkpt>
      <trkpt lat="44.60373" lon="2.57782">
        <ele>682</ele>
        <time>2021-08-29T07:18:08Z</time>
      </trkpt>
      <trkpt lat="44.60374" lon="2.57747">
        <ele>681</ele>
        <time>2021-08-29T07:18:16Z</time>
      </trkpt>
      <trkpt lat="44.60373" lon="2.5774">
        <ele>681</ele>
        <time>2021-08-29T07:18:18Z</time>
      </trkpt>
      <trkpt lat="44.60371" lon="2.57733">
        <ele>680</ele>
        <time>2021-08-29T07:18:21Z</time>
      </trkpt>
      <trkpt lat="44.60364" lon="2.57732">
        <ele>680</ele>
        <time>2021-08-29T07:18:23Z</time>
      </trkpt>
      <trkpt lat="44.60348" lon="2.57745">
        <ele>680</ele>
        <time>2021-08-29T07:18:28Z</time>
      </trkpt>
      <trkpt lat="44.60281" lon="2.57795">
        <ele>678</ele>
        <time>2021-08-29T07:18:45Z</time>
      </trkpt>
      <trkpt lat="44.60275" lon="2.57798">
        <ele>678</ele>
        <time>2021-08-29T07:18:47Z</time>
      </trkpt>
      <trkpt lat="44.60269" lon="2.57794">
        <ele>678</ele>
        <time>2021-08-29T07:18:50Z</time>
      </trkpt>
      <trkpt lat="44.60269" lon="2.57783">
        <ele>678</ele>
        <time>2021-08-29T07:18:54Z</time>
      </trkpt>
      <trkpt lat="44.60277" lon="2.57768">
        <ele>677</ele>
        <time>2021-08-29T07:18:58Z</time>
      </trkpt>
      <trkpt lat="44.60291" lon="2.57722">
        <ele>675</ele>
        <time>2021-08-29T07:19:08Z</time>
      </trkpt>
      <trkpt lat="44.6029" lon="2.57695">
        <ele>674</ele>
        <time>2021-08-29T07:19:12Z</time>
      </trkpt>
      <trkpt lat="44.60279" lon="2.57652">
        <ele>672</ele>
        <time>2021-08-29T07:19:18Z</time>
      </trkpt>
      <trkpt lat="44.60241" lon="2.57548">
        <ele>667</ele>
        <time>2021-08-29T07:19:30Z</time>
      </trkpt>
      <trkpt lat="44.60231" lon="2.57533">
        <ele>665</ele>
        <time>2021-08-29T07:19:32Z</time>
      </trkpt>
      <trkpt lat="44.60186" lon="2.57497">
        <ele>663</ele>
        <time>2021-08-29T07:19:38Z</time>
      </trkpt>
      <trkpt lat="44.60106" lon="2.57455">
        <ele>654</ele>
        <time>2021-08-29T07:19:48Z</time>
      </trkpt>
      <trkpt lat="44.60094" lon="2.57444">
        <ele>653</ele>
        <time>2021-08-29T07:19:50Z</time>
      </trkpt>
      <trkpt lat="44.60078" lon="2.57415">
        <ele>650</ele>
        <time>2021-08-29T07:19:53Z</time>
      </trkpt>
      <trkpt lat="44.60075" lon="2.57405">
        <ele>650</ele>
        <time>2021-08-29T07:19:54Z</time>
      </trkpt>
      <trkpt lat="44.60076" lon="2.57353">
        <ele>647</ele>
        <time>2021-08-29T07:19:58Z</time>
      </trkpt>
      <trkpt lat="44.6008" lon="2.5722">
        <ele>641</ele>
        <time>2021-08-29T07:20:08Z</time>
      </trkpt>
      <trkpt lat="44.60173" lon="2.57054">
        <ele>645</ele>
        <time>2021-08-29T07:20:29Z</time>
      </trkpt>
      <trkpt lat="44.60198" lon="2.57022">
        <ele>643</ele>
        <time>2021-08-29T07:20:36Z</time>
      </trkpt>
      <trkpt lat="44.60245" lon="2.56989">
        <ele>641</ele>
        <time>2021-08-29T07:20:48Z</time>
      </trkpt>
      <trkpt lat="44.60303" lon="2.56959">
        <ele>640</ele>
        <time>2021-08-29T07:21:04Z</time>
      </trkpt>
      <trkpt lat="44.60321" lon="2.56955">
        <ele>640</ele>
        <time>2021-08-29T07:22:06Z</time>
      </trkpt>
      <trkpt lat="44.60326" lon="2.5695">
        <ele>638</ele>
        <time>2021-08-29T07:22:08Z</time>
      </trkpt>
      <trkpt lat="44.60368" lon="2.5679">
        <ele>639</ele>
        <time>2021-08-29T07:22:40Z</time>
      </trkpt>
      <trkpt lat="44.6037" lon="2.56747">
        <ele>638</ele>
        <time>2021-08-29T07:22:46Z</time>
      </trkpt>
      <trkpt lat="44.6036" lon="2.56508">
        <ele>633</ele>
        <time>2021-08-29T07:23:16Z</time>
      </trkpt>
      <trkpt lat="44.60366" lon="2.56475">
        <ele>633</ele>
        <time>2021-08-29T07:23:20Z</time>
      </trkpt>
      <trkpt lat="44.60407" lon="2.56354">
        <ele>631</ele>
        <time>2021-08-29T07:23:36Z</time>
      </trkpt>
      <trkpt lat="44.60409" lon="2.56325">
        <ele>632</ele>
        <time>2021-08-29T07:23:40Z</time>
      </trkpt>
      <trkpt lat="44.60406" lon="2.56295">
        <ele>633</ele>
        <time>2021-08-29T07:23:45Z</time>
      </trkpt>
      <trkpt lat="44.60395" lon="2.56219">
        <ele>630</ele>
        <time>2021-08-29T07:24:01Z</time>
      </trkpt>
      <trkpt lat="44.60416" lon="2.56052">
        <ele>633</ele>
        <time>2021-08-29T07:24:33Z</time>
      </trkpt>
      <trkpt lat="44.60417" lon="2.55894">
        <ele>641</ele>
        <time>2021-08-29T07:25:02Z</time>
      </trkpt>
      <trkpt lat="44.60426" lon="2.55864">
        <ele>642</ele>
        <time>2021-08-29T07:25:08Z</time>
      </trkpt>
      <trkpt lat="44.60435" lon="2.55847">
        <ele>643</ele>
        <time>2021-08-29T07:25:12Z</time>
      </trkpt>
      <trkpt lat="44.60454" lon="2.5583">
        <ele>643</ele>
        <time>2021-08-29T07:25:18Z</time>
      </trkpt>
      <trkpt lat="44.60567" lon="2.55778">
        <ele>644</ele>
        <time>2021-08-29T07:25:50Z</time>
      </trkpt>
      <trkpt lat="44.60582" lon="2.55771">
        <ele>644</ele>
        <time>2021-08-29T07:25:54Z</time>
      </trkpt>
      <trkpt lat="44.60633" lon="2.55763">
        <ele>643</ele>
        <time>2021-08-29T07:26:05Z</time>
      </trkpt>
      <trkpt lat="44.60652" lon="2.55746">
        <ele>641</ele>
        <time>2021-08-29T07:26:11Z</time>
      </trkpt>
      <trkpt lat="44.60719" lon="2.55662">
        <ele>633</ele>
        <time>2021-08-29T07:26:26Z</time>
      </trkpt>
      <trkpt lat="44.60761" lon="2.55627">
        <ele>629</ele>
        <time>2021-08-29T07:26:32Z</time>
      </trkpt>
      <trkpt lat="44.60823" lon="2.55527">
        <ele>622</ele>
        <time>2021-08-29T07:26:42Z</time>
      </trkpt>
      <trkpt lat="44.60833" lon="2.55504">
        <ele>621</ele>
        <time>2021-08-29T07:26:44Z</time>
      </trkpt>
      <trkpt lat="44.60901" lon="2.5523">
        <ele>622</ele>
        <time>2021-08-29T07:27:15Z</time>
      </trkpt>
      <trkpt lat="44.60948" lon="2.55019">
        <ele>619</ele>
        <time>2021-08-29T07:27:43Z</time>
      </trkpt>
      <trkpt lat="44.60974" lon="2.54783">
        <ele>617</ele>
        <time>2021-08-29T07:28:14Z</time>
      </trkpt>
      <trkpt lat="44.60981" lon="2.5474">
        <ele>617</ele>
        <time>2021-08-29T07:28:20Z</time>
      </trkpt>
      <trkpt lat="44.60991" lon="2.54714">
        <ele>617</ele>
        <time>2021-08-29T07:28:24Z</time>
      </trkpt>
      <trkpt lat="44.61005" lon="2.54694">
        <ele>617</ele>
        <time>2021-08-29T07:28:28Z</time>
      </trkpt>
      <trkpt lat="44.61024" lon="2.54675">
        <ele>616</ele>
        <time>2021-08-29T07:28:33Z</time>
      </trkpt>
      <trkpt lat="44.61153" lon="2.54616">
        <ele>616</ele>
        <time>2021-08-29T07:29:03Z</time>
      </trkpt>
      <trkpt lat="44.61286" lon="2.54546">
        <ele>615</ele>
        <time>2021-08-29T07:29:33Z</time>
      </trkpt>
      <trkpt lat="44.61322" lon="2.54521">
        <ele>614</ele>
        <time>2021-08-29T07:29:41Z</time>
      </trkpt>
      <trkpt lat="44.61335" lon="2.54507">
        <ele>614</ele>
        <time>2021-08-29T07:29:44Z</time>
      </trkpt>
      <trkpt lat="44.61346" lon="2.54491">
        <ele>615</ele>
        <time>2021-08-29T07:29:47Z</time>
      </trkpt>
      <trkpt lat="44.61395" lon="2.54356">
        <ele>613</ele>
        <time>2021-08-29T07:30:08Z</time>
      </trkpt>
      <trkpt lat="44.614" lon="2.54327">
        <ele>614</ele>
        <time>2021-08-29T07:30:12Z</time>
      </trkpt>
      <trkpt lat="44.61402" lon="2.54298">
        <ele>614</ele>
        <time>2021-08-29T07:30:16Z</time>
      </trkpt>
      <trkpt lat="44.61397" lon="2.54268">
        <ele>615</ele>
        <time>2021-08-29T07:30:21Z</time>
      </trkpt>
      <trkpt lat="44.61327" lon="2.541">
        <ele>613</ele>
        <time>2021-08-29T07:30:51Z</time>
      </trkpt>
      <trkpt lat="44.61301" lon="2.53981">
        <ele>612</ele>
        <time>2021-08-29T07:31:11Z</time>
      </trkpt>
      <trkpt lat="44.6129" lon="2.53955">
        <ele>613</ele>
        <time>2021-08-29T07:31:15Z</time>
      </trkpt>
      <trkpt lat="44.6127" lon="2.53931">
        <ele>613</ele>
        <time>2021-08-29T07:31:20Z</time>
      </trkpt>
      <trkpt lat="44.61219" lon="2.53886">
        <ele>617</ele>
        <time>2021-08-29T07:31:33Z</time>
      </trkpt>
      <trkpt lat="44.61203" lon="2.5386">
        <ele>617</ele>
        <time>2021-08-29T07:31:39Z</time>
      </trkpt>
      <trkpt lat="44.61194" lon="2.53827">
        <ele>617</ele>
        <time>2021-08-29T07:31:45Z</time>
      </trkpt>
      <trkpt lat="44.6119" lon="2.5378">
        <ele>619</ele>
        <time>2021-08-29T07:31:53Z</time>
      </trkpt>
      <trkpt lat="44.61193" lon="2.53735">
        <ele>619</ele>
        <time>2021-08-29T07:32:01Z</time>
      </trkpt>
      <trkpt lat="44.61202" lon="2.53704">
        <ele>620</ele>
        <time>2021-08-29T07:32:07Z</time>
      </trkpt>
      <trkpt lat="44.61216" lon="2.53678">
        <ele>620</ele>
        <time>2021-08-29T07:32:13Z</time>
      </trkpt>
      <trkpt lat="44.61302" lon="2.53579">
        <ele>621</ele>
        <time>2021-08-29T07:32:44Z</time>
      </trkpt>
      <trkpt lat="44.61352" lon="2.53521">
        <ele>623</ele>
        <time>2021-08-29T07:33:02Z</time>
      </trkpt>
      <trkpt lat="44.61381" lon="2.53504">
        <ele>623</ele>
        <time>2021-08-29T07:33:10Z</time>
      </trkpt>
      <trkpt lat="44.61476" lon="2.53502">
        <ele>631</ele>
        <time>2021-08-29T07:33:42Z</time>
      </trkpt>
      <trkpt lat="44.61558" lon="2.53519">
        <ele>631</ele>
        <time>2021-08-29T07:34:04Z</time>
      </trkpt>
      <trkpt lat="44.61695" lon="2.53458">
        <ele>627</ele>
        <time>2021-08-29T07:34:35Z</time>
      </trkpt>
      <trkpt lat="44.61749" lon="2.53448">
        <ele>627</ele>
        <time>2021-08-29T07:34:43Z</time>
      </trkpt>
      <trkpt lat="44.61773" lon="2.53438">
        <ele>625</ele>
        <time>2021-08-29T07:34:46Z</time>
      </trkpt>
      <trkpt lat="44.61794" lon="2.53416">
        <ele>624</ele>
        <time>2021-08-29T07:34:49Z</time>
      </trkpt>
      <trkpt lat="44.61905" lon="2.53207">
        <ele>619</ele>
        <time>2021-08-29T07:35:14Z</time>
      </trkpt>
      <trkpt lat="44.61934" lon="2.53015">
        <ele>612</ele>
        <time>2021-08-29T07:35:32Z</time>
      </trkpt>
      <trkpt lat="44.61935" lon="2.52981">
        <ele>612</ele>
        <time>2021-08-29T07:35:35Z</time>
      </trkpt>
      <trkpt lat="44.6193" lon="2.52949">
        <ele>611</ele>
        <time>2021-08-29T07:35:38Z</time>
      </trkpt>
      <trkpt lat="44.61919" lon="2.52904">
        <ele>609</ele>
        <time>2021-08-29T07:35:42Z</time>
      </trkpt>
      <trkpt lat="44.61917" lon="2.52892">
        <ele>609</ele>
        <time>2021-08-29T07:35:43Z</time>
      </trkpt>
      <trkpt lat="44.61921" lon="2.52868">
        <ele>608</ele>
        <time>2021-08-29T07:35:45Z</time>
      </trkpt>
      <trkpt lat="44.61925" lon="2.52858">
        <ele>608</ele>
        <time>2021-08-29T07:35:46Z</time>
      </trkpt>
      <trkpt lat="44.61937" lon="2.5284">
        <ele>607</ele>
        <time>2021-08-29T07:35:48Z</time>
      </trkpt>
      <trkpt lat="44.61952" lon="2.52829">
        <ele>607</ele>
        <time>2021-08-29T07:35:50Z</time>
      </trkpt>
      <trkpt lat="44.61975" lon="2.52825">
        <ele>606</ele>
        <time>2021-08-29T07:35:53Z</time>
      </trkpt>
      <trkpt lat="44.62017" lon="2.52834">
        <ele>604</ele>
        <time>2021-08-29T07:35:59Z</time>
      </trkpt>
      <trkpt lat="44.62038" lon="2.52832">
        <ele>603</ele>
        <time>2021-08-29T07:36:02Z</time>
      </trkpt>
      <trkpt lat="44.62047" lon="2.5283">
        <ele>603</ele>
        <time>2021-08-29T07:36:03Z</time>
      </trkpt>
      <trkpt lat="44.62061" lon="2.52819">
        <ele>603</ele>
        <time>2021-08-29T07:36:05Z</time>
      </trkpt>
      <trkpt lat="44.62071" lon="2.52804">
        <ele>603</ele>
        <time>2021-08-29T07:36:07Z</time>
      </trkpt>
      <trkpt lat="44.62096" lon="2.52665">
        <ele>602</ele>
        <time>2021-08-29T07:36:21Z</time>
      </trkpt>
      <trkpt lat="44.62096" lon="2.52601">
        <ele>601</ele>
        <time>2021-08-29T07:36:28Z</time>
      </trkpt>
      <trkpt lat="44.62093" lon="2.52579">
        <ele>600</ele>
        <time>2021-08-29T07:36:31Z</time>
      </trkpt>
      <trkpt lat="44.6209" lon="2.52568">
        <ele>600</ele>
        <time>2021-08-29T07:36:33Z</time>
      </trkpt>
      <trkpt lat="44.62088" lon="2.52562">
        <ele>600</ele>
        <time>2021-08-29T07:36:35Z</time>
      </trkpt>
      <trkpt lat="44.62086" lon="2.52556">
        <ele>599</ele>
        <time>2021-08-29T07:37:20Z</time>
      </trkpt>
      <trkpt lat="44.62063" lon="2.52539">
        <ele>597</ele>
        <time>2021-08-29T07:37:32Z</time>
      </trkpt>
      <trkpt lat="44.62022" lon="2.52522">
        <ele>597</ele>
        <time>2021-08-29T07:37:41Z</time>
      </trkpt>
      <trkpt lat="44.61993" lon="2.52522">
        <ele>598</ele>
        <time>2021-08-29T07:37:46Z</time>
      </trkpt>
      <trkpt lat="44.61907" lon="2.52555">
        <ele>598</ele>
        <time>2021-08-29T07:38:00Z</time>
      </trkpt>
      <trkpt lat="44.61886" lon="2.52552">
        <ele>597</ele>
        <time>2021-08-29T07:38:03Z</time>
      </trkpt>
      <trkpt lat="44.61865" lon="2.52543">
        <ele>596</ele>
        <time>2021-08-29T07:38:06Z</time>
      </trkpt>
      <trkpt lat="44.6179" lon="2.52472">
        <ele>590</ele>
        <time>2021-08-29T07:38:17Z</time>
      </trkpt>
      <trkpt lat="44.61779" lon="2.52452">
        <ele>588</ele>
        <time>2021-08-29T07:38:19Z</time>
      </trkpt>
      <trkpt lat="44.61772" lon="2.52429">
        <ele>587</ele>
        <time>2021-08-29T07:38:21Z</time>
      </trkpt>
      <trkpt lat="44.6177" lon="2.52402">
        <ele>587</ele>
        <time>2021-08-29T07:38:23Z</time>
      </trkpt>
      <trkpt lat="44.61774" lon="2.52375">
        <ele>586</ele>
        <time>2021-08-29T07:38:25Z</time>
      </trkpt>
      <trkpt lat="44.61788" lon="2.52339">
        <ele>585</ele>
        <time>2021-08-29T07:38:28Z</time>
      </trkpt>
      <trkpt lat="44.61823" lon="2.52291">
        <ele>582</ele>
        <time>2021-08-29T07:38:33Z</time>
      </trkpt>
      <trkpt lat="44.61837" lon="2.52254">
        <ele>579</ele>
        <time>2021-08-29T07:38:36Z</time>
      </trkpt>
      <trkpt lat="44.6184" lon="2.52229">
        <ele>578</ele>
        <time>2021-08-29T07:38:38Z</time>
      </trkpt>
      <trkpt lat="44.61837" lon="2.52203">
        <ele>576</ele>
        <time>2021-08-29T07:38:40Z</time>
      </trkpt>
      <trkpt lat="44.61807" lon="2.52135">
        <ele>572</ele>
        <time>2021-08-29T07:38:46Z</time>
      </trkpt>
      <trkpt lat="44.61801" lon="2.52108">
        <ele>571</ele>
        <time>2021-08-29T07:38:48Z</time>
      </trkpt>
      <trkpt lat="44.61803" lon="2.52067">
        <ele>567</ele>
        <time>2021-08-29T07:38:51Z</time>
      </trkpt>
      <trkpt lat="44.61817" lon="2.52">
        <ele>563</ele>
        <time>2021-08-29T07:38:56Z</time>
      </trkpt>
      <trkpt lat="44.61826" lon="2.51972">
        <ele>564</ele>
        <time>2021-08-29T07:38:58Z</time>
      </trkpt>
      <trkpt lat="44.61855" lon="2.5193">
        <ele>565</ele>
        <time>2021-08-29T07:39:02Z</time>
      </trkpt>
      <trkpt lat="44.61863" lon="2.51922">
        <ele>564</ele>
        <time>2021-08-29T07:39:03Z</time>
      </trkpt>
      <trkpt lat="44.61875" lon="2.51904">
        <ele>563</ele>
        <time>2021-08-29T07:39:05Z</time>
      </trkpt>
      <trkpt lat="44.61885" lon="2.51868">
        <ele>560</ele>
        <time>2021-08-29T07:39:08Z</time>
      </trkpt>
      <trkpt lat="44.61897" lon="2.51775">
        <ele>554</ele>
        <time>2021-08-29T07:39:15Z</time>
      </trkpt>
      <trkpt lat="44.61897" lon="2.51746">
        <ele>552</ele>
        <time>2021-08-29T07:39:17Z</time>
      </trkpt>
      <trkpt lat="44.61866" lon="2.51613">
        <ele>542</ele>
        <time>2021-08-29T07:39:27Z</time>
      </trkpt>
      <trkpt lat="44.61865" lon="2.51586">
        <ele>540</ele>
        <time>2021-08-29T07:39:29Z</time>
      </trkpt>
      <trkpt lat="44.61868" lon="2.5156">
        <ele>538</ele>
        <time>2021-08-29T07:39:31Z</time>
      </trkpt>
      <trkpt lat="44.61877" lon="2.51535">
        <ele>537</ele>
        <time>2021-08-29T07:39:33Z</time>
      </trkpt>
      <trkpt lat="44.61896" lon="2.51505">
        <ele>536</ele>
        <time>2021-08-29T07:39:36Z</time>
      </trkpt>
      <trkpt lat="44.61949" lon="2.51456">
        <ele>532</ele>
        <time>2021-08-29T07:39:43Z</time>
      </trkpt>
      <trkpt lat="44.62094" lon="2.51377">
        <ele>517</ele>
        <time>2021-08-29T07:39:59Z</time>
      </trkpt>
      <trkpt lat="44.62101" lon="2.51369">
        <ele>515</ele>
        <time>2021-08-29T07:40:00Z</time>
      </trkpt>
      <trkpt lat="44.62112" lon="2.51349">
        <ele>513</ele>
        <time>2021-08-29T07:40:02Z</time>
      </trkpt>
      <trkpt lat="44.62117" lon="2.51325">
        <ele>511</ele>
        <time>2021-08-29T07:40:04Z</time>
      </trkpt>
      <trkpt lat="44.62117" lon="2.51295">
        <ele>513</ele>
        <time>2021-08-29T07:40:06Z</time>
      </trkpt>
      <trkpt lat="44.62107" lon="2.5125">
        <ele>509</ele>
        <time>2021-08-29T07:40:10Z</time>
      </trkpt>
      <trkpt lat="44.62107" lon="2.51212">
        <ele>507</ele>
        <time>2021-08-29T07:40:13Z</time>
      </trkpt>
      <trkpt lat="44.62111" lon="2.51187">
        <ele>506</ele>
        <time>2021-08-29T07:40:15Z</time>
      </trkpt>
      <trkpt lat="44.62114" lon="2.51176">
        <ele>505</ele>
        <time>2021-08-29T07:40:16Z</time>
      </trkpt>
      <trkpt lat="44.62128" lon="2.51144">
        <ele>499</ele>
        <time>2021-08-29T07:40:19Z</time>
      </trkpt>
      <trkpt lat="44.62199" lon="2.51068">
        <ele>490</ele>
        <time>2021-08-29T07:40:28Z</time>
      </trkpt>
      <trkpt lat="44.6224" lon="2.50993">
        <ele>484</ele>
        <time>2021-08-29T07:40:36Z</time>
      </trkpt>
      <trkpt lat="44.62244" lon="2.50978">
        <ele>482</ele>
        <time>2021-08-29T07:40:38Z</time>
      </trkpt>
      <trkpt lat="44.62243" lon="2.50969">
        <ele>481</ele>
        <time>2021-08-29T07:40:40Z</time>
      </trkpt>
      <trkpt lat="44.62241" lon="2.50962">
        <ele>480</ele>
        <time>2021-08-29T07:40:43Z</time>
      </trkpt>
      <trkpt lat="44.62241" lon="2.50956">
        <ele>478</ele>
        <time>2021-08-29T07:40:49Z</time>
      </trkpt>
      <trkpt lat="44.62234" lon="2.50957">
        <ele>477</ele>
        <time>2021-08-29T07:41:03Z</time>
      </trkpt>
      <trkpt lat="44.62226" lon="2.50958">
        <ele>476</ele>
        <time>2021-08-29T07:41:05Z</time>
      </trkpt>
      <trkpt lat="44.62205" lon="2.50962">
        <ele>474</ele>
        <time>2021-08-29T07:41:09Z</time>
      </trkpt>
      <trkpt lat="44.62139" lon="2.51012">
        <ele>470</ele>
        <time>2021-08-29T07:41:19Z</time>
      </trkpt>
      <trkpt lat="44.61962" lon="2.51075">
        <ele>457</ele>
        <time>2021-08-29T07:41:41Z</time>
      </trkpt>
      <trkpt lat="44.61945" lon="2.51074">
        <ele>456</ele>
        <time>2021-08-29T07:41:43Z</time>
      </trkpt>
      <trkpt lat="44.61885" lon="2.51042">
        <ele>448</ele>
        <time>2021-08-29T07:41:50Z</time>
      </trkpt>
      <trkpt lat="44.61857" lon="2.5104">
        <ele>444</ele>
        <time>2021-08-29T07:41:53Z</time>
      </trkpt>
      <trkpt lat="44.61755" lon="2.51065">
        <ele>435</ele>
        <time>2021-08-29T07:42:04Z</time>
      </trkpt>
      <trkpt lat="44.61704" lon="2.51092">
        <ele>430</ele>
        <time>2021-08-29T07:42:10Z</time>
      </trkpt>
      <trkpt lat="44.61686" lon="2.51092">
        <ele>427</ele>
        <time>2021-08-29T07:42:12Z</time>
      </trkpt>
      <trkpt lat="44.6166" lon="2.5108">
        <ele>425</ele>
        <time>2021-08-29T07:42:15Z</time>
      </trkpt>
      <trkpt lat="44.61646" lon="2.51069">
        <ele>423</ele>
        <time>2021-08-29T07:42:17Z</time>
      </trkpt>
      <trkpt lat="44.61637" lon="2.51065">
        <ele>421</ele>
        <time>2021-08-29T07:42:18Z</time>
      </trkpt>
      <trkpt lat="44.6161" lon="2.51063">
        <ele>418</ele>
        <time>2021-08-29T07:42:21Z</time>
      </trkpt>
      <trkpt lat="44.61549" lon="2.51084">
        <ele>415</ele>
        <time>2021-08-29T07:42:28Z</time>
      </trkpt>
      <trkpt lat="44.61533" lon="2.51082">
        <ele>414</ele>
        <time>2021-08-29T07:42:30Z</time>
      </trkpt>
      <trkpt lat="44.61482" lon="2.51056">
        <ele>406</ele>
        <time>2021-08-29T07:42:40Z</time>
      </trkpt>
      <trkpt lat="44.61463" lon="2.51056">
        <ele>406</ele>
        <time>2021-08-29T07:42:44Z</time>
      </trkpt>
      <trkpt lat="44.61358" lon="2.51081">
        <ele>397</ele>
        <time>2021-08-29T07:43:09Z</time>
      </trkpt>
      <trkpt lat="44.61348" lon="2.51081">
        <ele>397</ele>
        <time>2021-08-29T07:43:11Z</time>
      </trkpt>
      <trkpt lat="44.61341" lon="2.51077">
        <ele>396</ele>
        <time>2021-08-29T07:43:13Z</time>
      </trkpt>
      <trkpt lat="44.61334" lon="2.51072">
        <ele>396</ele>
        <time>2021-08-29T07:43:15Z</time>
      </trkpt>
      <trkpt lat="44.61331" lon="2.51067">
        <ele>396</ele>
        <time>2021-08-29T07:43:16Z</time>
      </trkpt>
      <trkpt lat="44.61319" lon="2.51041">
        <ele>394</ele>
        <time>2021-08-29T07:43:21Z</time>
      </trkpt>
      <trkpt lat="44.61315" lon="2.51033">
        <ele>394</ele>
        <time>2021-08-29T07:43:23Z</time>
      </trkpt>
      <trkpt lat="44.61309" lon="2.51025">
        <ele>394</ele>
        <time>2021-08-29T07:43:25Z</time>
      </trkpt>
      <trkpt lat="44.61303" lon="2.51021">
        <ele>394</ele>
        <time>2021-08-29T07:43:27Z</time>
      </trkpt>
      <trkpt lat="44.61264" lon="2.5102">
        <ele>391</ele>
        <time>2021-08-29T07:43:37Z</time>
      </trkpt>
      <trkpt lat="44.61257" lon="2.51016">
        <ele>391</ele>
        <time>2021-08-29T07:43:39Z</time>
      </trkpt>
      <trkpt lat="44.6125" lon="2.51001">
        <ele>388</ele>
        <time>2021-08-29T07:43:44Z</time>
      </trkpt>
      <trkpt lat="44.61239" lon="2.50936">
        <ele>385</ele>
        <time>2021-08-29T07:43:58Z</time>
      </trkpt>
      <trkpt lat="44.61238" lon="2.50912">
        <ele>383</ele>
        <time>2021-08-29T07:44:04Z</time>
      </trkpt>
      <trkpt lat="44.61234" lon="2.5089">
        <ele>381</ele>
        <time>2021-08-29T07:44:08Z</time>
      </trkpt>
      <trkpt lat="44.61233" lon="2.50881">
        <ele>381</ele>
        <time>2021-08-29T07:44:10Z</time>
      </trkpt>
      <trkpt lat="44.61219" lon="2.50863">
        <ele>380</ele>
        <time>2021-08-29T07:44:14Z</time>
      </trkpt>
      <trkpt lat="44.61209" lon="2.50857">
        <ele>380</ele>
        <time>2021-08-29T07:44:16Z</time>
      </trkpt>
      <trkpt lat="44.61198" lon="2.50854">
        <ele>380</ele>
        <time>2021-08-29T07:44:18Z</time>
      </trkpt>
      <trkpt lat="44.61187" lon="2.50854">
        <ele>379</ele>
        <time>2021-08-29T07:44:20Z</time>
      </trkpt>
      <trkpt lat="44.61165" lon="2.50861">
        <ele>378</ele>
        <time>2021-08-29T07:44:24Z</time>
      </trkpt>
      <trkpt lat="44.61156" lon="2.50867">
        <ele>378</ele>
        <time>2021-08-29T07:44:26Z</time>
      </trkpt>
      <trkpt lat="44.61135" lon="2.50894">
        <ele>377</ele>
        <time>2021-08-29T07:44:31Z</time>
      </trkpt>
      <trkpt lat="44.61129" lon="2.50913">
        <ele>376</ele>
        <time>2021-08-29T07:44:34Z</time>
      </trkpt>
      <trkpt lat="44.61129" lon="2.50919">
        <ele>376</ele>
        <time>2021-08-29T07:44:35Z</time>
      </trkpt>
      <trkpt lat="44.61134" lon="2.50959">
        <ele>377</ele>
        <time>2021-08-29T07:44:41Z</time>
      </trkpt>
      <trkpt lat="44.61139" lon="2.50974">
        <ele>377</ele>
        <time>2021-08-29T07:44:43Z</time>
      </trkpt>
      <trkpt lat="44.61154" lon="2.51018">
        <ele>378</ele>
        <time>2021-08-29T07:44:52Z</time>
      </trkpt>
      <trkpt lat="44.61157" lon="2.51025">
        <ele>378</ele>
        <time>2021-08-29T07:44:54Z</time>
      </trkpt>
      <trkpt lat="44.61168" lon="2.51047">
        <ele>378</ele>
        <time>2021-08-29T07:45:00Z</time>
      </trkpt>
      <trkpt lat="44.61174" lon="2.51064">
        <ele>378</ele>
        <time>2021-08-29T07:45:03Z</time>
      </trkpt>
      <trkpt lat="44.61174" lon="2.51088">
        <ele>377</ele>
        <time>2021-08-29T07:45:07Z</time>
      </trkpt>
      <trkpt lat="44.61172" lon="2.51095">
        <ele>377</ele>
        <time>2021-08-29T07:45:08Z</time>
      </trkpt>
      <trkpt lat="44.61167" lon="2.51104">
        <ele>376</ele>
        <time>2021-08-29T07:45:10Z</time>
      </trkpt>
      <trkpt lat="44.61092" lon="2.51147">
        <ele>373</ele>
        <time>2021-08-29T07:45:34Z</time>
      </trkpt>
      <trkpt lat="44.61079" lon="2.51161">
        <ele>374</ele>
        <time>2021-08-29T07:45:41Z</time>
      </trkpt>
      <trkpt lat="44.61063" lon="2.51206">
        <ele>374</ele>
        <time>2021-08-29T07:45:55Z</time>
      </trkpt>
      <trkpt lat="44.61046" lon="2.51233">
        <ele>374</ele>
        <time>2021-08-29T07:46:03Z</time>
      </trkpt>
      <trkpt lat="44.61022" lon="2.5125">
        <ele>374</ele>
        <time>2021-08-29T07:46:10Z</time>
      </trkpt>
      <trkpt lat="44.60878" lon="2.51297">
        <ele>371</ele>
        <time>2021-08-29T07:46:41Z</time>
      </trkpt>
      <trkpt lat="44.60868" lon="2.51302">
        <ele>370</ele>
        <time>2021-08-29T07:46:43Z</time>
      </trkpt>
      <trkpt lat="44.60853" lon="2.51305">
        <ele>370</ele>
        <time>2021-08-29T07:46:46Z</time>
      </trkpt>
      <trkpt lat="44.60843" lon="2.51303">
        <ele>369</ele>
        <time>2021-08-29T07:46:48Z</time>
      </trkpt>
      <trkpt lat="44.60834" lon="2.51296">
        <ele>368</ele>
        <time>2021-08-29T07:46:50Z</time>
      </trkpt>
      <trkpt lat="44.60818" lon="2.51275">
        <ele>365</ele>
        <time>2021-08-29T07:46:54Z</time>
      </trkpt>
      <trkpt lat="44.60805" lon="2.51246">
        <ele>364</ele>
        <time>2021-08-29T07:46:58Z</time>
      </trkpt>
      <trkpt lat="44.60791" lon="2.51179">
        <ele>364</ele>
        <time>2021-08-29T07:47:06Z</time>
      </trkpt>
      <trkpt lat="44.60789" lon="2.51153">
        <ele>367</ele>
        <time>2021-08-29T07:47:10Z</time>
      </trkpt>
      <trkpt lat="44.60789" lon="2.51137">
        <ele>369</ele>
        <time>2021-08-29T07:47:14Z</time>
      </trkpt>
      <trkpt lat="44.60792" lon="2.5111">
        <ele>371</ele>
        <time>2021-08-29T07:47:20Z</time>
      </trkpt>
      <trkpt lat="44.60804" lon="2.51082">
        <ele>373</ele>
        <time>2021-08-29T07:47:30Z</time>
      </trkpt>
      <trkpt lat="44.60813" lon="2.51048">
        <ele>375</ele>
        <time>2021-08-29T07:47:40Z</time>
      </trkpt>
      <trkpt lat="44.60818" lon="2.51026">
        <ele>377</ele>
        <time>2021-08-29T07:47:46Z</time>
      </trkpt>
      <trkpt lat="44.60814" lon="2.50992">
        <ele>378</ele>
        <time>2021-08-29T07:47:56Z</time>
      </trkpt>
      <trkpt lat="44.60797" lon="2.50968">
        <ele>377</ele>
        <time>2021-08-29T07:48:07Z</time>
      </trkpt>
      <trkpt lat="44.60752" lon="2.50929">
        <ele>372</ele>
        <time>2021-08-29T07:48:29Z</time>
      </trkpt>
      <trkpt lat="44.60742" lon="2.50913">
        <ele>371</ele>
        <time>2021-08-29T07:48:35Z</time>
      </trkpt>
      <trkpt lat="44.60738" lon="2.509">
        <ele>371</ele>
        <time>2021-08-29T07:48:39Z</time>
      </trkpt>
      <trkpt lat="44.60735" lon="2.50877">
        <ele>373</ele>
        <time>2021-08-29T07:48:45Z</time>
      </trkpt>
      <trkpt lat="44.60739" lon="2.50854">
        <ele>374</ele>
        <time>2021-08-29T07:48:51Z</time>
      </trkpt>
      <trkpt lat="44.60767" lon="2.50783">
        <ele>381</ele>
        <time>2021-08-29T07:49:13Z</time>
      </trkpt>
      <trkpt lat="44.60777" lon="2.50701">
        <ele>384</ele>
        <time>2021-08-29T07:49:35Z</time>
      </trkpt>
      <trkpt lat="44.60778" lon="2.50664">
        <ele>386</ele>
        <time>2021-08-29T07:49:46Z</time>
      </trkpt>
      <trkpt lat="44.6076" lon="2.50598">
        <ele>387</ele>
        <time>2021-08-29T07:50:04Z</time>
      </trkpt>
      <trkpt lat="44.60758" lon="2.50543">
        <ele>391</ele>
        <time>2021-08-29T07:50:18Z</time>
      </trkpt>
      <trkpt lat="44.60753" lon="2.50512">
        <ele>392</ele>
        <time>2021-08-29T07:50:28Z</time>
      </trkpt>
      <trkpt lat="44.6074" lon="2.50492">
        <ele>391</ele>
        <time>2021-08-29T07:50:36Z</time>
      </trkpt>
      <trkpt lat="44.60711" lon="2.50448">
        <ele>391</ele>
        <time>2021-08-29T07:50:54Z</time>
      </trkpt>
      <trkpt lat="44.60686" lon="2.50432">
        <ele>392</ele>
        <time>2021-08-29T07:51:06Z</time>
      </trkpt>
      <trkpt lat="44.60663" lon="2.50422">
        <ele>393</ele>
        <time>2021-08-29T07:51:16Z</time>
      </trkpt>
      <trkpt lat="44.60654" lon="2.50415">
        <ele>394</ele>
        <time>2021-08-29T07:51:20Z</time>
      </trkpt>
      <trkpt lat="44.60646" lon="2.50403">
        <ele>395</ele>
        <time>2021-08-29T07:51:24Z</time>
      </trkpt>
      <trkpt lat="44.60633" lon="2.50368">
        <ele>399</ele>
        <time>2021-08-29T07:51:34Z</time>
      </trkpt>
      <trkpt lat="44.6063" lon="2.50343">
        <ele>401</ele>
        <time>2021-08-29T07:51:40Z</time>
      </trkpt>
      <trkpt lat="44.60629" lon="2.50297">
        <ele>404</ele>
        <time>2021-08-29T07:51:50Z</time>
      </trkpt>
      <trkpt lat="44.60627" lon="2.50272">
        <ele>405</ele>
        <time>2021-08-29T07:51:56Z</time>
      </trkpt>
      <trkpt lat="44.60633" lon="2.50148">
        <ele>412</ele>
        <time>2021-08-29T07:52:26Z</time>
      </trkpt>
      <trkpt lat="44.60634" lon="2.50108">
        <ele>410</ele>
        <time>2021-08-29T07:52:36Z</time>
      </trkpt>
      <trkpt lat="44.60631" lon="2.50084">
        <ele>410</ele>
        <time>2021-08-29T07:52:42Z</time>
      </trkpt>
      <trkpt lat="44.60625" lon="2.50069">
        <ele>410</ele>
        <time>2021-08-29T07:52:46Z</time>
      </trkpt>
      <trkpt lat="44.60622" lon="2.50063">
        <ele>410</ele>
        <time>2021-08-29T07:52:48Z</time>
      </trkpt>
      <trkpt lat="44.60601" lon="2.50041">
        <ele>410</ele>
        <time>2021-08-29T07:52:56Z</time>
      </trkpt>
      <trkpt lat="44.60521" lon="2.49983">
        <ele>413</ele>
        <time>2021-08-29T07:53:22Z</time>
      </trkpt>
      <trkpt lat="44.60504" lon="2.49965">
        <ele>411</ele>
        <time>2021-08-29T07:53:28Z</time>
      </trkpt>
      <trkpt lat="44.60496" lon="2.49949">
        <ele>411</ele>
        <time>2021-08-29T07:53:32Z</time>
      </trkpt>
      <trkpt lat="44.60491" lon="2.49929">
        <ele>411</ele>
        <time>2021-08-29T07:53:36Z</time>
      </trkpt>
      <trkpt lat="44.60482" lon="2.49782">
        <ele>409</ele>
        <time>2021-08-29T07:54:01Z</time>
      </trkpt>
      <trkpt lat="44.60488" lon="2.49742">
        <ele>408</ele>
        <time>2021-08-29T07:54:06Z</time>
      </trkpt>
      <trkpt lat="44.60515" lon="2.49647">
        <ele>406</ele>
        <time>2021-08-29T07:54:18Z</time>
      </trkpt>
      <trkpt lat="44.6052" lon="2.49623">
        <ele>405</ele>
        <time>2021-08-29T07:54:21Z</time>
      </trkpt>
      <trkpt lat="44.60529" lon="2.49604">
        <ele>408</ele>
        <time>2021-08-29T07:54:24Z</time>
      </trkpt>
      <trkpt lat="44.60536" lon="2.49594">
        <ele>410</ele>
        <time>2021-08-29T07:54:26Z</time>
      </trkpt>
      <trkpt lat="44.6061" lon="2.49549">
        <ele>419</ele>
        <time>2021-08-29T07:54:56Z</time>
      </trkpt>
      <trkpt lat="44.60637" lon="2.49534">
        <ele>422</ele>
        <time>2021-08-29T07:55:06Z</time>
      </trkpt>
      <trkpt lat="44.60646" lon="2.49524">
        <ele>424</ele>
        <time>2021-08-29T07:55:10Z</time>
      </trkpt>
      <trkpt lat="44.60652" lon="2.49511">
        <ele>425</ele>
        <time>2021-08-29T07:55:14Z</time>
      </trkpt>
      <trkpt lat="44.60654" lon="2.49497">
        <ele>426</ele>
        <time>2021-08-29T07:55:18Z</time>
      </trkpt>
      <trkpt lat="44.60651" lon="2.49484">
        <ele>426</ele>
        <time>2021-08-29T07:55:22Z</time>
      </trkpt>
      <trkpt lat="44.60649" lon="2.49478">
        <ele>426</ele>
        <time>2021-08-29T07:55:24Z</time>
      </trkpt>
      <trkpt lat="44.60617" lon="2.49434">
        <ele>425</ele>
        <time>2021-08-29T07:55:44Z</time>
      </trkpt>
      <trkpt lat="44.60608" lon="2.49409">
        <ele>426</ele>
        <time>2021-08-29T07:55:53Z</time>
      </trkpt>
      <trkpt lat="44.60581" lon="2.49318">
        <ele>428</ele>
        <time>2021-08-29T07:56:24Z</time>
      </trkpt>
      <trkpt lat="44.60564" lon="2.49235">
        <ele>434</ele>
        <time>2021-08-29T07:56:52Z</time>
      </trkpt>
      <trkpt lat="44.60559" lon="2.49179">
        <ele>438</ele>
        <time>2021-08-29T07:57:11Z</time>
      </trkpt>
      <trkpt lat="44.60569" lon="2.49095">
        <ele>442</ele>
        <time>2021-08-29T07:57:41Z</time>
      </trkpt>
      <trkpt lat="44.60574" lon="2.49057">
        <ele>438</ele>
        <time>2021-08-29T07:57:55Z</time>
      </trkpt>
      <trkpt lat="44.60577" lon="2.4905">
        <ele>437</ele>
        <time>2021-08-29T07:57:58Z</time>
      </trkpt>
      <trkpt lat="44.60581" lon="2.49027">
        <ele>436</ele>
        <time>2021-08-29T07:58:06Z</time>
      </trkpt>
      <trkpt lat="44.60597" lon="2.49007">
        <ele>439</ele>
        <time>2021-08-29T07:58:16Z</time>
      </trkpt>
      <trkpt lat="44.60608" lon="2.48985">
        <ele>442</ele>
        <time>2021-08-29T07:58:24Z</time>
      </trkpt>
      <trkpt lat="44.60611" lon="2.48979">
        <ele>443</ele>
        <time>2021-08-29T07:58:26Z</time>
      </trkpt>
      <trkpt lat="44.60629" lon="2.48949">
        <ele>451</ele>
        <time>2021-08-29T07:58:39Z</time>
      </trkpt>
      <trkpt lat="44.60631" lon="2.48943">
        <ele>452</ele>
        <time>2021-08-29T07:58:41Z</time>
      </trkpt>
      <trkpt lat="44.60654" lon="2.48898">
        <ele>458</ele>
        <time>2021-08-29T07:58:59Z</time>
      </trkpt>
      <trkpt lat="44.6068" lon="2.48872">
        <ele>464</ele>
        <time>2021-08-29T07:59:13Z</time>
      </trkpt>
      <trkpt lat="44.60716" lon="2.48854">
        <ele>467</ele>
        <time>2021-08-29T07:59:30Z</time>
      </trkpt>
      <trkpt lat="44.60732" lon="2.48832">
        <ele>468</ele>
        <time>2021-08-29T07:59:40Z</time>
      </trkpt>
      <trkpt lat="44.60745" lon="2.48815">
        <ele>469</ele>
        <time>2021-08-29T07:59:49Z</time>
      </trkpt>
      <trkpt lat="44.60758" lon="2.48779">
        <ele>468</ele>
        <time>2021-08-29T08:00:02Z</time>
      </trkpt>
      <trkpt lat="44.60761" lon="2.48771">
        <ele>467</ele>
        <time>2021-08-29T08:00:04Z</time>
      </trkpt>
      <trkpt lat="44.60767" lon="2.48751">
        <ele>468</ele>
        <time>2021-08-29T08:00:10Z</time>
      </trkpt>
      <trkpt lat="44.60767" lon="2.48731">
        <ele>469</ele>
        <time>2021-08-29T08:00:16Z</time>
      </trkpt>
      <trkpt lat="44.60761" lon="2.48711">
        <ele>471</ele>
        <time>2021-08-29T08:00:23Z</time>
      </trkpt>
      <trkpt lat="44.60754" lon="2.48696">
        <ele>472</ele>
        <time>2021-08-29T08:00:29Z</time>
      </trkpt>
      <trkpt lat="44.60742" lon="2.48685">
        <ele>473</ele>
        <time>2021-08-29T08:00:35Z</time>
      </trkpt>
      <trkpt lat="44.6072" lon="2.48671">
        <ele>474</ele>
        <time>2021-08-29T08:00:45Z</time>
      </trkpt>
      <trkpt lat="44.60715" lon="2.48669">
        <ele>474</ele>
        <time>2021-08-29T08:00:47Z</time>
      </trkpt>
      <trkpt lat="44.60683" lon="2.4865">
        <ele>478</ele>
        <time>2021-08-29T08:01:03Z</time>
      </trkpt>
      <trkpt lat="44.60677" lon="2.48645">
        <ele>479</ele>
        <time>2021-08-29T08:01:06Z</time>
      </trkpt>
      <trkpt lat="44.60673" lon="2.48639">
        <ele>479</ele>
        <time>2021-08-29T08:01:09Z</time>
      </trkpt>
      <trkpt lat="44.60668" lon="2.48627">
        <ele>478</ele>
        <time>2021-08-29T08:01:13Z</time>
      </trkpt>
      <trkpt lat="44.60665" lon="2.4862">
        <ele>477</ele>
        <time>2021-08-29T08:01:16Z</time>
      </trkpt>
      <trkpt lat="44.60664" lon="2.486">
        <ele>476</ele>
        <time>2021-08-29T08:01:22Z</time>
      </trkpt>
      <trkpt lat="44.60669" lon="2.48576">
        <ele>479</ele>
        <time>2021-08-29T08:01:31Z</time>
      </trkpt>
      <trkpt lat="44.60677" lon="2.48553">
        <ele>481</ele>
        <time>2021-08-29T08:01:39Z</time>
      </trkpt>
      <trkpt lat="44.6068" lon="2.48538">
        <ele>482</ele>
        <time>2021-08-29T08:01:44Z</time>
      </trkpt>
      <trkpt lat="44.60681" lon="2.48525">
        <ele>482</ele>
        <time>2021-08-29T08:01:48Z</time>
      </trkpt>
      <trkpt lat="44.6068" lon="2.48516">
        <ele>481</ele>
        <time>2021-08-29T08:01:51Z</time>
      </trkpt>
      <trkpt lat="44.60677" lon="2.4851">
        <ele>482</ele>
        <time>2021-08-29T08:01:53Z</time>
      </trkpt>
      <trkpt lat="44.60673" lon="2.48506">
        <ele>483</ele>
        <time>2021-08-29T08:01:55Z</time>
      </trkpt>
      <trkpt lat="44.60669" lon="2.48503">
        <ele>486</ele>
        <time>2021-08-29T08:01:57Z</time>
      </trkpt>
      <trkpt lat="44.60648" lon="2.48502">
        <ele>488</ele>
        <time>2021-08-29T08:02:06Z</time>
      </trkpt>
      <trkpt lat="44.60632" lon="2.48508">
        <ele>490</ele>
        <time>2021-08-29T08:02:13Z</time>
      </trkpt>
      <trkpt lat="44.60614" lon="2.48519">
        <ele>493</ele>
        <time>2021-08-29T08:02:21Z</time>
      </trkpt>
      <trkpt lat="44.60591" lon="2.48542">
        <ele>498</ele>
        <time>2021-08-29T08:02:33Z</time>
      </trkpt>
      <trkpt lat="44.60574" lon="2.48547">
        <ele>502</ele>
        <time>2021-08-29T08:02:41Z</time>
      </trkpt>
      <trkpt lat="44.60563" lon="2.48547">
        <ele>503</ele>
        <time>2021-08-29T08:02:47Z</time>
      </trkpt>
      <trkpt lat="44.60543" lon="2.48533">
        <ele>505</ele>
        <time>2021-08-29T08:02:57Z</time>
      </trkpt>
      <trkpt lat="44.60538" lon="2.48529">
        <ele>506</ele>
        <time>2021-08-29T08:03:00Z</time>
      </trkpt>
      <trkpt lat="44.60533" lon="2.48528">
        <ele>506</ele>
        <time>2021-08-29T08:03:03Z</time>
      </trkpt>
      <trkpt lat="44.60529" lon="2.48534">
        <ele>505</ele>
        <time>2021-08-29T08:03:05Z</time>
      </trkpt>
      <trkpt lat="44.60528" lon="2.48564">
        <ele>503</ele>
        <time>2021-08-29T08:03:17Z</time>
      </trkpt>
      <trkpt lat="44.60527" lon="2.48571">
        <ele>505</ele>
        <time>2021-08-29T08:04:35Z</time>
      </trkpt>
      <trkpt lat="44.60532" lon="2.48574">
        <ele>505</ele>
        <time>2021-08-29T08:04:38Z</time>
      </trkpt>
      <trkpt lat="44.60532" lon="2.4859">
        <ele>505</ele>
        <time>2021-08-29T08:04:45Z</time>
      </trkpt>
      <trkpt lat="44.60531" lon="2.48597">
        <ele>504</ele>
        <time>2021-08-29T08:04:49Z</time>
      </trkpt>
      <trkpt lat="44.60525" lon="2.486">
        <ele>501</ele>
        <time>2021-08-29T08:05:05Z</time>
      </trkpt>
      <trkpt lat="44.60524" lon="2.48594">
        <ele>501</ele>
        <time>2021-08-29T08:08:28Z</time>
      </trkpt>
      <trkpt lat="44.60523" lon="2.4859">
        <ele>506</ele>
        <time>2021-08-29T08:11:17Z</time>
      </trkpt>
      <trkpt lat="44.60527" lon="2.48587">
        <ele>507</ele>
        <time>2021-08-29T08:12:17Z</time>
      </trkpt>
      <trkpt lat="44.60529" lon="2.4858">
        <ele>509</ele>
        <time>2021-08-29T08:12:20Z</time>
      </trkpt>
      <trkpt lat="44.6053" lon="2.48573">
        <ele>509</ele>
        <time>2021-08-29T08:12:23Z</time>
      </trkpt>
      <trkpt lat="44.60529" lon="2.48567">
        <ele>507</ele>
        <time>2021-08-29T08:12:29Z</time>
      </trkpt>
      <trkpt lat="44.60526" lon="2.48561">
        <ele>504</ele>
        <time>2021-08-29T08:12:35Z</time>
      </trkpt>
      <trkpt lat="44.60526" lon="2.48553">
        <ele>503</ele>
        <time>2021-08-29T08:12:39Z</time>
      </trkpt>
      <trkpt lat="44.60526" lon="2.48544">
        <ele>504</ele>
        <time>2021-08-29T08:12:42Z</time>
      </trkpt>
      <trkpt lat="44.60529" lon="2.48539">
        <ele>504</ele>
        <time>2021-08-29T08:12:44Z</time>
      </trkpt>
      <trkpt lat="44.60532" lon="2.48532">
        <ele>503</ele>
        <time>2021-08-29T08:12:47Z</time>
      </trkpt>
      <trkpt lat="44.60533" lon="2.48525">
        <ele>502</ele>
        <time>2021-08-29T08:12:50Z</time>
      </trkpt>
      <trkpt lat="44.60531" lon="2.48517">
        <ele>501</ele>
        <time>2021-08-29T08:12:53Z</time>
      </trkpt>
      <trkpt lat="44.60502" lon="2.48475">
        <ele>496</ele>
        <time>2021-08-29T08:13:07Z</time>
      </trkpt>
      <trkpt lat="44.60499" lon="2.48468">
        <ele>496</ele>
        <time>2021-08-29T08:13:09Z</time>
      </trkpt>
      <trkpt lat="44.60496" lon="2.48458">
        <ele>495</ele>
        <time>2021-08-29T08:13:12Z</time>
      </trkpt>
      <trkpt lat="44.60496" lon="2.48451">
        <ele>495</ele>
        <time>2021-08-29T08:13:14Z</time>
      </trkpt>
      <trkpt lat="44.60495" lon="2.48443">
        <ele>493</ele>
        <time>2021-08-29T08:13:16Z</time>
      </trkpt>
      <trkpt lat="44.60497" lon="2.48437">
        <ele>492</ele>
        <time>2021-08-29T08:13:19Z</time>
      </trkpt>
      <trkpt lat="44.60502" lon="2.48426">
        <ele>488</ele>
        <time>2021-08-29T08:13:23Z</time>
      </trkpt>
      <trkpt lat="44.60502" lon="2.48418">
        <ele>490</ele>
        <time>2021-08-29T08:13:25Z</time>
      </trkpt>
      <trkpt lat="44.6051" lon="2.48407">
        <ele>492</ele>
        <time>2021-08-29T08:13:30Z</time>
      </trkpt>
      <trkpt lat="44.60512" lon="2.484">
        <ele>494</ele>
        <time>2021-08-29T08:13:32Z</time>
      </trkpt>
      <trkpt lat="44.6056" lon="2.48324">
        <ele>508</ele>
        <time>2021-08-29T08:14:03Z</time>
      </trkpt>
      <trkpt lat="44.60563" lon="2.48317">
        <ele>509</ele>
        <time>2021-08-29T08:14:06Z</time>
      </trkpt>
      <trkpt lat="44.6057" lon="2.48304">
        <ele>509</ele>
        <time>2021-08-29T08:14:12Z</time>
      </trkpt>
      <trkpt lat="44.60601" lon="2.48249">
        <ele>514</ele>
        <time>2021-08-29T08:14:36Z</time>
      </trkpt>
      <trkpt lat="44.6061" lon="2.48228">
        <ele>513</ele>
        <time>2021-08-29T08:14:45Z</time>
      </trkpt>
      <trkpt lat="44.60612" lon="2.48222">
        <ele>513</ele>
        <time>2021-08-29T08:14:48Z</time>
      </trkpt>
      <trkpt lat="44.60622" lon="2.48194">
        <ele>511</ele>
        <time>2021-08-29T08:14:59Z</time>
      </trkpt>
      <trkpt lat="44.60624" lon="2.48185">
        <ele>510</ele>
        <time>2021-08-29T08:15:02Z</time>
      </trkpt>
      <trkpt lat="44.6063" lon="2.48174">
        <ele>511</ele>
        <time>2021-08-29T08:15:06Z</time>
      </trkpt>
      <trkpt lat="44.6069" lon="2.48122">
        <ele>518</ele>
        <time>2021-08-29T08:15:37Z</time>
      </trkpt>
      <trkpt lat="44.60699" lon="2.48117">
        <ele>520</ele>
        <time>2021-08-29T08:15:41Z</time>
      </trkpt>
      <trkpt lat="44.60728" lon="2.48082">
        <ele>525</ele>
        <time>2021-08-29T08:15:59Z</time>
      </trkpt>
      <trkpt lat="44.60769" lon="2.47997">
        <ele>531</ele>
        <time>2021-08-29T08:16:32Z</time>
      </trkpt>
      <trkpt lat="44.60779" lon="2.47966">
        <ele>534</ele>
        <time>2021-08-29T08:16:44Z</time>
      </trkpt>
      <trkpt lat="44.60787" lon="2.47915">
        <ele>533</ele>
        <time>2021-08-29T08:17:01Z</time>
      </trkpt>
      <trkpt lat="44.60786" lon="2.47909">
        <ele>534</ele>
        <time>2021-08-29T08:17:03Z</time>
      </trkpt>
      <trkpt lat="44.60785" lon="2.47893">
        <ele>535</ele>
        <time>2021-08-29T08:17:08Z</time>
      </trkpt>
      <trkpt lat="44.60784" lon="2.47884">
        <ele>534</ele>
        <time>2021-08-29T08:17:11Z</time>
      </trkpt>
      <trkpt lat="44.60783" lon="2.47877">
        <ele>533</ele>
        <time>2021-08-29T08:17:13Z</time>
      </trkpt>
      <trkpt lat="44.60782" lon="2.47871">
        <ele>533</ele>
        <time>2021-08-29T08:17:15Z</time>
      </trkpt>
      <trkpt lat="44.60778" lon="2.47836">
        <ele>532</ele>
        <time>2021-08-29T08:17:26Z</time>
      </trkpt>
      <trkpt lat="44.6078" lon="2.478">
        <ele>532</ele>
        <time>2021-08-29T08:17:37Z</time>
      </trkpt>
      <trkpt lat="44.60783" lon="2.47786">
        <ele>533</ele>
        <time>2021-08-29T08:17:41Z</time>
      </trkpt>
      <trkpt lat="44.60791" lon="2.47777">
        <ele>535</ele>
        <time>2021-08-29T08:17:48Z</time>
      </trkpt>
      <trkpt lat="44.608" lon="2.47773">
        <ele>535</ele>
        <time>2021-08-29T08:17:52Z</time>
      </trkpt>
      <trkpt lat="44.60812" lon="2.47759">
        <ele>534</ele>
        <time>2021-08-29T08:17:59Z</time>
      </trkpt>
      <trkpt lat="44.60816" lon="2.47752">
        <ele>535</ele>
        <time>2021-08-29T08:18:02Z</time>
      </trkpt>
      <trkpt lat="44.60821" lon="2.47741">
        <ele>536</ele>
        <time>2021-08-29T08:18:06Z</time>
      </trkpt>
      <trkpt lat="44.60821" lon="2.47727">
        <ele>537</ele>
        <time>2021-08-29T08:18:11Z</time>
      </trkpt>
      <trkpt lat="44.60821" lon="2.47721">
        <ele>537</ele>
        <time>2021-08-29T08:18:13Z</time>
      </trkpt>
      <trkpt lat="44.60812" lon="2.47686">
        <ele>536</ele>
        <time>2021-08-29T08:18:24Z</time>
      </trkpt>
      <trkpt lat="44.60811" lon="2.47671">
        <ele>536</ele>
        <time>2021-08-29T08:18:29Z</time>
      </trkpt>
      <trkpt lat="44.60811" lon="2.47664">
        <ele>536</ele>
        <time>2021-08-29T08:18:31Z</time>
      </trkpt>
      <trkpt lat="44.60815" lon="2.47651">
        <ele>537</ele>
        <time>2021-08-29T08:18:35Z</time>
      </trkpt>
      <trkpt lat="44.60819" lon="2.47647">
        <ele>538</ele>
        <time>2021-08-29T08:18:37Z</time>
      </trkpt>
      <trkpt lat="44.60836" lon="2.47628">
        <ele>541</ele>
        <time>2021-08-29T08:18:47Z</time>
      </trkpt>
      <trkpt lat="44.60847" lon="2.47604">
        <ele>544</ele>
        <time>2021-08-29T08:18:55Z</time>
      </trkpt>
      <trkpt lat="44.60856" lon="2.47556">
        <ele>555</ele>
        <time>2021-08-29T08:19:11Z</time>
      </trkpt>
      <trkpt lat="44.60859" lon="2.47549">
        <ele>555</ele>
        <time>2021-08-29T08:19:14Z</time>
      </trkpt>
      <trkpt lat="44.60862" lon="2.47545">
        <ele>557</ele>
        <time>2021-08-29T08:20:14Z</time>
      </trkpt>
      <trkpt lat="44.60857" lon="2.47541">
        <ele>555</ele>
        <time>2021-08-29T08:21:02Z</time>
      </trkpt>
      <trkpt lat="44.60851" lon="2.47538">
        <ele>556</ele>
        <time>2021-08-29T08:21:04Z</time>
      </trkpt>
      <trkpt lat="44.60848" lon="2.47534">
        <ele>557</ele>
        <time>2021-08-29T08:21:06Z</time>
      </trkpt>
      <trkpt lat="44.60847" lon="2.47525">
        <ele>558</ele>
        <time>2021-08-29T08:21:09Z</time>
      </trkpt>
      <trkpt lat="44.60847" lon="2.47516">
        <ele>558</ele>
        <time>2021-08-29T08:21:12Z</time>
      </trkpt>
      <trkpt lat="44.60848" lon="2.47502">
        <ele>557</ele>
        <time>2021-08-29T08:21:16Z</time>
      </trkpt>
      <trkpt lat="44.60847" lon="2.47495">
        <ele>557</ele>
        <time>2021-08-29T08:21:19Z</time>
      </trkpt>
      <trkpt lat="44.60843" lon="2.47479">
        <ele>556</ele>
        <time>2021-08-29T08:21:25Z</time>
      </trkpt>
      <trkpt lat="44.60842" lon="2.4747">
        <ele>556</ele>
        <time>2021-08-29T08:21:28Z</time>
      </trkpt>
      <trkpt lat="44.60838" lon="2.47458">
        <ele>557</ele>
        <time>2021-08-29T08:21:32Z</time>
      </trkpt>
      <trkpt lat="44.60835" lon="2.47452">
        <ele>558</ele>
        <time>2021-08-29T08:21:34Z</time>
      </trkpt>
      <trkpt lat="44.60833" lon="2.47445">
        <ele>558</ele>
        <time>2021-08-29T08:21:36Z</time>
      </trkpt>
      <trkpt lat="44.60831" lon="2.47439">
        <ele>559</ele>
        <time>2021-08-29T08:21:38Z</time>
      </trkpt>
      <trkpt lat="44.60828" lon="2.47434">
        <ele>560</ele>
        <time>2021-08-29T08:21:40Z</time>
      </trkpt>
      <trkpt lat="44.60788" lon="2.47386">
        <ele>563</ele>
        <time>2021-08-29T08:22:00Z</time>
      </trkpt>
      <trkpt lat="44.60758" lon="2.47338">
        <ele>565</ele>
        <time>2021-08-29T08:22:18Z</time>
      </trkpt>
      <trkpt lat="44.60741" lon="2.47316">
        <ele>565</ele>
        <time>2021-08-29T08:22:29Z</time>
      </trkpt>
      <trkpt lat="44.60733" lon="2.47304">
        <ele>565</ele>
        <time>2021-08-29T08:22:34Z</time>
      </trkpt>
      <trkpt lat="44.60731" lon="2.47299">
        <ele>565</ele>
        <time>2021-08-29T08:22:36Z</time>
      </trkpt>
      <trkpt lat="44.60728" lon="2.47294">
        <ele>565</ele>
        <time>2021-08-29T08:22:38Z</time>
      </trkpt>
      <trkpt lat="44.60693" lon="2.47258">
        <ele>563</ele>
        <time>2021-08-29T08:22:58Z</time>
      </trkpt>
      <trkpt lat="44.60685" lon="2.47247">
        <ele>563</ele>
        <time>2021-08-29T08:23:02Z</time>
      </trkpt>
      <trkpt lat="44.60681" lon="2.47233">
        <ele>563</ele>
        <time>2021-08-29T08:23:06Z</time>
      </trkpt>
      <trkpt lat="44.6068" lon="2.47226">
        <ele>564</ele>
        <time>2021-08-29T08:23:08Z</time>
      </trkpt>
      <trkpt lat="44.60679" lon="2.47219">
        <ele>565</ele>
        <time>2021-08-29T08:23:10Z</time>
      </trkpt>
      <trkpt lat="44.60683" lon="2.47204">
        <ele>566</ele>
        <time>2021-08-29T08:23:15Z</time>
      </trkpt>
      <trkpt lat="44.60685" lon="2.47179">
        <ele>568</ele>
        <time>2021-08-29T08:23:24Z</time>
      </trkpt>
      <trkpt lat="44.60681" lon="2.4716">
        <ele>569</ele>
        <time>2021-08-29T08:23:30Z</time>
      </trkpt>
      <trkpt lat="44.60673" lon="2.47121">
        <ele>566</ele>
        <time>2021-08-29T08:23:43Z</time>
      </trkpt>
      <trkpt lat="44.60669" lon="2.47107">
        <ele>565</ele>
        <time>2021-08-29T08:23:49Z</time>
      </trkpt>
      <trkpt lat="44.60659" lon="2.47071">
        <ele>563</ele>
        <time>2021-08-29T08:24:02Z</time>
      </trkpt>
      <trkpt lat="44.60657" lon="2.47062">
        <ele>564</ele>
        <time>2021-08-29T08:24:04Z</time>
      </trkpt>
      <trkpt lat="44.60655" lon="2.47054">
        <ele>567</ele>
        <time>2021-08-29T08:24:06Z</time>
      </trkpt>
      <trkpt lat="44.60654" lon="2.47046">
        <ele>568</ele>
        <time>2021-08-29T08:24:08Z</time>
      </trkpt>
      <trkpt lat="44.60656" lon="2.47029">
        <ele>571</ele>
        <time>2021-08-29T08:24:14Z</time>
      </trkpt>
      <trkpt lat="44.60655" lon="2.4702">
        <ele>572</ele>
        <time>2021-08-29T08:24:17Z</time>
      </trkpt>
      <trkpt lat="44.60651" lon="2.46998">
        <ele>573</ele>
        <time>2021-08-29T08:24:25Z</time>
      </trkpt>
      <trkpt lat="44.60632" lon="2.46971">
        <ele>576</ele>
        <time>2021-08-29T08:24:36Z</time>
      </trkpt>
      <trkpt lat="44.60629" lon="2.46966">
        <ele>576</ele>
        <time>2021-08-29T08:24:38Z</time>
      </trkpt>
      <trkpt lat="44.60626" lon="2.46952">
        <ele>579</ele>
        <time>2021-08-29T08:24:43Z</time>
      </trkpt>
      <trkpt lat="44.60625" lon="2.46917">
        <ele>582</ele>
        <time>2021-08-29T08:24:55Z</time>
      </trkpt>
      <trkpt lat="44.60622" lon="2.46901">
        <ele>583</ele>
        <time>2021-08-29T08:25:01Z</time>
      </trkpt>
      <trkpt lat="44.60617" lon="2.46886">
        <ele>585</ele>
        <time>2021-08-29T08:25:07Z</time>
      </trkpt>
      <trkpt lat="44.60613" lon="2.4687">
        <ele>587</ele>
        <time>2021-08-29T08:25:12Z</time>
      </trkpt>
      <trkpt lat="44.60612" lon="2.46863">
        <ele>589</ele>
        <time>2021-08-29T08:25:14Z</time>
      </trkpt>
      <trkpt lat="44.60613" lon="2.46849">
        <ele>593</ele>
        <time>2021-08-29T08:25:19Z</time>
      </trkpt>
      <trkpt lat="44.60629" lon="2.46816">
        <ele>599</ele>
        <time>2021-08-29T08:25:34Z</time>
      </trkpt>
      <trkpt lat="44.60638" lon="2.46806">
        <ele>601</ele>
        <time>2021-08-29T08:25:40Z</time>
      </trkpt>
      <trkpt lat="44.60663" lon="2.46791">
        <ele>603</ele>
        <time>2021-08-29T08:25:53Z</time>
      </trkpt>
      <trkpt lat="44.60686" lon="2.46767">
        <ele>605</ele>
        <time>2021-08-29T08:26:06Z</time>
      </trkpt>
      <trkpt lat="44.60695" lon="2.46751">
        <ele>607</ele>
        <time>2021-08-29T08:26:12Z</time>
      </trkpt>
      <trkpt lat="44.60708" lon="2.46691">
        <ele>610</ele>
        <time>2021-08-29T08:26:31Z</time>
      </trkpt>
      <trkpt lat="44.60714" lon="2.4668">
        <ele>611</ele>
        <time>2021-08-29T08:26:35Z</time>
      </trkpt>
      <trkpt lat="44.60731" lon="2.46653">
        <ele>613</ele>
        <time>2021-08-29T08:26:45Z</time>
      </trkpt>
      <trkpt lat="44.60747" lon="2.46628">
        <ele>613</ele>
        <time>2021-08-29T08:26:53Z</time>
      </trkpt>
      <trkpt lat="44.6076" lon="2.46612">
        <ele>613</ele>
        <time>2021-08-29T08:26:59Z</time>
      </trkpt>
      <trkpt lat="44.60773" lon="2.46591">
        <ele>615</ele>
        <time>2021-08-29T08:27:05Z</time>
      </trkpt>
      <trkpt lat="44.6078" lon="2.46573">
        <ele>615</ele>
        <time>2021-08-29T08:27:09Z</time>
      </trkpt>
      <trkpt lat="44.60782" lon="2.46554">
        <ele>614</ele>
        <time>2021-08-29T08:27:13Z</time>
      </trkpt>
      <trkpt lat="44.60779" lon="2.46534">
        <ele>613</ele>
        <time>2021-08-29T08:27:17Z</time>
      </trkpt>
      <trkpt lat="44.60748" lon="2.46428">
        <ele>614</ele>
        <time>2021-08-29T08:27:39Z</time>
      </trkpt>
      <trkpt lat="44.60718" lon="2.46276">
        <ele>610</ele>
        <time>2021-08-29T08:28:09Z</time>
      </trkpt>
      <trkpt lat="44.60708" lon="2.46203">
        <ele>608</ele>
        <time>2021-08-29T08:28:23Z</time>
      </trkpt>
      <trkpt lat="44.60706" lon="2.46151">
        <ele>611</ele>
        <time>2021-08-29T08:28:33Z</time>
      </trkpt>
      <trkpt lat="44.6071" lon="2.46128">
        <ele>613</ele>
        <time>2021-08-29T08:28:39Z</time>
      </trkpt>
      <trkpt lat="44.60741" lon="2.46047">
        <ele>615</ele>
        <time>2021-08-29T08:28:55Z</time>
      </trkpt>
      <trkpt lat="44.60762" lon="2.46022">
        <ele>616</ele>
        <time>2021-08-29T08:29:00Z</time>
      </trkpt>
      <trkpt lat="44.60846" lon="2.4598">
        <ele>614</ele>
        <time>2021-08-29T08:29:13Z</time>
      </trkpt>
      <trkpt lat="44.60863" lon="2.45956">
        <ele>613</ele>
        <time>2021-08-29T08:29:16Z</time>
      </trkpt>
      <trkpt lat="44.60872" lon="2.45937">
        <ele>613</ele>
        <time>2021-08-29T08:29:18Z</time>
      </trkpt>
      <trkpt lat="44.60919" lon="2.45701">
        <ele>605</ele>
        <time>2021-08-29T08:29:37Z</time>
      </trkpt>
      <trkpt lat="44.6093" lon="2.45677">
        <ele>605</ele>
        <time>2021-08-29T08:29:39Z</time>
      </trkpt>
      <trkpt lat="44.60946" lon="2.4566">
        <ele>604</ele>
        <time>2021-08-29T08:29:41Z</time>
      </trkpt>
      <trkpt lat="44.60954" lon="2.45654">
        <ele>604</ele>
        <time>2021-08-29T08:29:42Z</time>
      </trkpt>
      <trkpt lat="44.60973" lon="2.45651">
        <ele>603</ele>
        <time>2021-08-29T08:29:44Z</time>
      </trkpt>
      <trkpt lat="44.6099" lon="2.45658">
        <ele>602</ele>
        <time>2021-08-29T08:29:46Z</time>
      </trkpt>
      <trkpt lat="44.6101" lon="2.45679">
        <ele>599</ele>
        <time>2021-08-29T08:29:49Z</time>
      </trkpt>
      <trkpt lat="44.61017" lon="2.45683">
        <ele>598</ele>
        <time>2021-08-29T08:29:50Z</time>
      </trkpt>
      <trkpt lat="44.61024" lon="2.45685">
        <ele>598</ele>
        <time>2021-08-29T08:29:51Z</time>
      </trkpt>
      <trkpt lat="44.61031" lon="2.45684">
        <ele>597</ele>
        <time>2021-08-29T08:29:52Z</time>
      </trkpt>
      <trkpt lat="44.61038" lon="2.45678">
        <ele>598</ele>
        <time>2021-08-29T08:29:53Z</time>
      </trkpt>
      <trkpt lat="44.61048" lon="2.45658">
        <ele>599</ele>
        <time>2021-08-29T08:29:55Z</time>
      </trkpt>
      <trkpt lat="44.6107" lon="2.4556">
        <ele>596</ele>
        <time>2021-08-29T08:30:04Z</time>
      </trkpt>
      <trkpt lat="44.6107" lon="2.45536">
        <ele>595</ele>
        <time>2021-08-29T08:30:06Z</time>
      </trkpt>
      <trkpt lat="44.61068" lon="2.45525">
        <ele>594</ele>
        <time>2021-08-29T08:30:07Z</time>
      </trkpt>
      <trkpt lat="44.61058" lon="2.45504">
        <ele>594</ele>
        <time>2021-08-29T08:30:09Z</time>
      </trkpt>
      <trkpt lat="44.61005" lon="2.45454">
        <ele>598</ele>
        <time>2021-08-29T08:30:18Z</time>
      </trkpt>
      <trkpt lat="44.60999" lon="2.45441">
        <ele>597</ele>
        <time>2021-08-29T08:30:20Z</time>
      </trkpt>
      <trkpt lat="44.60997" lon="2.45427">
        <ele>597</ele>
        <time>2021-08-29T08:30:22Z</time>
      </trkpt>
      <trkpt lat="44.61008" lon="2.45297">
        <ele>599</ele>
        <time>2021-08-29T08:30:43Z</time>
      </trkpt>
      <trkpt lat="44.61008" lon="2.45291">
        <ele>599</ele>
        <time>2021-08-29T08:30:44Z</time>
      </trkpt>
      <trkpt lat="44.61001" lon="2.4527">
        <ele>599</ele>
        <time>2021-08-29T08:30:48Z</time>
      </trkpt>
      <trkpt lat="44.60967" lon="2.4522">
        <ele>598</ele>
        <time>2021-08-29T08:31:00Z</time>
      </trkpt>
      <trkpt lat="44.60962" lon="2.45197">
        <ele>599</ele>
        <time>2021-08-29T08:31:04Z</time>
      </trkpt>
      <trkpt lat="44.60963" lon="2.45172">
        <ele>600</ele>
        <time>2021-08-29T08:31:08Z</time>
      </trkpt>
      <trkpt lat="44.6098" lon="2.45098">
        <ele>601</ele>
        <time>2021-08-29T08:31:21Z</time>
      </trkpt>
      <trkpt lat="44.60981" lon="2.45044">
        <ele>602</ele>
        <time>2021-08-29T08:31:30Z</time>
      </trkpt>
      <trkpt lat="44.60976" lon="2.4502">
        <ele>602</ele>
        <time>2021-08-29T08:31:34Z</time>
      </trkpt>
      <trkpt lat="44.6097" lon="2.45004">
        <ele>602</ele>
        <time>2021-08-29T08:31:37Z</time>
      </trkpt>
      <trkpt lat="44.60955" lon="2.44982">
        <ele>602</ele>
        <time>2021-08-29T08:31:42Z</time>
      </trkpt>
      <trkpt lat="44.60936" lon="2.44965">
        <ele>602</ele>
        <time>2021-08-29T08:31:47Z</time>
      </trkpt>
      <trkpt lat="44.60923" lon="2.44949">
        <ele>602</ele>
        <time>2021-08-29T08:31:51Z</time>
      </trkpt>
      <trkpt lat="44.60896" lon="2.44879">
        <ele>599</ele>
        <time>2021-08-29T08:32:04Z</time>
      </trkpt>
      <trkpt lat="44.60873" lon="2.44849">
        <ele>600</ele>
        <time>2021-08-29T08:32:11Z</time>
      </trkpt>
      <trkpt lat="44.60868" lon="2.44839">
        <ele>600</ele>
        <time>2021-08-29T08:32:13Z</time>
      </trkpt>
      <trkpt lat="44.60866" lon="2.44828">
        <ele>601</ele>
        <time>2021-08-29T08:32:15Z</time>
      </trkpt>
      <trkpt lat="44.60869" lon="2.44805">
        <ele>601</ele>
        <time>2021-08-29T08:32:19Z</time>
      </trkpt>
      <trkpt lat="44.6089" lon="2.44739">
        <ele>602</ele>
        <time>2021-08-29T08:32:29Z</time>
      </trkpt>
      <trkpt lat="44.60933" lon="2.44652">
        <ele>603</ele>
        <time>2021-08-29T08:32:42Z</time>
      </trkpt>
      <trkpt lat="44.60938" lon="2.44626">
        <ele>602</ele>
        <time>2021-08-29T08:32:45Z</time>
      </trkpt>
      <trkpt lat="44.60943" lon="2.4459">
        <ele>601</ele>
        <time>2021-08-29T08:32:49Z</time>
      </trkpt>
      <trkpt lat="44.60966" lon="2.44505">
        <ele>599</ele>
        <time>2021-08-29T08:32:58Z</time>
      </trkpt>
      <trkpt lat="44.60967" lon="2.44484">
        <ele>599</ele>
        <time>2021-08-29T08:33:00Z</time>
      </trkpt>
      <trkpt lat="44.60965" lon="2.44474">
        <ele>598</ele>
        <time>2021-08-29T08:33:01Z</time>
      </trkpt>
      <trkpt lat="44.60962" lon="2.44465">
        <ele>598</ele>
        <time>2021-08-29T08:33:02Z</time>
      </trkpt>
      <trkpt lat="44.6095" lon="2.44451">
        <ele>598</ele>
        <time>2021-08-29T08:33:04Z</time>
      </trkpt>
      <trkpt lat="44.60924" lon="2.44429">
        <ele>597</ele>
        <time>2021-08-29T08:33:08Z</time>
      </trkpt>
      <trkpt lat="44.60918" lon="2.44421">
        <ele>596</ele>
        <time>2021-08-29T08:33:09Z</time>
      </trkpt>
      <trkpt lat="44.60915" lon="2.44412">
        <ele>596</ele>
        <time>2021-08-29T08:33:10Z</time>
      </trkpt>
      <trkpt lat="44.60913" lon="2.44391">
        <ele>596</ele>
        <time>2021-08-29T08:33:12Z</time>
      </trkpt>
      <trkpt lat="44.60929" lon="2.44309">
        <ele>593</ele>
        <time>2021-08-29T08:33:20Z</time>
      </trkpt>
      <trkpt lat="44.60966" lon="2.4421">
        <ele>591</ele>
        <time>2021-08-29T08:33:30Z</time>
      </trkpt>
      <trkpt lat="44.60969" lon="2.44189">
        <ele>591</ele>
        <time>2021-08-29T08:33:32Z</time>
      </trkpt>
      <trkpt lat="44.60967" lon="2.44168">
        <ele>589</ele>
        <time>2021-08-29T08:33:34Z</time>
      </trkpt>
      <trkpt lat="44.60956" lon="2.44139">
        <ele>588</ele>
        <time>2021-08-29T08:33:37Z</time>
      </trkpt>
      <trkpt lat="44.60941" lon="2.44112">
        <ele>587</ele>
        <time>2021-08-29T08:33:40Z</time>
      </trkpt>
      <trkpt lat="44.60938" lon="2.44102">
        <ele>586</ele>
        <time>2021-08-29T08:33:41Z</time>
      </trkpt>
      <trkpt lat="44.60936" lon="2.44091">
        <ele>586</ele>
        <time>2021-08-29T08:33:42Z</time>
      </trkpt>
      <trkpt lat="44.60937" lon="2.44067">
        <ele>586</ele>
        <time>2021-08-29T08:33:44Z</time>
      </trkpt>
      <trkpt lat="44.60964" lon="2.43975">
        <ele>583</ele>
        <time>2021-08-29T08:33:53Z</time>
      </trkpt>
      <trkpt lat="44.60964" lon="2.43945">
        <ele>582</ele>
        <time>2021-08-29T08:33:56Z</time>
      </trkpt>
      <trkpt lat="44.60952" lon="2.43886">
        <ele>581</ele>
        <time>2021-08-29T08:34:02Z</time>
      </trkpt>
      <trkpt lat="44.60952" lon="2.43875">
        <ele>581</ele>
        <time>2021-08-29T08:34:03Z</time>
      </trkpt>
      <trkpt lat="44.60954" lon="2.43863">
        <ele>581</ele>
        <time>2021-08-29T08:34:04Z</time>
      </trkpt>
      <trkpt lat="44.60963" lon="2.43844">
        <ele>581</ele>
        <time>2021-08-29T08:34:06Z</time>
      </trkpt>
      <trkpt lat="44.60979" lon="2.43824">
        <ele>580</ele>
        <time>2021-08-29T08:34:09Z</time>
      </trkpt>
      <trkpt lat="44.60982" lon="2.43816">
        <ele>580</ele>
        <time>2021-08-29T08:34:10Z</time>
      </trkpt>
      <trkpt lat="44.60987" lon="2.43798">
        <ele>580</ele>
        <time>2021-08-29T08:34:12Z</time>
      </trkpt>
      <trkpt lat="44.60988" lon="2.43755">
        <ele>580</ele>
        <time>2021-08-29T08:34:16Z</time>
      </trkpt>
      <trkpt lat="44.60992" lon="2.43734">
        <ele>580</ele>
        <time>2021-08-29T08:34:18Z</time>
      </trkpt>
      <trkpt lat="44.61001" lon="2.43715">
        <ele>580</ele>
        <time>2021-08-29T08:34:20Z</time>
      </trkpt>
      <trkpt lat="44.61014" lon="2.43704">
        <ele>580</ele>
        <time>2021-08-29T08:34:22Z</time>
      </trkpt>
      <trkpt lat="44.61071" lon="2.43675">
        <ele>579</ele>
        <time>2021-08-29T08:34:31Z</time>
      </trkpt>
      <trkpt lat="44.61085" lon="2.4366">
        <ele>578</ele>
        <time>2021-08-29T08:34:34Z</time>
      </trkpt>
      <trkpt lat="44.61105" lon="2.43614">
        <ele>577</ele>
        <time>2021-08-29T08:34:40Z</time>
      </trkpt>
      <trkpt lat="44.61109" lon="2.43596">
        <ele>577</ele>
        <time>2021-08-29T08:34:42Z</time>
      </trkpt>
      <trkpt lat="44.61104" lon="2.4348">
        <ele>578</ele>
        <time>2021-08-29T08:34:54Z</time>
      </trkpt>
      <trkpt lat="44.61097" lon="2.4343">
        <ele>577</ele>
        <time>2021-08-29T08:34:59Z</time>
      </trkpt>
      <trkpt lat="44.61064" lon="2.43341">
        <ele>576</ele>
        <time>2021-08-29T08:35:09Z</time>
      </trkpt>
      <trkpt lat="44.61062" lon="2.4331">
        <ele>576</ele>
        <time>2021-08-29T08:35:13Z</time>
      </trkpt>
      <trkpt lat="44.61067" lon="2.43248">
        <ele>575</ele>
        <time>2021-08-29T08:35:21Z</time>
      </trkpt>
      <trkpt lat="44.61076" lon="2.43211">
        <ele>574</ele>
        <time>2021-08-29T08:35:26Z</time>
      </trkpt>
      <trkpt lat="44.61089" lon="2.43178">
        <ele>574</ele>
        <time>2021-08-29T08:35:31Z</time>
      </trkpt>
      <trkpt lat="44.61168" lon="2.43074">
        <ele>569</ele>
        <time>2021-08-29T08:35:58Z</time>
      </trkpt>
      <trkpt lat="44.61175" lon="2.43054">
        <ele>569</ele>
        <time>2021-08-29T08:36:02Z</time>
      </trkpt>
      <trkpt lat="44.61177" lon="2.43045">
        <ele>569</ele>
        <time>2021-08-29T08:36:04Z</time>
      </trkpt>
      <trkpt lat="44.61175" lon="2.43026">
        <ele>568</ele>
        <time>2021-08-29T08:36:08Z</time>
      </trkpt>
      <trkpt lat="44.61171" lon="2.43007">
        <ele>567</ele>
        <time>2021-08-29T08:36:12Z</time>
      </trkpt>
      <trkpt lat="44.61167" lon="2.42997">
        <ele>567</ele>
        <time>2021-08-29T08:36:14Z</time>
      </trkpt>
      <trkpt lat="44.61149" lon="2.42977">
        <ele>565</ele>
        <time>2021-08-29T08:36:19Z</time>
      </trkpt>
      <trkpt lat="44.61008" lon="2.42899">
        <ele>557</ele>
        <time>2021-08-29T08:36:49Z</time>
      </trkpt>
      <trkpt lat="44.61003" lon="2.42894">
        <ele>556</ele>
        <time>2021-08-29T08:36:50Z</time>
      </trkpt>
      <trkpt lat="44.60997" lon="2.42882">
        <ele>555</ele>
        <time>2021-08-29T08:36:52Z</time>
      </trkpt>
      <trkpt lat="44.60981" lon="2.42821">
        <ele>552</ele>
        <time>2021-08-29T08:37:02Z</time>
      </trkpt>
      <trkpt lat="44.60971" lon="2.42798">
        <ele>550</ele>
        <time>2021-08-29T08:37:08Z</time>
      </trkpt>
      <trkpt lat="44.60967" lon="2.42794">
        <ele>553</ele>
        <time>2021-08-29T08:37:11Z</time>
      </trkpt>
      <trkpt lat="44.60962" lon="2.42791">
        <ele>555</ele>
        <time>2021-08-29T08:37:15Z</time>
      </trkpt>
      <trkpt lat="44.60957" lon="2.42789">
        <ele>558</ele>
        <time>2021-08-29T08:38:10Z</time>
      </trkpt>
      <trkpt lat="44.60953" lon="2.42787">
        <ele>559</ele>
        <time>2021-08-29T08:38:12Z</time>
      </trkpt>
      <trkpt lat="44.60945" lon="2.42787">
        <ele>560</ele>
        <time>2021-08-29T08:38:14Z</time>
      </trkpt>
      <trkpt lat="44.60934" lon="2.4279">
        <ele>560</ele>
        <time>2021-08-29T08:38:20Z</time>
      </trkpt>
      <trkpt lat="44.60929" lon="2.42792">
        <ele>561</ele>
        <time>2021-08-29T08:38:23Z</time>
      </trkpt>
      <trkpt lat="44.60889" lon="2.42831">
        <ele>557</ele>
        <time>2021-08-29T08:38:35Z</time>
      </trkpt>
      <trkpt lat="44.60851" lon="2.42887">
        <ele>550</ele>
        <time>2021-08-29T08:38:44Z</time>
      </trkpt>
      <trkpt lat="44.60841" lon="2.42896">
        <ele>548</ele>
        <time>2021-08-29T08:38:46Z</time>
      </trkpt>
      <trkpt lat="44.60827" lon="2.42899">
        <ele>547</ele>
        <time>2021-08-29T08:38:48Z</time>
      </trkpt>
      <trkpt lat="44.60789" lon="2.42899">
        <ele>545</ele>
        <time>2021-08-29T08:38:53Z</time>
      </trkpt>
      <trkpt lat="44.60755" lon="2.42905">
        <ele>542</ele>
        <time>2021-08-29T08:38:58Z</time>
      </trkpt>
      <trkpt lat="44.60694" lon="2.42884">
        <ele>533</ele>
        <time>2021-08-29T08:39:09Z</time>
      </trkpt>
      <trkpt lat="44.60684" lon="2.42882">
        <ele>532</ele>
        <time>2021-08-29T08:39:11Z</time>
      </trkpt>
      <trkpt lat="44.60678" lon="2.42883">
        <ele>532</ele>
        <time>2021-08-29T08:39:12Z</time>
      </trkpt>
      <trkpt lat="44.60671" lon="2.42886">
        <ele>531</ele>
        <time>2021-08-29T08:39:13Z</time>
      </trkpt>
      <trkpt lat="44.60657" lon="2.42897">
        <ele>533</ele>
        <time>2021-08-29T08:39:15Z</time>
      </trkpt>
      <trkpt lat="44.60651" lon="2.42904">
        <ele>534</ele>
        <time>2021-08-29T08:39:16Z</time>
      </trkpt>
      <trkpt lat="44.60648" lon="2.42912">
        <ele>535</ele>
        <time>2021-08-29T08:39:17Z</time>
      </trkpt>
      <trkpt lat="44.60645" lon="2.42992">
        <ele>535</ele>
        <time>2021-08-29T08:39:26Z</time>
      </trkpt>
      <trkpt lat="44.60642" lon="2.4301">
        <ele>534</ele>
        <time>2021-08-29T08:39:28Z</time>
      </trkpt>
      <trkpt lat="44.60636" lon="2.43026">
        <ele>533</ele>
        <time>2021-08-29T08:39:30Z</time>
      </trkpt>
      <trkpt lat="44.60622" lon="2.43048">
        <ele>532</ele>
        <time>2021-08-29T08:39:33Z</time>
      </trkpt>
      <trkpt lat="44.60607" lon="2.43061">
        <ele>532</ele>
        <time>2021-08-29T08:39:35Z</time>
      </trkpt>
      <trkpt lat="44.60591" lon="2.43066">
        <ele>532</ele>
        <time>2021-08-29T08:39:37Z</time>
      </trkpt>
      <trkpt lat="44.60567" lon="2.43061">
        <ele>531</ele>
        <time>2021-08-29T08:39:40Z</time>
      </trkpt>
      <trkpt lat="44.60552" lon="2.43053">
        <ele>531</ele>
        <time>2021-08-29T08:39:42Z</time>
      </trkpt>
      <trkpt lat="44.60542" lon="2.43038">
        <ele>530</ele>
        <time>2021-08-29T08:39:44Z</time>
      </trkpt>
      <trkpt lat="44.60526" lon="2.42989">
        <ele>528</ele>
        <time>2021-08-29T08:39:49Z</time>
      </trkpt>
      <trkpt lat="44.60522" lon="2.42983">
        <ele>528</ele>
        <time>2021-08-29T08:39:50Z</time>
      </trkpt>
      <trkpt lat="44.60459" lon="2.42945">
        <ele>526</ele>
        <time>2021-08-29T08:39:59Z</time>
      </trkpt>
      <trkpt lat="44.60441" lon="2.42943">
        <ele>526</ele>
        <time>2021-08-29T08:40:01Z</time>
      </trkpt>
      <trkpt lat="44.60413" lon="2.42944">
        <ele>523</ele>
        <time>2021-08-29T08:40:05Z</time>
      </trkpt>
      <trkpt lat="44.60408" lon="2.42946">
        <ele>521</ele>
        <time>2021-08-29T08:40:06Z</time>
      </trkpt>
      <trkpt lat="44.60397" lon="2.42959">
        <ele>521</ele>
        <time>2021-08-29T08:40:08Z</time>
      </trkpt>
      <trkpt lat="44.6039" lon="2.42983">
        <ele>519</ele>
        <time>2021-08-29T08:40:11Z</time>
      </trkpt>
      <trkpt lat="44.60388" lon="2.42991">
        <ele>517</ele>
        <time>2021-08-29T08:40:12Z</time>
      </trkpt>
      <trkpt lat="44.60384" lon="2.42998">
        <ele>516</ele>
        <time>2021-08-29T08:40:13Z</time>
      </trkpt>
      <trkpt lat="44.60378" lon="2.43002">
        <ele>515</ele>
        <time>2021-08-29T08:40:14Z</time>
      </trkpt>
      <trkpt lat="44.60359" lon="2.43004">
        <ele>516</ele>
        <time>2021-08-29T08:40:17Z</time>
      </trkpt>
      <trkpt lat="44.60332" lon="2.42994">
        <ele>515</ele>
        <time>2021-08-29T08:40:21Z</time>
      </trkpt>
      <trkpt lat="44.60325" lon="2.42993">
        <ele>515</ele>
        <time>2021-08-29T08:40:22Z</time>
      </trkpt>
      <trkpt lat="44.60313" lon="2.42996">
        <ele>514</ele>
        <time>2021-08-29T08:40:24Z</time>
      </trkpt>
      <trkpt lat="44.60297" lon="2.4301">
        <ele>512</ele>
        <time>2021-08-29T08:40:27Z</time>
      </trkpt>
      <trkpt lat="44.60286" lon="2.43036">
        <ele>511</ele>
        <time>2021-08-29T08:40:30Z</time>
      </trkpt>
      <trkpt lat="44.60279" lon="2.43075">
        <ele>508</ele>
        <time>2021-08-29T08:40:34Z</time>
      </trkpt>
      <trkpt lat="44.60257" lon="2.43105">
        <ele>504</ele>
        <time>2021-08-29T08:40:38Z</time>
      </trkpt>
      <trkpt lat="44.6012" lon="2.43241">
        <ele>501</ele>
        <time>2021-08-29T08:40:59Z</time>
      </trkpt>
      <trkpt lat="44.60114" lon="2.43244">
        <ele>501</ele>
        <time>2021-08-29T08:41:00Z</time>
      </trkpt>
      <trkpt lat="44.60109" lon="2.43244">
        <ele>501</ele>
        <time>2021-08-29T08:41:01Z</time>
      </trkpt>
      <trkpt lat="44.60103" lon="2.43242">
        <ele>501</ele>
        <time>2021-08-29T08:41:02Z</time>
      </trkpt>
      <trkpt lat="44.60098" lon="2.43236">
        <ele>501</ele>
        <time>2021-08-29T08:41:03Z</time>
      </trkpt>
      <trkpt lat="44.60095" lon="2.43228">
        <ele>502</ele>
        <time>2021-08-29T08:41:04Z</time>
      </trkpt>
      <trkpt lat="44.60094" lon="2.4322">
        <ele>502</ele>
        <time>2021-08-29T08:41:05Z</time>
      </trkpt>
      <trkpt lat="44.60112" lon="2.43171">
        <ele>502</ele>
        <time>2021-08-29T08:41:11Z</time>
      </trkpt>
      <trkpt lat="44.60137" lon="2.4311">
        <ele>499</ele>
        <time>2021-08-29T08:41:18Z</time>
      </trkpt>
      <trkpt lat="44.60142" lon="2.4308">
        <ele>497</ele>
        <time>2021-08-29T08:41:21Z</time>
      </trkpt>
      <trkpt lat="44.6012" lon="2.42818">
        <ele>473</ele>
        <time>2021-08-29T08:41:47Z</time>
      </trkpt>
      <trkpt lat="44.60119" lon="2.42807">
        <ele>471</ele>
        <time>2021-08-29T08:41:49Z</time>
      </trkpt>
      <trkpt lat="44.60116" lon="2.428">
        <ele>470</ele>
        <time>2021-08-29T08:41:50Z</time>
      </trkpt>
      <trkpt lat="44.60107" lon="2.42789">
        <ele>468</ele>
        <time>2021-08-29T08:41:52Z</time>
      </trkpt>
      <trkpt lat="44.60096" lon="2.42786">
        <ele>468</ele>
        <time>2021-08-29T08:41:54Z</time>
      </trkpt>
      <trkpt lat="44.6006" lon="2.42819">
        <ele>465</ele>
        <time>2021-08-29T08:42:01Z</time>
      </trkpt>
      <trkpt lat="44.6004" lon="2.42827">
        <ele>463</ele>
        <time>2021-08-29T08:42:04Z</time>
      </trkpt>
      <trkpt lat="44.60018" lon="2.42828">
        <ele>463</ele>
        <time>2021-08-29T08:42:07Z</time>
      </trkpt>
      <trkpt lat="44.59958" lon="2.42807">
        <ele>460</ele>
        <time>2021-08-29T08:42:16Z</time>
      </trkpt>
      <trkpt lat="44.59953" lon="2.42804">
        <ele>460</ele>
        <time>2021-08-29T08:42:17Z</time>
      </trkpt>
      <trkpt lat="44.59946" lon="2.42794">
        <ele>459</ele>
        <time>2021-08-29T08:42:19Z</time>
      </trkpt>
      <trkpt lat="44.59944" lon="2.42787">
        <ele>459</ele>
        <time>2021-08-29T08:42:20Z</time>
      </trkpt>
      <trkpt lat="44.59943" lon="2.42773">
        <ele>459</ele>
        <time>2021-08-29T08:42:22Z</time>
      </trkpt>
      <trkpt lat="44.59945" lon="2.42757">
        <ele>460</ele>
        <time>2021-08-29T08:42:24Z</time>
      </trkpt>
      <trkpt lat="44.60007" lon="2.4257">
        <ele>457</ele>
        <time>2021-08-29T08:42:47Z</time>
      </trkpt>
      <trkpt lat="44.60008" lon="2.42562">
        <ele>457</ele>
        <time>2021-08-29T08:42:48Z</time>
      </trkpt>
      <trkpt lat="44.60008" lon="2.42554">
        <ele>457</ele>
        <time>2021-08-29T08:42:49Z</time>
      </trkpt>
      <trkpt lat="44.59996" lon="2.42526">
        <ele>454</ele>
        <time>2021-08-29T08:42:53Z</time>
      </trkpt>
      <trkpt lat="44.59985" lon="2.42512">
        <ele>454</ele>
        <time>2021-08-29T08:42:55Z</time>
      </trkpt>
      <trkpt lat="44.59874" lon="2.42457">
        <ele>452</ele>
        <time>2021-08-29T08:43:12Z</time>
      </trkpt>
      <trkpt lat="44.5987" lon="2.42452">
        <ele>452</ele>
        <time>2021-08-29T08:43:13Z</time>
      </trkpt>
      <trkpt lat="44.59866" lon="2.42438">
        <ele>451</ele>
        <time>2021-08-29T08:43:15Z</time>
      </trkpt>
      <trkpt lat="44.59865" lon="2.4243">
        <ele>450</ele>
        <time>2021-08-29T08:43:16Z</time>
      </trkpt>
      <trkpt lat="44.59883" lon="2.4231">
        <ele>449</ele>
        <time>2021-08-29T08:43:29Z</time>
      </trkpt>
      <trkpt lat="44.59896" lon="2.42243">
        <ele>446</ele>
        <time>2021-08-29T08:43:36Z</time>
      </trkpt>
      <trkpt lat="44.59904" lon="2.42136">
        <ele>442</ele>
        <time>2021-08-29T08:43:47Z</time>
      </trkpt>
      <trkpt lat="44.59884" lon="2.42029">
        <ele>435</ele>
        <time>2021-08-29T08:43:58Z</time>
      </trkpt>
      <trkpt lat="44.59881" lon="2.42021">
        <ele>435</ele>
        <time>2021-08-29T08:43:59Z</time>
      </trkpt>
      <trkpt lat="44.59877" lon="2.42013">
        <ele>434</ele>
        <time>2021-08-29T08:44:00Z</time>
      </trkpt>
      <trkpt lat="44.59848" lon="2.41984">
        <ele>431</ele>
        <time>2021-08-29T08:44:05Z</time>
      </trkpt>
      <trkpt lat="44.59772" lon="2.41913">
        <ele>427</ele>
        <time>2021-08-29T08:44:18Z</time>
      </trkpt>
      <trkpt lat="44.59768" lon="2.41907">
        <ele>427</ele>
        <time>2021-08-29T08:44:19Z</time>
      </trkpt>
      <trkpt lat="44.5975" lon="2.41881">
        <ele>422</ele>
        <time>2021-08-29T08:44:24Z</time>
      </trkpt>
      <trkpt lat="44.5974" lon="2.41873">
        <ele>421</ele>
        <time>2021-08-29T08:44:28Z</time>
      </trkpt>
      <trkpt lat="44.59716" lon="2.41873">
        <ele>424</ele>
        <time>2021-08-29T08:44:38Z</time>
      </trkpt>
      <trkpt lat="44.59712" lon="2.41869">
        <ele>424</ele>
        <time>2021-08-29T08:44:40Z</time>
      </trkpt>
      <trkpt lat="44.59707" lon="2.41866">
        <ele>424</ele>
        <time>2021-08-29T08:44:42Z</time>
      </trkpt>
      <trkpt lat="44.59704" lon="2.41859">
        <ele>423</ele>
        <time>2021-08-29T08:44:45Z</time>
      </trkpt>
      <trkpt lat="44.597" lon="2.41855">
        <ele>423</ele>
        <time>2021-08-29T08:44:48Z</time>
      </trkpt>
      <trkpt lat="44.59696" lon="2.41856">
        <ele>422</ele>
        <time>2021-08-29T08:44:54Z</time>
      </trkpt>
      <trkpt lat="44.59696" lon="2.41849">
        <ele>423</ele>
        <time>2021-08-29T08:46:01Z</time>
      </trkpt>
      <trkpt lat="44.59696" lon="2.41843">
        <ele>423</ele>
        <time>2021-08-29T08:46:03Z</time>
      </trkpt>
      <trkpt lat="44.59707" lon="2.41808">
        <ele>422</ele>
        <time>2021-08-29T08:46:09Z</time>
      </trkpt>
      <trkpt lat="44.59773" lon="2.41638">
        <ele>412</ele>
        <time>2021-08-29T08:46:29Z</time>
      </trkpt>
      <trkpt lat="44.59778" lon="2.41596">
        <ele>409</ele>
        <time>2021-08-29T08:46:33Z</time>
      </trkpt>
      <trkpt lat="44.59776" lon="2.41553">
        <ele>407</ele>
        <time>2021-08-29T08:46:37Z</time>
      </trkpt>
      <trkpt lat="44.59766" lon="2.41472">
        <ele>401</ele>
        <time>2021-08-29T08:46:46Z</time>
      </trkpt>
      <trkpt lat="44.59767" lon="2.41462">
        <ele>400</ele>
        <time>2021-08-29T08:46:48Z</time>
      </trkpt>
      <trkpt lat="44.59776" lon="2.41447">
        <ele>399</ele>
        <time>2021-08-29T08:46:52Z</time>
      </trkpt>
      <trkpt lat="44.59815" lon="2.41427">
        <ele>395</ele>
        <time>2021-08-29T08:47:01Z</time>
      </trkpt>
      <trkpt lat="44.5982" lon="2.41425">
        <ele>395</ele>
        <time>2021-08-29T08:47:02Z</time>
      </trkpt>
      <trkpt lat="44.59871" lon="2.41391">
        <ele>391</ele>
        <time>2021-08-29T08:47:11Z</time>
      </trkpt>
      <trkpt lat="44.59938" lon="2.41384">
        <ele>390</ele>
        <time>2021-08-29T08:47:23Z</time>
      </trkpt>
      <trkpt lat="44.59973" lon="2.41404">
        <ele>384</ele>
        <time>2021-08-29T08:47:31Z</time>
      </trkpt>
      <trkpt lat="44.59989" lon="2.41408">
        <ele>384</ele>
        <time>2021-08-29T08:47:34Z</time>
      </trkpt>
      <trkpt lat="44.60021" lon="2.41405">
        <ele>384</ele>
        <time>2021-08-29T08:47:39Z</time>
      </trkpt>
      <trkpt lat="44.60025" lon="2.41406">
        <ele>383</ele>
        <time>2021-08-29T08:47:40Z</time>
      </trkpt>
      <trkpt lat="44.6003" lon="2.4141">
        <ele>383</ele>
        <time>2021-08-29T08:47:41Z</time>
      </trkpt>
      <trkpt lat="44.60034" lon="2.41414">
        <ele>383</ele>
        <time>2021-08-29T08:47:42Z</time>
      </trkpt>
      <trkpt lat="44.60037" lon="2.4142">
        <ele>383</ele>
        <time>2021-08-29T08:47:43Z</time>
      </trkpt>
      <trkpt lat="44.60045" lon="2.41459">
        <ele>381</ele>
        <time>2021-08-29T08:47:48Z</time>
      </trkpt>
      <trkpt lat="44.6005" lon="2.41469">
        <ele>380</ele>
        <time>2021-08-29T08:47:50Z</time>
      </trkpt>
      <trkpt lat="44.60058" lon="2.4147">
        <ele>381</ele>
        <time>2021-08-29T08:47:52Z</time>
      </trkpt>
      <trkpt lat="44.60067" lon="2.41459">
        <ele>384</ele>
        <time>2021-08-29T08:47:54Z</time>
      </trkpt>
      <trkpt lat="44.60079" lon="2.41356">
        <ele>381</ele>
        <time>2021-08-29T08:48:06Z</time>
      </trkpt>
      <trkpt lat="44.60076" lon="2.41345">
        <ele>380</ele>
        <time>2021-08-29T08:48:08Z</time>
      </trkpt>
      <trkpt lat="44.60068" lon="2.41336">
        <ele>379</ele>
        <time>2021-08-29T08:48:10Z</time>
      </trkpt>
      <trkpt lat="44.60026" lon="2.41332">
        <ele>377</ele>
        <time>2021-08-29T08:48:17Z</time>
      </trkpt>
      <trkpt lat="44.60009" lon="2.41322">
        <ele>375</ele>
        <time>2021-08-29T08:48:20Z</time>
      </trkpt>
      <trkpt lat="44.59983" lon="2.41255">
        <ele>371</ele>
        <time>2021-08-29T08:48:28Z</time>
      </trkpt>
      <trkpt lat="44.5997" lon="2.41234">
        <ele>370</ele>
        <time>2021-08-29T08:48:31Z</time>
      </trkpt>
      <trkpt lat="44.5994" lon="2.41202">
        <ele>367</ele>
        <time>2021-08-29T08:48:36Z</time>
      </trkpt>
      <trkpt lat="44.59886" lon="2.41086">
        <ele>362</ele>
        <time>2021-08-29T08:48:51Z</time>
      </trkpt>
      <trkpt lat="44.59878" lon="2.4107">
        <ele>361</ele>
        <time>2021-08-29T08:48:55Z</time>
      </trkpt>
      <trkpt lat="44.59876" lon="2.41064">
        <ele>361</ele>
        <time>2021-08-29T08:48:57Z</time>
      </trkpt>
      <trkpt lat="44.5988" lon="2.41046">
        <ele>359</ele>
        <time>2021-08-29T08:49:01Z</time>
      </trkpt>
      <trkpt lat="44.59883" lon="2.41038">
        <ele>359</ele>
        <time>2021-08-29T08:49:03Z</time>
      </trkpt>
      <trkpt lat="44.59882" lon="2.4103">
        <ele>360</ele>
        <time>2021-08-29T08:49:21Z</time>
      </trkpt>
      <trkpt lat="44.59916" lon="2.40972">
        <ele>358</ele>
        <time>2021-08-29T08:49:32Z</time>
      </trkpt>
      <trkpt lat="44.5992" lon="2.40955">
        <ele>357</ele>
        <time>2021-08-29T08:49:34Z</time>
      </trkpt>
      <trkpt lat="44.59928" lon="2.40855">
        <ele>351</ele>
        <time>2021-08-29T08:49:44Z</time>
      </trkpt>
      <trkpt lat="44.59944" lon="2.40808">
        <ele>349</ele>
        <time>2021-08-29T08:49:49Z</time>
      </trkpt>
      <trkpt lat="44.59945" lon="2.40799">
        <ele>348</ele>
        <time>2021-08-29T08:49:50Z</time>
      </trkpt>
      <trkpt lat="44.59945" lon="2.40789">
        <ele>348</ele>
        <time>2021-08-29T08:49:51Z</time>
      </trkpt>
      <trkpt lat="44.59942" lon="2.4078">
        <ele>347</ele>
        <time>2021-08-29T08:49:52Z</time>
      </trkpt>
      <trkpt lat="44.59937" lon="2.40771">
        <ele>346</ele>
        <time>2021-08-29T08:49:53Z</time>
      </trkpt>
      <trkpt lat="44.59899" lon="2.40735">
        <ele>345</ele>
        <time>2021-08-29T08:49:59Z</time>
      </trkpt>
      <trkpt lat="44.5989" lon="2.40721">
        <ele>344</ele>
        <time>2021-08-29T08:50:01Z</time>
      </trkpt>
      <trkpt lat="44.59883" lon="2.40706">
        <ele>343</ele>
        <time>2021-08-29T08:50:03Z</time>
      </trkpt>
      <trkpt lat="44.5988" lon="2.40693">
        <ele>341</ele>
        <time>2021-08-29T08:50:05Z</time>
      </trkpt>
      <trkpt lat="44.5988" lon="2.40674">
        <ele>342</ele>
        <time>2021-08-29T08:50:07Z</time>
      </trkpt>
      <trkpt lat="44.59886" lon="2.4065">
        <ele>342</ele>
        <time>2021-08-29T08:50:10Z</time>
      </trkpt>
      <trkpt lat="44.59927" lon="2.40561">
        <ele>335</ele>
        <time>2021-08-29T08:50:23Z</time>
      </trkpt>
      <trkpt lat="44.59934" lon="2.40552">
        <ele>334</ele>
        <time>2021-08-29T08:50:25Z</time>
      </trkpt>
      <trkpt lat="44.59941" lon="2.40545">
        <ele>334</ele>
        <time>2021-08-29T08:50:27Z</time>
      </trkpt>
      <trkpt lat="44.59948" lon="2.40536">
        <ele>333</ele>
        <time>2021-08-29T08:50:29Z</time>
      </trkpt>
      <trkpt lat="44.59951" lon="2.40495">
        <ele>328</ele>
        <time>2021-08-29T08:50:36Z</time>
      </trkpt>
      <trkpt lat="44.59952" lon="2.40483">
        <ele>326</ele>
        <time>2021-08-29T08:50:38Z</time>
      </trkpt>
      <trkpt lat="44.59949" lon="2.40466">
        <ele>322</ele>
        <time>2021-08-29T08:50:41Z</time>
      </trkpt>
      <trkpt lat="44.59938" lon="2.40449">
        <ele>320</ele>
        <time>2021-08-29T08:50:44Z</time>
      </trkpt>
      <trkpt lat="44.59901" lon="2.40421">
        <ele>323</ele>
        <time>2021-08-29T08:50:57Z</time>
      </trkpt>
      <trkpt lat="44.59897" lon="2.40416">
        <ele>323</ele>
        <time>2021-08-29T08:51:01Z</time>
      </trkpt>
      <trkpt lat="44.59892" lon="2.40412">
        <ele>322</ele>
        <time>2021-08-29T08:51:03Z</time>
      </trkpt>
      <trkpt lat="44.59889" lon="2.40406">
        <ele>322</ele>
        <time>2021-08-29T08:51:05Z</time>
      </trkpt>
      <trkpt lat="44.59886" lon="2.40398">
        <ele>320</ele>
        <time>2021-08-29T08:51:08Z</time>
      </trkpt>
      <trkpt lat="44.59884" lon="2.4039">
        <ele>320</ele>
        <time>2021-08-29T08:51:10Z</time>
      </trkpt>
      <trkpt lat="44.59884" lon="2.40382">
        <ele>320</ele>
        <time>2021-08-29T08:51:12Z</time>
      </trkpt>
      <trkpt lat="44.59887" lon="2.40367">
        <ele>321</ele>
        <time>2021-08-29T08:51:16Z</time>
      </trkpt>
      <trkpt lat="44.59895" lon="2.40355">
        <ele>319</ele>
        <time>2021-08-29T08:51:21Z</time>
      </trkpt>
      <trkpt lat="44.59903" lon="2.40348">
        <ele>318</ele>
        <time>2021-08-29T08:51:27Z</time>
      </trkpt>
      <trkpt lat="44.59925" lon="2.40311">
        <ele>315</ele>
        <time>2021-08-29T08:51:44Z</time>
      </trkpt>
      <trkpt lat="44.59927" lon="2.40304">
        <ele>314</ele>
        <time>2021-08-29T08:51:46Z</time>
      </trkpt>
      <trkpt lat="44.59928" lon="2.40289">
        <ele>312</ele>
        <time>2021-08-29T08:51:50Z</time>
      </trkpt>
      <trkpt lat="44.59929" lon="2.40282">
        <ele>311</ele>
        <time>2021-08-29T08:51:52Z</time>
      </trkpt>
      <trkpt lat="44.59933" lon="2.40199">
        <ele>303</ele>
        <time>2021-08-29T08:52:15Z</time>
      </trkpt>
      <trkpt lat="44.59932" lon="2.40191">
        <ele>303</ele>
        <time>2021-08-29T08:52:17Z</time>
      </trkpt>
      <trkpt lat="44.59927" lon="2.40185">
        <ele>303</ele>
        <time>2021-08-29T08:52:20Z</time>
      </trkpt>
      <trkpt lat="44.59924" lon="2.40179">
        <ele>303</ele>
        <time>2021-08-29T08:52:23Z</time>
      </trkpt>
      <trkpt lat="44.59925" lon="2.40173">
        <ele>302</ele>
        <time>2021-08-29T08:52:28Z</time>
      </trkpt>
      <trkpt lat="44.59923" lon="2.40167">
        <ele>302</ele>
        <time>2021-08-29T08:52:31Z</time>
      </trkpt>
      <trkpt lat="44.59921" lon="2.40161">
        <ele>301</ele>
        <time>2021-08-29T08:52:34Z</time>
      </trkpt>
      <trkpt lat="44.59921" lon="2.40146">
        <ele>301</ele>
        <time>2021-08-29T08:52:39Z</time>
      </trkpt>
      <trkpt lat="44.59922" lon="2.40139">
        <ele>301</ele>
        <time>2021-08-29T08:52:41Z</time>
      </trkpt>
      <trkpt lat="44.59923" lon="2.4013">
        <ele>301</ele>
        <time>2021-08-29T08:52:44Z</time>
      </trkpt>
      <trkpt lat="44.59927" lon="2.40043">
        <ele>299</ele>
        <time>2021-08-29T08:53:14Z</time>
      </trkpt>
      <trkpt lat="44.59919" lon="2.40006">
        <ele>297</ele>
        <time>2021-08-29T08:53:30Z</time>
      </trkpt>
      <trkpt lat="44.59918" lon="2.39991">
        <ele>296</ele>
        <time>2021-08-29T08:53:36Z</time>
      </trkpt>
      <trkpt lat="44.59917" lon="2.39983">
        <ele>296</ele>
        <time>2021-08-29T08:53:40Z</time>
      </trkpt>
      <trkpt lat="44.59913" lon="2.39976">
        <ele>296</ele>
        <time>2021-08-29T08:53:44Z</time>
      </trkpt>
      <trkpt lat="44.59912" lon="2.39968">
        <ele>297</ele>
        <time>2021-08-29T08:53:59Z</time>
      </trkpt>
      <trkpt lat="44.5992" lon="2.39929">
        <ele>296</ele>
        <time>2021-08-29T08:54:15Z</time>
      </trkpt>
      <trkpt lat="44.59919" lon="2.39921">
        <ele>295</ele>
        <time>2021-08-29T08:54:19Z</time>
      </trkpt>
      <trkpt lat="44.59925" lon="2.3991">
        <ele>295</ele>
        <time>2021-08-29T08:54:28Z</time>
      </trkpt>
      <trkpt lat="44.59922" lon="2.39909">
        <ele>297</ele>
        <time>2021-08-29T08:54:51Z</time>
      </trkpt>
      <trkpt lat="44.59919" lon="2.39916">
        <ele>298</ele>
        <time>2021-08-29T08:54:56Z</time>
      </trkpt>
      <trkpt lat="44.59916" lon="2.39925">
        <ele>298</ele>
        <time>2021-08-29T08:55:11Z</time>
      </trkpt>
      <trkpt lat="44.59917" lon="2.39931">
        <ele>298</ele>
        <time>2021-08-29T08:55:18Z</time>
      </trkpt>
      <trkpt lat="44.59917" lon="2.39939">
        <ele>299</ele>
        <time>2021-08-29T08:55:27Z</time>
      </trkpt>
      <trkpt lat="44.59916" lon="2.39947">
        <ele>298</ele>
        <time>2021-08-29T08:55:30Z</time>
      </trkpt>
      <trkpt lat="44.59912" lon="2.39953">
        <ele>298</ele>
        <time>2021-08-29T08:55:33Z</time>
      </trkpt>
      <trkpt lat="44.59908" lon="2.39957">
        <ele>298</ele>
        <time>2021-08-29T08:55:35Z</time>
      </trkpt>
      <trkpt lat="44.59906" lon="2.3997">
        <ele>301</ele>
        <time>2021-08-29T08:55:39Z</time>
      </trkpt>
      <trkpt lat="44.5991" lon="2.39985">
        <ele>299</ele>
        <time>2021-08-29T08:55:44Z</time>
      </trkpt>
      <trkpt lat="44.59913" lon="2.39991">
        <ele>297</ele>
        <time>2021-08-29T08:55:46Z</time>
      </trkpt>
      <trkpt lat="44.59916" lon="2.39997">
        <ele>296</ele>
        <time>2021-08-29T08:55:48Z</time>
      </trkpt>
      <trkpt lat="44.59918" lon="2.40004">
        <ele>295</ele>
        <time>2021-08-29T08:55:50Z</time>
      </trkpt>
      <trkpt lat="44.59924" lon="2.40041">
        <ele>292</ele>
        <time>2021-08-29T08:56:01Z</time>
      </trkpt>
      <trkpt lat="44.59928" lon="2.40048">
        <ele>288</ele>
        <time>2021-08-29T08:56:04Z</time>
      </trkpt>
      <trkpt lat="44.59927" lon="2.40046">
        <ele>292</ele>
        <time>2021-08-29T09:02:38Z</time>
      </trkpt>
      <trkpt lat="44.59923" lon="2.40037">
        <ele>292</ele>
        <time>2021-08-29T09:02:45Z</time>
      </trkpt>
      <trkpt lat="44.59924" lon="2.4002">
        <ele>291</ele>
        <time>2021-08-29T09:02:58Z</time>
      </trkpt>
      <trkpt lat="44.59925" lon="2.40002">
        <ele>291</ele>
        <time>2021-08-29T09:03:16Z</time>
      </trkpt>
      <trkpt lat="44.5992" lon="2.39996">
        <ele>295</ele>
        <time>2021-08-29T09:03:25Z</time>
      </trkpt>
      <trkpt lat="44.59919" lon="2.39988">
        <ele>299</ele>
        <time>2021-08-29T09:03:30Z</time>
      </trkpt>
      <trkpt lat="44.59915" lon="2.39976">
        <ele>301</ele>
        <time>2021-08-29T09:03:40Z</time>
      </trkpt>
      <trkpt lat="44.59914" lon="2.3997">
        <ele>301</ele>
        <time>2021-08-29T09:03:44Z</time>
      </trkpt>
      <trkpt lat="44.59907" lon="2.39969">
        <ele>303</ele>
        <time>2021-08-29T09:03:56Z</time>
      </trkpt>
      <trkpt lat="44.59929" lon="2.40048">
        <ele>312</ele>
        <time>2021-08-29T10:48:39Z</time>
      </trkpt>
      <trkpt lat="44.59929" lon="2.4005">
        <ele>312</ele>
        <time>2021-08-29T10:48:40Z</time>
      </trkpt>
      <trkpt lat="44.59932" lon="2.40043">
        <ele>311</ele>
        <time>2021-08-29T10:49:39Z</time>
      </trkpt>
      <trkpt lat="44.5993" lon="2.40036">
        <ele>306</ele>
        <time>2021-08-29T10:55:14Z</time>
      </trkpt>
      <trkpt lat="44.59925" lon="2.40022">
        <ele>305</ele>
        <time>2021-08-29T10:55:20Z</time>
      </trkpt>
      <trkpt lat="44.59924" lon="2.40013">
        <ele>305</ele>
        <time>2021-08-29T10:55:22Z</time>
      </trkpt>
      <trkpt lat="44.59913" lon="2.39964">
        <ele>300</ele>
        <time>2021-08-29T10:55:37Z</time>
      </trkpt>
      <trkpt lat="44.59913" lon="2.39958">
        <ele>300</ele>
        <time>2021-08-29T10:55:39Z</time>
      </trkpt>
      <trkpt lat="44.59915" lon="2.39952">
        <ele>299</ele>
        <time>2021-08-29T10:55:41Z</time>
      </trkpt>
      <trkpt lat="44.59918" lon="2.39919">
        <ele>298</ele>
        <time>2021-08-29T10:55:49Z</time>
      </trkpt>
      <trkpt lat="44.59945" lon="2.3985">
        <ele>307</ele>
        <time>2021-08-29T10:56:07Z</time>
      </trkpt>
      <trkpt lat="44.59948" lon="2.39839">
        <ele>309</ele>
        <time>2021-08-29T10:56:09Z</time>
      </trkpt>
      <trkpt lat="44.59949" lon="2.39799">
        <ele>310</ele>
        <time>2021-08-29T10:56:17Z</time>
      </trkpt>
      <trkpt lat="44.59942" lon="2.39767">
        <ele>312</ele>
        <time>2021-08-29T10:56:27Z</time>
      </trkpt>
      <trkpt lat="44.59935" lon="2.39738">
        <ele>313</ele>
        <time>2021-08-29T10:56:37Z</time>
      </trkpt>
      <trkpt lat="44.59933" lon="2.39732">
        <ele>312</ele>
        <time>2021-08-29T10:56:40Z</time>
      </trkpt>
      <trkpt lat="44.59927" lon="2.3973">
        <ele>311</ele>
        <time>2021-08-29T10:56:43Z</time>
      </trkpt>
      <trkpt lat="44.59923" lon="2.39725">
        <ele>309</ele>
        <time>2021-08-29T10:56:46Z</time>
      </trkpt>
      <trkpt lat="44.59921" lon="2.39717">
        <ele>308</ele>
        <time>2021-08-29T10:56:49Z</time>
      </trkpt>
      <trkpt lat="44.59919" lon="2.3971">
        <ele>304</ele>
        <time>2021-08-29T10:56:52Z</time>
      </trkpt>
      <trkpt lat="44.59919" lon="2.39699">
        <ele>302</ele>
        <time>2021-08-29T10:56:55Z</time>
      </trkpt>
      <trkpt lat="44.59913" lon="2.39612">
        <ele>288</ele>
        <time>2021-08-29T10:57:23Z</time>
      </trkpt>
      <trkpt lat="44.59913" lon="2.39603">
        <ele>288</ele>
        <time>2021-08-29T10:57:25Z</time>
      </trkpt>
      <trkpt lat="44.59913" lon="2.39584">
        <ele>283</ele>
        <time>2021-08-29T10:57:30Z</time>
      </trkpt>
      <trkpt lat="44.59914" lon="2.39578">
        <ele>282</ele>
        <time>2021-08-29T10:57:32Z</time>
      </trkpt>
      <trkpt lat="44.59913" lon="2.39559">
        <ele>280</ele>
        <time>2021-08-29T10:57:37Z</time>
      </trkpt>
      <trkpt lat="44.59905" lon="2.39538">
        <ele>277</ele>
        <time>2021-08-29T10:57:43Z</time>
      </trkpt>
      <trkpt lat="44.59902" lon="2.39531">
        <ele>276</ele>
        <time>2021-08-29T10:57:45Z</time>
      </trkpt>
      <trkpt lat="44.59872" lon="2.39498">
        <ele>275</ele>
        <time>2021-08-29T10:57:59Z</time>
      </trkpt>
      <trkpt lat="44.59873" lon="2.39492">
        <ele>281</ele>
        <time>2021-08-29T10:59:06Z</time>
      </trkpt>
      <trkpt lat="44.5987" lon="2.39487">
        <ele>281</ele>
        <time>2021-08-29T10:59:16Z</time>
      </trkpt>
      <trkpt lat="44.59858" lon="2.39442">
        <ele>278</ele>
        <time>2021-08-29T10:59:28Z</time>
      </trkpt>
      <trkpt lat="44.59857" lon="2.39435">
        <ele>277</ele>
        <time>2021-08-29T10:59:32Z</time>
      </trkpt>
      <trkpt lat="44.59857" lon="2.39428">
        <ele>277</ele>
        <time>2021-08-29T10:59:35Z</time>
      </trkpt>
      <trkpt lat="44.59862" lon="2.39425">
        <ele>278</ele>
        <time>2021-08-29T10:59:40Z</time>
      </trkpt>
      <trkpt lat="44.59866" lon="2.39421">
        <ele>277</ele>
        <time>2021-08-29T10:59:43Z</time>
      </trkpt>
      <trkpt lat="44.59869" lon="2.39414">
        <ele>278</ele>
        <time>2021-08-29T10:59:47Z</time>
      </trkpt>
      <trkpt lat="44.59871" lon="2.39406">
        <ele>278</ele>
        <time>2021-08-29T10:59:51Z</time>
      </trkpt>
      <trkpt lat="44.59872" lon="2.39399">
        <ele>278</ele>
        <time>2021-08-29T10:59:53Z</time>
      </trkpt>
      <trkpt lat="44.59875" lon="2.39393">
        <ele>279</ele>
        <time>2021-08-29T10:59:55Z</time>
      </trkpt>
      <trkpt lat="44.59879" lon="2.39388">
        <ele>279</ele>
        <time>2021-08-29T10:59:57Z</time>
      </trkpt>
      <trkpt lat="44.59891" lon="2.39382">
        <ele>278</ele>
        <time>2021-08-29T11:00:00Z</time>
      </trkpt>
      <trkpt lat="44.5991" lon="2.39384">
        <ele>277</ele>
        <time>2021-08-29T11:00:03Z</time>
      </trkpt>
      <trkpt lat="44.59982" lon="2.39353">
        <ele>269</ele>
        <time>2021-08-29T11:00:13Z</time>
      </trkpt>
      <trkpt lat="44.59988" lon="2.39349">
        <ele>268</ele>
        <time>2021-08-29T11:00:14Z</time>
      </trkpt>
      <trkpt lat="44.60023" lon="2.39306">
        <ele>262</ele>
        <time>2021-08-29T11:00:20Z</time>
      </trkpt>
      <trkpt lat="44.60029" lon="2.39287">
        <ele>261</ele>
        <time>2021-08-29T11:00:22Z</time>
      </trkpt>
      <trkpt lat="44.60042" lon="2.39246">
        <ele>256</ele>
        <time>2021-08-29T11:00:27Z</time>
      </trkpt>
      <trkpt lat="44.60044" lon="2.39238">
        <ele>255</ele>
        <time>2021-08-29T11:00:28Z</time>
      </trkpt>
      <trkpt lat="44.60041" lon="2.39223">
        <ele>254</ele>
        <time>2021-08-29T11:00:30Z</time>
      </trkpt>
      <trkpt lat="44.60041" lon="2.39216">
        <ele>254</ele>
        <time>2021-08-29T11:00:31Z</time>
      </trkpt>
      <trkpt lat="44.6004" lon="2.39183">
        <ele>254</ele>
        <time>2021-08-29T11:00:35Z</time>
      </trkpt>
      <trkpt lat="44.6004" lon="2.39163">
        <ele>257</ele>
        <time>2021-08-29T11:00:37Z</time>
      </trkpt>
      <trkpt lat="44.60056" lon="2.39098">
        <ele>254</ele>
        <time>2021-08-29T11:00:43Z</time>
      </trkpt>
      <trkpt lat="44.60066" lon="2.39076">
        <ele>252</ele>
        <time>2021-08-29T11:00:45Z</time>
      </trkpt>
      <trkpt lat="44.60098" lon="2.39042">
        <ele>249</ele>
        <time>2021-08-29T11:00:49Z</time>
      </trkpt>
      <trkpt lat="44.60107" lon="2.39036">
        <ele>248</ele>
        <time>2021-08-29T11:00:50Z</time>
      </trkpt>
      <trkpt lat="44.60126" lon="2.39031">
        <ele>245</ele>
        <time>2021-08-29T11:00:52Z</time>
      </trkpt>
      <trkpt lat="44.60164" lon="2.39046">
        <ele>242</ele>
        <time>2021-08-29T11:00:56Z</time>
      </trkpt>
      <trkpt lat="44.60247" lon="2.39039">
        <ele>235</ele>
        <time>2021-08-29T11:01:05Z</time>
      </trkpt>
      <trkpt lat="44.60258" lon="2.39035">
        <ele>234</ele>
        <time>2021-08-29T11:01:07Z</time>
      </trkpt>
      <trkpt lat="44.60264" lon="2.39029">
        <ele>232</ele>
        <time>2021-08-29T11:01:09Z</time>
      </trkpt>
      <trkpt lat="44.60258" lon="2.39024">
        <ele>228</ele>
        <time>2021-08-29T11:02:11Z</time>
      </trkpt>
      <trkpt lat="44.60195" lon="2.39033">
        <ele>230</ele>
        <time>2021-08-29T11:02:29Z</time>
      </trkpt>
      <trkpt lat="44.60187" lon="2.39031">
        <ele>230</ele>
        <time>2021-08-29T11:02:32Z</time>
      </trkpt>
      <trkpt lat="44.60108" lon="2.38997">
        <ele>227</ele>
        <time>2021-08-29T11:02:52Z</time>
      </trkpt>
      <trkpt lat="44.60076" lon="2.39">
        <ele>225</ele>
        <time>2021-08-29T11:03:00Z</time>
      </trkpt>
      <trkpt lat="44.60061" lon="2.39008">
        <ele>224</ele>
        <time>2021-08-29T11:03:04Z</time>
      </trkpt>
      <trkpt lat="44.60042" lon="2.39036">
        <ele>223</ele>
        <time>2021-08-29T11:03:10Z</time>
      </trkpt>
      <trkpt lat="44.60025" lon="2.39061">
        <ele>226</ele>
        <time>2021-08-29T11:03:16Z</time>
      </trkpt>
      <trkpt lat="44.60016" lon="2.39083">
        <ele>228</ele>
        <time>2021-08-29T11:03:20Z</time>
      </trkpt>
      <trkpt lat="44.60014" lon="2.39093">
        <ele>229</ele>
        <time>2021-08-29T11:03:22Z</time>
      </trkpt>
      <trkpt lat="44.60008" lon="2.39126">
        <ele>227</ele>
        <time>2021-08-29T11:03:28Z</time>
      </trkpt>
      <trkpt lat="44.59994" lon="2.39181">
        <ele>233</ele>
        <time>2021-08-29T11:03:41Z</time>
      </trkpt>
      <trkpt lat="44.59987" lon="2.39202">
        <ele>234</ele>
        <time>2021-08-29T11:03:45Z</time>
      </trkpt>
      <trkpt lat="44.59986" lon="2.3921">
        <ele>234</ele>
        <time>2021-08-29T11:03:47Z</time>
      </trkpt>
      <trkpt lat="44.59987" lon="2.39218">
        <ele>234</ele>
        <time>2021-08-29T11:03:49Z</time>
      </trkpt>
      <trkpt lat="44.59984" lon="2.3923">
        <ele>230</ele>
        <time>2021-08-29T11:03:52Z</time>
      </trkpt>
      <trkpt lat="44.59981" lon="2.39239">
        <ele>222</ele>
        <time>2021-08-29T11:03:54Z</time>
      </trkpt>
      <trkpt lat="44.59964" lon="2.39257">
        <ele>213</ele>
        <time>2021-08-29T11:03:59Z</time>
      </trkpt>
      <trkpt lat="44.59952" lon="2.39266">
        <ele>210</ele>
        <time>2021-08-29T11:04:02Z</time>
      </trkpt>
      <trkpt lat="44.59938" lon="2.39276">
        <ele>202</ele>
        <time>2021-08-29T11:04:05Z</time>
      </trkpt>
      <trkpt lat="44.59924" lon="2.39281">
        <ele>196</ele>
        <time>2021-08-29T11:04:08Z</time>
      </trkpt>
      <trkpt lat="44.5991" lon="2.39285">
        <ele>189</ele>
        <time>2021-08-29T11:04:11Z</time>
      </trkpt>
      <trkpt lat="44.59895" lon="2.39284">
        <ele>193</ele>
        <time>2021-08-29T11:04:14Z</time>
      </trkpt>
      <trkpt lat="44.59887" lon="2.39284">
        <ele>196</ele>
        <time>2021-08-29T11:04:16Z</time>
      </trkpt>
      <trkpt lat="44.59836" lon="2.39293">
        <ele>206</ele>
        <time>2021-08-29T11:04:30Z</time>
      </trkpt>
      <trkpt lat="44.59812" lon="2.3929">
        <ele>208</ele>
        <time>2021-08-29T11:04:37Z</time>
      </trkpt>
      <trkpt lat="44.59765" lon="2.39269">
        <ele>205</ele>
        <time>2021-08-29T11:04:52Z</time>
      </trkpt>
      <trkpt lat="44.59743" lon="2.39267">
        <ele>201</ele>
        <time>2021-08-29T11:04:58Z</time>
      </trkpt>
      <trkpt lat="44.59721" lon="2.39276">
        <ele>203</ele>
        <time>2021-08-29T11:05:04Z</time>
      </trkpt>
      <trkpt lat="44.59685" lon="2.39305">
        <ele>200</ele>
        <time>2021-08-29T11:05:14Z</time>
      </trkpt>
      <trkpt lat="44.59666" lon="2.39322">
        <ele>199</ele>
        <time>2021-08-29T11:05:19Z</time>
      </trkpt>
      <trkpt lat="44.59659" lon="2.39327">
        <ele>198</ele>
        <time>2021-08-29T11:05:21Z</time>
      </trkpt>
      <trkpt lat="44.59653" lon="2.39332">
        <ele>198</ele>
        <time>2021-08-29T11:05:23Z</time>
      </trkpt>
      <trkpt lat="44.59618" lon="2.39358">
        <ele>201</ele>
        <time>2021-08-29T11:05:33Z</time>
      </trkpt>
      <trkpt lat="44.59593" lon="2.39365">
        <ele>200</ele>
        <time>2021-08-29T11:05:40Z</time>
      </trkpt>
      <trkpt lat="44.59582" lon="2.39366">
        <ele>197</ele>
        <time>2021-08-29T11:05:43Z</time>
      </trkpt>
      <trkpt lat="44.59525" lon="2.39386">
        <ele>198</ele>
        <time>2021-08-29T11:05:57Z</time>
      </trkpt>
      <trkpt lat="44.59529" lon="2.39383">
        <ele>200</ele>
        <time>2021-08-29T11:06:53Z</time>
      </trkpt>
      <trkpt lat="44.596" lon="2.39376">
        <ele>203</ele>
        <time>2021-08-29T11:07:11Z</time>
      </trkpt>
      <trkpt lat="44.59707" lon="2.39293">
        <ele>204</ele>
        <time>2021-08-29T11:07:43Z</time>
      </trkpt>
      <trkpt lat="44.59726" lon="2.39286">
        <ele>202</ele>
        <time>2021-08-29T11:07:48Z</time>
      </trkpt>
      <trkpt lat="44.5975" lon="2.39287">
        <ele>202</ele>
        <time>2021-08-29T11:07:54Z</time>
      </trkpt>
      <trkpt lat="44.5979" lon="2.39302">
        <ele>203</ele>
        <time>2021-08-29T11:08:05Z</time>
      </trkpt>
      <trkpt lat="44.59797" lon="2.39304">
        <ele>204</ele>
        <time>2021-08-29T11:08:07Z</time>
      </trkpt>
      <trkpt lat="44.59802" lon="2.39307">
        <ele>204</ele>
        <time>2021-08-29T11:08:09Z</time>
      </trkpt>
      <trkpt lat="44.5981" lon="2.39301">
        <ele>210</ele>
        <time>2021-08-29T11:08:14Z</time>
      </trkpt>
      <trkpt lat="44.59806" lon="2.39297">
        <ele>215</ele>
        <time>2021-08-29T11:08:17Z</time>
      </trkpt>
      <trkpt lat="44.59805" lon="2.3929">
        <ele>219</ele>
        <time>2021-08-29T11:08:20Z</time>
      </trkpt>
      <trkpt lat="44.59805" lon="2.39282">
        <ele>221</ele>
        <time>2021-08-29T11:08:23Z</time>
      </trkpt>
      <trkpt lat="44.59817" lon="2.39191">
        <ele>229</ele>
        <time>2021-08-29T11:08:53Z</time>
      </trkpt>
      <trkpt lat="44.59791" lon="2.39116">
        <ele>232</ele>
        <time>2021-08-29T11:09:24Z</time>
      </trkpt>
      <trkpt lat="44.59786" lon="2.39111">
        <ele>232</ele>
        <time>2021-08-29T11:09:27Z</time>
      </trkpt>
      <trkpt lat="44.59776" lon="2.39102">
        <ele>229</ele>
        <time>2021-08-29T11:09:34Z</time>
      </trkpt>
      <trkpt lat="44.59774" lon="2.39095">
        <ele>228</ele>
        <time>2021-08-29T11:09:37Z</time>
      </trkpt>
      <trkpt lat="44.59778" lon="2.39089">
        <ele>229</ele>
        <time>2021-08-29T11:09:42Z</time>
      </trkpt>
      <trkpt lat="44.59785" lon="2.39094">
        <ele>229</ele>
        <time>2021-08-29T11:09:45Z</time>
      </trkpt>
      <trkpt lat="44.5979" lon="2.39099">
        <ele>226</ele>
        <time>2021-08-29T11:09:48Z</time>
      </trkpt>
      <trkpt lat="44.59799" lon="2.39102">
        <ele>224</ele>
        <time>2021-08-29T11:09:52Z</time>
      </trkpt>
      <trkpt lat="44.59805" lon="2.39109">
        <ele>226</ele>
        <time>2021-08-29T11:09:56Z</time>
      </trkpt>
      <trkpt lat="44.59812" lon="2.39115">
        <ele>228</ele>
        <time>2021-08-29T11:10:00Z</time>
      </trkpt>
      <trkpt lat="44.59832" lon="2.39142">
        <ele>228</ele>
        <time>2021-08-29T11:10:15Z</time>
      </trkpt>
      <trkpt lat="44.59837" lon="2.39147">
        <ele>229</ele>
        <time>2021-08-29T11:10:18Z</time>
      </trkpt>
      <trkpt lat="44.59868" lon="2.39134">
        <ele>229</ele>
        <time>2021-08-29T11:10:35Z</time>
      </trkpt>
      <trkpt lat="44.5987" lon="2.39128">
        <ele>230</ele>
        <time>2021-08-29T11:10:39Z</time>
      </trkpt>
      <trkpt lat="44.59883" lon="2.39086">
        <ele>234</ele>
        <time>2021-08-29T11:11:00Z</time>
      </trkpt>
      <trkpt lat="44.59885" lon="2.39079">
        <ele>235</ele>
        <time>2021-08-29T11:11:03Z</time>
      </trkpt>
      <trkpt lat="44.59889" lon="2.39072">
        <ele>237</ele>
        <time>2021-08-29T11:11:06Z</time>
      </trkpt>
      <trkpt lat="44.59892" lon="2.39066">
        <ele>238</ele>
        <time>2021-08-29T11:11:09Z</time>
      </trkpt>
      <trkpt lat="44.59905" lon="2.3904">
        <ele>243</ele>
        <time>2021-08-29T11:11:21Z</time>
      </trkpt>
      <trkpt lat="44.59908" lon="2.39034">
        <ele>244</ele>
        <time>2021-08-29T11:11:24Z</time>
      </trkpt>
      <trkpt lat="44.59912" lon="2.39027">
        <ele>246</ele>
        <time>2021-08-29T11:11:27Z</time>
      </trkpt>
      <trkpt lat="44.59921" lon="2.39009">
        <ele>248</ele>
        <time>2021-08-29T11:11:36Z</time>
      </trkpt>
      <trkpt lat="44.59934" lon="2.38995">
        <ele>247</ele>
        <time>2021-08-29T11:11:45Z</time>
      </trkpt>
      <trkpt lat="44.59937" lon="2.38989">
        <ele>248</ele>
        <time>2021-08-29T11:11:48Z</time>
      </trkpt>
      <trkpt lat="44.59938" lon="2.3898">
        <ele>249</ele>
        <time>2021-08-29T11:11:51Z</time>
      </trkpt>
      <trkpt lat="44.59935" lon="2.38976">
        <ele>251</ele>
        <time>2021-08-29T11:11:54Z</time>
      </trkpt>
      <trkpt lat="44.59929" lon="2.38977">
        <ele>252</ele>
        <time>2021-08-29T11:11:57Z</time>
      </trkpt>
      <trkpt lat="44.59911" lon="2.39005">
        <ele>252</ele>
        <time>2021-08-29T11:12:10Z</time>
      </trkpt>
      <trkpt lat="44.59898" lon="2.39021">
        <ele>253</ele>
        <time>2021-08-29T11:12:18Z</time>
      </trkpt>
      <trkpt lat="44.59894" lon="2.39028">
        <ele>254</ele>
        <time>2021-08-29T11:12:21Z</time>
      </trkpt>
      <trkpt lat="44.5989" lon="2.39033">
        <ele>256</ele>
        <time>2021-08-29T11:12:25Z</time>
      </trkpt>
      <trkpt lat="44.59886" lon="2.39036">
        <ele>257</ele>
        <time>2021-08-29T11:12:28Z</time>
      </trkpt>
      <trkpt lat="44.5988" lon="2.39037">
        <ele>258</ele>
        <time>2021-08-29T11:12:31Z</time>
      </trkpt>
      <trkpt lat="44.59866" lon="2.3905">
        <ele>261</ele>
        <time>2021-08-29T11:12:42Z</time>
      </trkpt>
      <trkpt lat="44.59826" lon="2.39071">
        <ele>264</ele>
        <time>2021-08-29T11:13:06Z</time>
      </trkpt>
      <trkpt lat="44.59822" lon="2.39069">
        <ele>265</ele>
        <time>2021-08-29T11:13:09Z</time>
      </trkpt>
      <trkpt lat="44.59818" lon="2.39061">
        <ele>265</ele>
        <time>2021-08-29T11:13:12Z</time>
      </trkpt>
      <trkpt lat="44.59816" lon="2.39044">
        <ele>267</ele>
        <time>2021-08-29T11:13:18Z</time>
      </trkpt>
      <trkpt lat="44.59805" lon="2.39016">
        <ele>269</ele>
        <time>2021-08-29T11:13:30Z</time>
      </trkpt>
      <trkpt lat="44.59774" lon="2.38981">
        <ele>267</ele>
        <time>2021-08-29T11:13:51Z</time>
      </trkpt>
      <trkpt lat="44.59742" lon="2.38938">
        <ele>266</ele>
        <time>2021-08-29T11:14:17Z</time>
      </trkpt>
      <trkpt lat="44.59735" lon="2.38928">
        <ele>269</ele>
        <time>2021-08-29T11:14:22Z</time>
      </trkpt>
      <trkpt lat="44.59725" lon="2.3891">
        <ele>271</ele>
        <time>2021-08-29T11:14:31Z</time>
      </trkpt>
      <trkpt lat="44.59715" lon="2.38888">
        <ele>276</ele>
        <time>2021-08-29T11:14:41Z</time>
      </trkpt>
      <trkpt lat="44.59707" lon="2.38868">
        <ele>277</ele>
        <time>2021-08-29T11:14:50Z</time>
      </trkpt>
      <trkpt lat="44.59695" lon="2.38861">
        <ele>286</ele>
        <time>2021-08-29T11:14:55Z</time>
      </trkpt>
      <trkpt lat="44.59687" lon="2.38873">
        <ele>285</ele>
        <time>2021-08-29T11:15:03Z</time>
      </trkpt>
      <trkpt lat="44.59684" lon="2.38888">
        <ele>282</ele>
        <time>2021-08-29T11:15:08Z</time>
      </trkpt>
      <trkpt lat="44.59689" lon="2.38921">
        <ele>282</ele>
        <time>2021-08-29T11:15:22Z</time>
      </trkpt>
      <trkpt lat="44.59688" lon="2.38928">
        <ele>282</ele>
        <time>2021-08-29T11:15:25Z</time>
      </trkpt>
      <trkpt lat="44.59677" lon="2.38961">
        <ele>284</ele>
        <time>2021-08-29T11:15:36Z</time>
      </trkpt>
      <trkpt lat="44.59665" lon="2.39">
        <ele>281</ele>
        <time>2021-08-29T11:15:48Z</time>
      </trkpt>
      <trkpt lat="44.59661" lon="2.39014">
        <ele>280</ele>
        <time>2021-08-29T11:15:52Z</time>
      </trkpt>
      <trkpt lat="44.59659" lon="2.39045">
        <ele>277</ele>
        <time>2021-08-29T11:16:02Z</time>
      </trkpt>
      <trkpt lat="44.59662" lon="2.39061">
        <ele>278</ele>
        <time>2021-08-29T11:16:08Z</time>
      </trkpt>
      <trkpt lat="44.59661" lon="2.39069">
        <ele>279</ele>
        <time>2021-08-29T11:16:11Z</time>
      </trkpt>
      <trkpt lat="44.5966" lon="2.39076">
        <ele>279</ele>
        <time>2021-08-29T11:16:14Z</time>
      </trkpt>
      <trkpt lat="44.59655" lon="2.3908">
        <ele>280</ele>
        <time>2021-08-29T11:16:17Z</time>
      </trkpt>
      <trkpt lat="44.59651" lon="2.39077">
        <ele>286</ele>
        <time>2021-08-29T11:16:27Z</time>
      </trkpt>
      <trkpt lat="44.59645" lon="2.39079">
        <ele>293</ele>
        <time>2021-08-29T11:16:31Z</time>
      </trkpt>
      <trkpt lat="44.59619" lon="2.39099">
        <ele>297</ele>
        <time>2021-08-29T11:16:46Z</time>
      </trkpt>
      <trkpt lat="44.59615" lon="2.39103">
        <ele>298</ele>
        <time>2021-08-29T11:16:57Z</time>
      </trkpt>
      <trkpt lat="44.59609" lon="2.39102">
        <ele>298</ele>
        <time>2021-08-29T11:17:00Z</time>
      </trkpt>
      <trkpt lat="44.59599" lon="2.391">
        <ele>300</ele>
        <time>2021-08-29T11:17:04Z</time>
      </trkpt>
      <trkpt lat="44.59594" lon="2.39101">
        <ele>301</ele>
        <time>2021-08-29T11:17:06Z</time>
      </trkpt>
      <trkpt lat="44.59589" lon="2.39102">
        <ele>301</ele>
        <time>2021-08-29T11:17:08Z</time>
      </trkpt>
      <trkpt lat="44.59539" lon="2.39155">
        <ele>303</ele>
        <time>2021-08-29T11:17:38Z</time>
      </trkpt>
      <trkpt lat="44.59534" lon="2.39158">
        <ele>305</ele>
        <time>2021-08-29T11:17:43Z</time>
      </trkpt>
      <trkpt lat="44.59528" lon="2.39156">
        <ele>307</ele>
        <time>2021-08-29T11:17:47Z</time>
      </trkpt>
      <trkpt lat="44.59523" lon="2.39152">
        <ele>309</ele>
        <time>2021-08-29T11:17:50Z</time>
      </trkpt>
      <trkpt lat="44.59518" lon="2.3915">
        <ele>307</ele>
        <time>2021-08-29T11:18:04Z</time>
      </trkpt>
      <trkpt lat="44.5952" lon="2.39144">
        <ele>304</ele>
        <time>2021-08-29T11:21:10Z</time>
      </trkpt>
      <trkpt lat="44.59525" lon="2.39149">
        <ele>303</ele>
        <time>2021-08-29T11:24:15Z</time>
      </trkpt>
      <trkpt lat="44.59528" lon="2.39157">
        <ele>304</ele>
        <time>2021-08-29T11:24:17Z</time>
      </trkpt>
      <trkpt lat="44.59532" lon="2.39162">
        <ele>304</ele>
        <time>2021-08-29T11:24:19Z</time>
      </trkpt>
      <trkpt lat="44.59541" lon="2.39155">
        <ele>304</ele>
        <time>2021-08-29T11:24:23Z</time>
      </trkpt>
      <trkpt lat="44.59545" lon="2.39148">
        <ele>303</ele>
        <time>2021-08-29T11:24:26Z</time>
      </trkpt>
      <trkpt lat="44.59579" lon="2.39106">
        <ele>297</ele>
        <time>2021-08-29T11:24:39Z</time>
      </trkpt>
      <trkpt lat="44.59585" lon="2.39106">
        <ele>296</ele>
        <time>2021-08-29T11:24:41Z</time>
      </trkpt>
      <trkpt lat="44.59599" lon="2.39111">
        <ele>294</ele>
        <time>2021-08-29T11:24:44Z</time>
      </trkpt>
      <trkpt lat="44.59614" lon="2.39099">
        <ele>292</ele>
        <time>2021-08-29T11:24:47Z</time>
      </trkpt>
      <trkpt lat="44.59641" lon="2.39081">
        <ele>288</ele>
        <time>2021-08-29T11:24:52Z</time>
      </trkpt>
      <trkpt lat="44.59652" lon="2.39079">
        <ele>287</ele>
        <time>2021-08-29T11:24:54Z</time>
      </trkpt>
      <trkpt lat="44.59657" lon="2.39078">
        <ele>286</ele>
        <time>2021-08-29T11:24:55Z</time>
      </trkpt>
      <trkpt lat="44.59661" lon="2.39073">
        <ele>286</ele>
        <time>2021-08-29T11:24:56Z</time>
      </trkpt>
      <trkpt lat="44.59665" lon="2.39068">
        <ele>286</ele>
        <time>2021-08-29T11:24:57Z</time>
      </trkpt>
      <trkpt lat="44.59659" lon="2.38981">
        <ele>284</ele>
        <time>2021-08-29T11:25:08Z</time>
      </trkpt>
      <trkpt lat="44.59669" lon="2.38945">
        <ele>282</ele>
        <time>2021-08-29T11:25:12Z</time>
      </trkpt>
      <trkpt lat="44.5967" lon="2.38936">
        <ele>282</ele>
        <time>2021-08-29T11:25:13Z</time>
      </trkpt>
      <trkpt lat="44.59672" lon="2.3889">
        <ele>280</ele>
        <time>2021-08-29T11:25:18Z</time>
      </trkpt>
      <trkpt lat="44.59673" lon="2.38883">
        <ele>279</ele>
        <time>2021-08-29T11:25:19Z</time>
      </trkpt>
      <trkpt lat="44.59681" lon="2.38875">
        <ele>279</ele>
        <time>2021-08-29T11:25:21Z</time>
      </trkpt>
      <trkpt lat="44.59687" lon="2.38877">
        <ele>279</ele>
        <time>2021-08-29T11:25:22Z</time>
      </trkpt>
      <trkpt lat="44.59707" lon="2.38894">
        <ele>278</ele>
        <time>2021-08-29T11:25:25Z</time>
      </trkpt>
      <trkpt lat="44.59713" lon="2.38904">
        <ele>277</ele>
        <time>2021-08-29T11:25:27Z</time>
      </trkpt>
      <trkpt lat="44.59713" lon="2.38935">
        <ele>275</ele>
        <time>2021-08-29T11:25:32Z</time>
      </trkpt>
      <trkpt lat="44.59719" lon="2.38949">
        <ele>273</ele>
        <time>2021-08-29T11:25:35Z</time>
      </trkpt>
      <trkpt lat="44.59726" lon="2.38964">
        <ele>271</ele>
        <time>2021-08-29T11:25:39Z</time>
      </trkpt>
      <trkpt lat="44.59728" lon="2.3898">
        <ele>267</ele>
        <time>2021-08-29T11:25:44Z</time>
      </trkpt>
      <trkpt lat="44.59726" lon="2.3899">
        <ele>264</ele>
        <time>2021-08-29T11:25:46Z</time>
      </trkpt>
      <trkpt lat="44.59732" lon="2.38997">
        <ele>261</ele>
        <time>2021-08-29T11:25:52Z</time>
      </trkpt>
      <trkpt lat="44.59741" lon="2.39">
        <ele>258</ele>
        <time>2021-08-29T11:26:48Z</time>
      </trkpt>
      <trkpt lat="44.59749" lon="2.39005">
        <ele>259</ele>
        <time>2021-08-29T11:26:50Z</time>
      </trkpt>
      <trkpt lat="44.59787" lon="2.39034">
        <ele>262</ele>
        <time>2021-08-29T11:26:57Z</time>
      </trkpt>
      <trkpt lat="44.59793" lon="2.39047">
        <ele>262</ele>
        <time>2021-08-29T11:26:59Z</time>
      </trkpt>
      <trkpt lat="44.598" lon="2.39059">
        <ele>262</ele>
        <time>2021-08-29T11:27:01Z</time>
      </trkpt>
      <trkpt lat="44.59803" lon="2.39066">
        <ele>262</ele>
        <time>2021-08-29T11:27:02Z</time>
      </trkpt>
      <trkpt lat="44.59803" lon="2.39075">
        <ele>261</ele>
        <time>2021-08-29T11:27:03Z</time>
      </trkpt>
      <trkpt lat="44.59804" lon="2.39084">
        <ele>260</ele>
        <time>2021-08-29T11:27:04Z</time>
      </trkpt>
      <trkpt lat="44.59807" lon="2.39088">
        <ele>259</ele>
        <time>2021-08-29T11:27:06Z</time>
      </trkpt>
      <trkpt lat="44.59816" lon="2.39085">
        <ele>258</ele>
        <time>2021-08-29T11:27:08Z</time>
      </trkpt>
      <trkpt lat="44.59894" lon="2.39019">
        <ele>251</ele>
        <time>2021-08-29T11:27:21Z</time>
      </trkpt>
      <trkpt lat="44.5992" lon="2.3899">
        <ele>249</ele>
        <time>2021-08-29T11:27:26Z</time>
      </trkpt>
      <trkpt lat="44.59926" lon="2.38983">
        <ele>248</ele>
        <time>2021-08-29T11:27:28Z</time>
      </trkpt>
      <trkpt lat="44.59932" lon="2.38988">
        <ele>248</ele>
        <time>2021-08-29T11:27:30Z</time>
      </trkpt>
      <trkpt lat="44.59929" lon="2.38999">
        <ele>248</ele>
        <time>2021-08-29T11:27:32Z</time>
      </trkpt>
      <trkpt lat="44.59924" lon="2.39005">
        <ele>247</ele>
        <time>2021-08-29T11:27:33Z</time>
      </trkpt>
      <trkpt lat="44.59916" lon="2.39019">
        <ele>247</ele>
        <time>2021-08-29T11:27:35Z</time>
      </trkpt>
      <trkpt lat="44.59868" lon="2.39139">
        <ele>244</ele>
        <time>2021-08-29T11:27:47Z</time>
      </trkpt>
      <trkpt lat="44.59858" lon="2.39151">
        <ele>244</ele>
        <time>2021-08-29T11:27:49Z</time>
      </trkpt>
      <trkpt lat="44.59852" lon="2.39155">
        <ele>244</ele>
        <time>2021-08-29T11:27:50Z</time>
      </trkpt>
      <trkpt lat="44.59845" lon="2.39157">
        <ele>243</ele>
        <time>2021-08-29T11:27:51Z</time>
      </trkpt>
      <trkpt lat="44.59838" lon="2.39156">
        <ele>242</ele>
        <time>2021-08-29T11:27:52Z</time>
      </trkpt>
      <trkpt lat="44.59831" lon="2.39152">
        <ele>241</ele>
        <time>2021-08-29T11:27:53Z</time>
      </trkpt>
      <trkpt lat="44.5981" lon="2.39118">
        <ele>239</ele>
        <time>2021-08-29T11:27:57Z</time>
      </trkpt>
      <trkpt lat="44.59795" lon="2.39104">
        <ele>237</ele>
        <time>2021-08-29T11:28:00Z</time>
      </trkpt>
      <trkpt lat="44.59789" lon="2.39096">
        <ele>237</ele>
        <time>2021-08-29T11:28:02Z</time>
      </trkpt>
      <trkpt lat="44.59781" lon="2.39088">
        <ele>237</ele>
        <time>2021-08-29T11:28:05Z</time>
      </trkpt>
      <trkpt lat="44.59776" lon="2.39111">
        <ele>240</ele>
        <time>2021-08-29T11:28:08Z</time>
      </trkpt>
      <trkpt lat="44.59816" lon="2.39143">
        <ele>239</ele>
        <time>2021-08-29T11:28:15Z</time>
      </trkpt>
      <trkpt lat="44.59822" lon="2.39147">
        <ele>238</ele>
        <time>2021-08-29T11:28:16Z</time>
      </trkpt>
      <trkpt lat="44.59832" lon="2.39172">
        <ele>233</ele>
        <time>2021-08-29T11:28:20Z</time>
      </trkpt>
      <trkpt lat="44.59833" lon="2.39182">
        <ele>232</ele>
        <time>2021-08-29T11:28:22Z</time>
      </trkpt>
      <trkpt lat="44.59832" lon="2.39193">
        <ele>229</ele>
        <time>2021-08-29T11:28:25Z</time>
      </trkpt>
      <trkpt lat="44.59828" lon="2.39214">
        <ele>225</ele>
        <time>2021-08-29T11:28:30Z</time>
      </trkpt>
      <trkpt lat="44.59826" lon="2.39221">
        <ele>226</ele>
        <time>2021-08-29T11:28:34Z</time>
      </trkpt>
      <trkpt lat="44.59824" lon="2.39235">
        <ele>227</ele>
        <time>2021-08-29T11:29:30Z</time>
      </trkpt>
      <trkpt lat="44.59822" lon="2.39246">
        <ele>229</ele>
        <time>2021-08-29T11:29:33Z</time>
      </trkpt>
      <trkpt lat="44.59815" lon="2.39262">
        <ele>231</ele>
        <time>2021-08-29T11:29:40Z</time>
      </trkpt>
      <trkpt lat="44.59812" lon="2.39275">
        <ele>232</ele>
        <time>2021-08-29T11:29:46Z</time>
      </trkpt>
      <trkpt lat="44.5981" lon="2.39282">
        <ele>232</ele>
        <time>2021-08-29T11:29:50Z</time>
      </trkpt>
      <trkpt lat="44.59806" lon="2.39288">
        <ele>231</ele>
        <time>2021-08-29T11:29:55Z</time>
      </trkpt>
      <trkpt lat="44.59789" lon="2.39282">
        <ele>234</ele>
        <time>2021-08-29T11:30:01Z</time>
      </trkpt>
      <trkpt lat="44.59782" lon="2.39275">
        <ele>236</ele>
        <time>2021-08-29T11:30:03Z</time>
      </trkpt>
      <trkpt lat="44.59757" lon="2.39262">
        <ele>236</ele>
        <time>2021-08-29T11:30:10Z</time>
      </trkpt>
      <trkpt lat="44.59727" lon="2.39269">
        <ele>237</ele>
        <time>2021-08-29T11:30:18Z</time>
      </trkpt>
      <trkpt lat="44.59705" lon="2.39281">
        <ele>238</ele>
        <time>2021-08-29T11:30:23Z</time>
      </trkpt>
      <trkpt lat="44.59619" lon="2.3936">
        <ele>244</ele>
        <time>2021-08-29T11:30:47Z</time>
      </trkpt>
      <trkpt lat="44.59598" lon="2.3937">
        <ele>246</ele>
        <time>2021-08-29T11:30:52Z</time>
      </trkpt>
      <trkpt lat="44.59532" lon="2.39382">
        <ele>247</ele>
        <time>2021-08-29T11:31:05Z</time>
      </trkpt>
      <trkpt lat="44.5949" lon="2.3941">
        <ele>252</ele>
        <time>2021-08-29T11:31:15Z</time>
      </trkpt>
      <trkpt lat="44.59361" lon="2.39512">
        <ele>259</ele>
        <time>2021-08-29T11:31:45Z</time>
      </trkpt>
      <trkpt lat="44.59353" lon="2.39519">
        <ele>261</ele>
        <time>2021-08-29T11:31:47Z</time>
      </trkpt>
      <trkpt lat="44.5934" lon="2.39535">
        <ele>260</ele>
        <time>2021-08-29T11:31:51Z</time>
      </trkpt>
      <trkpt lat="44.59332" lon="2.39543">
        <ele>259</ele>
        <time>2021-08-29T11:31:53Z</time>
      </trkpt>
      <trkpt lat="44.59286" lon="2.39622">
        <ele>261</ele>
        <time>2021-08-29T11:32:12Z</time>
      </trkpt>
      <trkpt lat="44.59283" lon="2.39631">
        <ele>261</ele>
        <time>2021-08-29T11:32:14Z</time>
      </trkpt>
      <trkpt lat="44.59217" lon="2.39729">
        <ele>260</ele>
        <time>2021-08-29T11:32:40Z</time>
      </trkpt>
      <trkpt lat="44.59209" lon="2.39747">
        <ele>258</ele>
        <time>2021-08-29T11:32:44Z</time>
      </trkpt>
      <trkpt lat="44.59195" lon="2.39772">
        <ele>259</ele>
        <time>2021-08-29T11:32:50Z</time>
      </trkpt>
      <trkpt lat="44.59186" lon="2.39779">
        <ele>262</ele>
        <time>2021-08-29T11:32:52Z</time>
      </trkpt>
      <trkpt lat="44.59169" lon="2.39788">
        <ele>267</ele>
        <time>2021-08-29T11:32:56Z</time>
      </trkpt>
      <trkpt lat="44.59148" lon="2.39793">
        <ele>265</ele>
        <time>2021-08-29T11:33:00Z</time>
      </trkpt>
      <trkpt lat="44.59095" lon="2.39805">
        <ele>260</ele>
        <time>2021-08-29T11:33:12Z</time>
      </trkpt>
      <trkpt lat="44.59071" lon="2.39798">
        <ele>258</ele>
        <time>2021-08-29T11:33:17Z</time>
      </trkpt>
      <trkpt lat="44.59053" lon="2.39784">
        <ele>257</ele>
        <time>2021-08-29T11:33:21Z</time>
      </trkpt>
      <trkpt lat="44.58961" lon="2.39693">
        <ele>251</ele>
        <time>2021-08-29T11:33:40Z</time>
      </trkpt>
      <trkpt lat="44.5895" lon="2.39684">
        <ele>251</ele>
        <time>2021-08-29T11:33:42Z</time>
      </trkpt>
      <trkpt lat="44.58901" lon="2.39633">
        <ele>241</ele>
        <time>2021-08-29T11:33:52Z</time>
      </trkpt>
      <trkpt lat="44.58895" lon="2.39629">
        <ele>240</ele>
        <time>2021-08-29T11:33:53Z</time>
      </trkpt>
      <trkpt lat="44.58883" lon="2.39625">
        <ele>239</ele>
        <time>2021-08-29T11:33:55Z</time>
      </trkpt>
      <trkpt lat="44.58865" lon="2.39627">
        <ele>238</ele>
        <time>2021-08-29T11:33:58Z</time>
      </trkpt>
      <trkpt lat="44.58849" lon="2.39636">
        <ele>236</ele>
        <time>2021-08-29T11:34:01Z</time>
      </trkpt>
      <trkpt lat="44.58838" lon="2.39645">
        <ele>234</ele>
        <time>2021-08-29T11:34:03Z</time>
      </trkpt>
      <trkpt lat="44.58823" lon="2.39662">
        <ele>231</ele>
        <time>2021-08-29T11:34:06Z</time>
      </trkpt>
      <trkpt lat="44.58814" lon="2.39682">
        <ele>229</ele>
        <time>2021-08-29T11:34:09Z</time>
      </trkpt>
      <trkpt lat="44.5881" lon="2.39706">
        <ele>229</ele>
        <time>2021-08-29T11:34:12Z</time>
      </trkpt>
      <trkpt lat="44.58812" lon="2.39729">
        <ele>227</ele>
        <time>2021-08-29T11:34:15Z</time>
      </trkpt>
      <trkpt lat="44.58824" lon="2.39782">
        <ele>225</ele>
        <time>2021-08-29T11:34:22Z</time>
      </trkpt>
      <trkpt lat="44.5883" lon="2.39795">
        <ele>223</ele>
        <time>2021-08-29T11:34:24Z</time>
      </trkpt>
      <trkpt lat="44.58835" lon="2.39808">
        <ele>222</ele>
        <time>2021-08-29T11:34:26Z</time>
      </trkpt>
      <trkpt lat="44.58843" lon="2.39813">
        <ele>223</ele>
        <time>2021-08-29T11:34:27Z</time>
      </trkpt>
      <trkpt lat="44.58854" lon="2.39888">
        <ele>226</ele>
        <time>2021-08-29T11:34:42Z</time>
      </trkpt>
      <trkpt lat="44.58852" lon="2.39898">
        <ele>226</ele>
        <time>2021-08-29T11:34:45Z</time>
      </trkpt>
      <trkpt lat="44.5885" lon="2.39907">
        <ele>226</ele>
        <time>2021-08-29T11:34:47Z</time>
      </trkpt>
      <trkpt lat="44.58843" lon="2.39943">
        <ele>222</ele>
        <time>2021-08-29T11:34:53Z</time>
      </trkpt>
      <trkpt lat="44.58822" lon="2.40007">
        <ele>223</ele>
        <time>2021-08-29T11:35:03Z</time>
      </trkpt>
      <trkpt lat="44.58808" lon="2.40032">
        <ele>225</ele>
        <time>2021-08-29T11:35:07Z</time>
      </trkpt>
      <trkpt lat="44.58799" lon="2.40045">
        <ele>232</ele>
        <time>2021-08-29T11:35:09Z</time>
      </trkpt>
      <trkpt lat="44.58761" lon="2.40098">
        <ele>241</ele>
        <time>2021-08-29T11:35:18Z</time>
      </trkpt>
      <trkpt lat="44.5871" lon="2.40165">
        <ele>247</ele>
        <time>2021-08-29T11:35:32Z</time>
      </trkpt>
      <trkpt lat="44.58698" lon="2.40183">
        <ele>244</ele>
        <time>2021-08-29T11:35:36Z</time>
      </trkpt>
      <trkpt lat="44.58691" lon="2.4019">
        <ele>242</ele>
        <time>2021-08-29T11:35:38Z</time>
      </trkpt>
      <trkpt lat="44.58682" lon="2.40196">
        <ele>238</ele>
        <time>2021-08-29T11:35:40Z</time>
      </trkpt>
      <trkpt lat="44.58674" lon="2.40201">
        <ele>234</ele>
        <time>2021-08-29T11:35:42Z</time>
      </trkpt>
      <trkpt lat="44.58629" lon="2.40219">
        <ele>228</ele>
        <time>2021-08-29T11:35:52Z</time>
      </trkpt>
      <trkpt lat="44.5861" lon="2.40222">
        <ele>225</ele>
        <time>2021-08-29T11:35:56Z</time>
      </trkpt>
      <trkpt lat="44.58591" lon="2.40225">
        <ele>221</ele>
        <time>2021-08-29T11:36:00Z</time>
      </trkpt>
      <trkpt lat="44.58475" lon="2.40225">
        <ele>224</ele>
        <time>2021-08-29T11:36:22Z</time>
      </trkpt>
      <trkpt lat="44.58353" lon="2.40242">
        <ele>231</ele>
        <time>2021-08-29T11:36:47Z</time>
      </trkpt>
      <trkpt lat="44.58308" lon="2.40265">
        <ele>233</ele>
        <time>2021-08-29T11:36:57Z</time>
      </trkpt>
      <trkpt lat="44.5822" lon="2.40327">
        <ele>240</ele>
        <time>2021-08-29T11:37:16Z</time>
      </trkpt>
      <trkpt lat="44.58201" lon="2.40355">
        <ele>244</ele>
        <time>2021-08-29T11:37:21Z</time>
      </trkpt>
      <trkpt lat="44.58194" lon="2.40397">
        <ele>242</ele>
        <time>2021-08-29T11:37:27Z</time>
      </trkpt>
      <trkpt lat="44.5818" lon="2.40517">
        <ele>240</ele>
        <time>2021-08-29T11:37:43Z</time>
      </trkpt>
      <trkpt lat="44.58171" lon="2.40546">
        <ele>241</ele>
        <time>2021-08-29T11:37:47Z</time>
      </trkpt>
      <trkpt lat="44.58158" lon="2.40571">
        <ele>241</ele>
        <time>2021-08-29T11:37:51Z</time>
      </trkpt>
      <trkpt lat="44.5812" lon="2.40607">
        <ele>243</ele>
        <time>2021-08-29T11:37:59Z</time>
      </trkpt>
      <trkpt lat="44.57961" lon="2.40714">
        <ele>225</ele>
        <time>2021-08-29T11:38:31Z</time>
      </trkpt>
      <trkpt lat="44.57903" lon="2.40758">
        <ele>224</ele>
        <time>2021-08-29T11:38:43Z</time>
      </trkpt>
      <trkpt lat="44.57863" lon="2.40781">
        <ele>218</ele>
        <time>2021-08-29T11:38:51Z</time>
      </trkpt>
      <trkpt lat="44.57851" lon="2.4079">
        <ele>216</ele>
        <time>2021-08-29T11:38:54Z</time>
      </trkpt>
      <trkpt lat="44.5781" lon="2.40806">
        <ele>208</ele>
        <time>2021-08-29T11:39:02Z</time>
      </trkpt>
      <trkpt lat="44.57691" lon="2.40816">
        <ele>208</ele>
        <time>2021-08-29T11:39:23Z</time>
      </trkpt>
      <trkpt lat="44.57647" lon="2.40805">
        <ele>213</ele>
        <time>2021-08-29T11:39:30Z</time>
      </trkpt>
      <trkpt lat="44.57619" lon="2.40791">
        <ele>215</ele>
        <time>2021-08-29T11:39:35Z</time>
      </trkpt>
      <trkpt lat="44.57573" lon="2.40749">
        <ele>217</ele>
        <time>2021-08-29T11:39:44Z</time>
      </trkpt>
      <trkpt lat="44.57541" lon="2.40717">
        <ele>220</ele>
        <time>2021-08-29T11:39:51Z</time>
      </trkpt>
      <trkpt lat="44.57524" lon="2.40704">
        <ele>222</ele>
        <time>2021-08-29T11:39:55Z</time>
      </trkpt>
      <trkpt lat="44.57506" lon="2.40702">
        <ele>226</ele>
        <time>2021-08-29T11:39:59Z</time>
      </trkpt>
      <trkpt lat="44.5749" lon="2.40705">
        <ele>228</ele>
        <time>2021-08-29T11:40:02Z</time>
      </trkpt>
      <trkpt lat="44.57475" lon="2.40714">
        <ele>229</ele>
        <time>2021-08-29T11:40:05Z</time>
      </trkpt>
      <trkpt lat="44.57325" lon="2.4083">
        <ele>242</ele>
        <time>2021-08-29T11:40:36Z</time>
      </trkpt>
      <trkpt lat="44.57289" lon="2.40846">
        <ele>245</ele>
        <time>2021-08-29T11:40:42Z</time>
      </trkpt>
      <trkpt lat="44.57267" lon="2.40849">
        <ele>247</ele>
        <time>2021-08-29T11:40:45Z</time>
      </trkpt>
      <trkpt lat="44.5721" lon="2.40836">
        <ele>250</ele>
        <time>2021-08-29T11:40:55Z</time>
      </trkpt>
      <trkpt lat="44.57142" lon="2.40782">
        <ele>250</ele>
        <time>2021-08-29T11:41:10Z</time>
      </trkpt>
      <trkpt lat="44.57062" lon="2.40707">
        <ele>248</ele>
        <time>2021-08-29T11:41:28Z</time>
      </trkpt>
      <trkpt lat="44.56951" lon="2.40544">
        <ele>243</ele>
        <time>2021-08-29T11:41:55Z</time>
      </trkpt>
      <trkpt lat="44.56939" lon="2.40536">
        <ele>243</ele>
        <time>2021-08-29T11:41:57Z</time>
      </trkpt>
      <trkpt lat="44.56932" lon="2.40533">
        <ele>244</ele>
        <time>2021-08-29T11:41:58Z</time>
      </trkpt>
      <trkpt lat="44.56927" lon="2.40533">
        <ele>246</ele>
        <time>2021-08-29T11:41:59Z</time>
      </trkpt>
      <trkpt lat="44.56921" lon="2.40535">
        <ele>247</ele>
        <time>2021-08-29T11:42:00Z</time>
      </trkpt>
      <trkpt lat="44.56911" lon="2.40544">
        <ele>248</ele>
        <time>2021-08-29T11:42:02Z</time>
      </trkpt>
      <trkpt lat="44.56879" lon="2.40588">
        <ele>250</ele>
        <time>2021-08-29T11:42:10Z</time>
      </trkpt>
      <trkpt lat="44.56871" lon="2.40595">
        <ele>250</ele>
        <time>2021-08-29T11:42:12Z</time>
      </trkpt>
      <trkpt lat="44.56823" lon="2.4061">
        <ele>254</ele>
        <time>2021-08-29T11:42:22Z</time>
      </trkpt>
      <trkpt lat="44.56794" lon="2.4064">
        <ele>257</ele>
        <time>2021-08-29T11:42:30Z</time>
      </trkpt>
      <trkpt lat="44.56751" lon="2.40652">
        <ele>262</ele>
        <time>2021-08-29T11:42:38Z</time>
      </trkpt>
      <trkpt lat="44.56729" lon="2.40647">
        <ele>263</ele>
        <time>2021-08-29T11:42:42Z</time>
      </trkpt>
      <trkpt lat="44.56687" lon="2.40609">
        <ele>265</ele>
        <time>2021-08-29T11:42:51Z</time>
      </trkpt>
      <trkpt lat="44.56682" lon="2.40607">
        <ele>264</ele>
        <time>2021-08-29T11:42:52Z</time>
      </trkpt>
      <trkpt lat="44.56677" lon="2.40607">
        <ele>264</ele>
        <time>2021-08-29T11:42:53Z</time>
      </trkpt>
      <trkpt lat="44.56672" lon="2.40608">
        <ele>264</ele>
        <time>2021-08-29T11:42:54Z</time>
      </trkpt>
      <trkpt lat="44.56667" lon="2.40611">
        <ele>264</ele>
        <time>2021-08-29T11:42:55Z</time>
      </trkpt>
      <trkpt lat="44.56658" lon="2.40622">
        <ele>264</ele>
        <time>2021-08-29T11:42:57Z</time>
      </trkpt>
      <trkpt lat="44.56652" lon="2.40636">
        <ele>264</ele>
        <time>2021-08-29T11:42:59Z</time>
      </trkpt>
      <trkpt lat="44.5661" lon="2.40775">
        <ele>271</ele>
        <time>2021-08-29T11:43:18Z</time>
      </trkpt>
      <trkpt lat="44.56578" lon="2.40836">
        <ele>274</ele>
        <time>2021-08-29T11:43:28Z</time>
      </trkpt>
      <trkpt lat="44.56533" lon="2.4089">
        <ele>280</ele>
        <time>2021-08-29T11:43:38Z</time>
      </trkpt>
      <trkpt lat="44.56522" lon="2.40898">
        <ele>280</ele>
        <time>2021-08-29T11:43:40Z</time>
      </trkpt>
      <trkpt lat="44.56503" lon="2.40902">
        <ele>279</ele>
        <time>2021-08-29T11:43:43Z</time>
      </trkpt>
      <trkpt lat="44.56462" lon="2.40908">
        <ele>274</ele>
        <time>2021-08-29T11:43:50Z</time>
      </trkpt>
      <trkpt lat="44.56427" lon="2.40898">
        <ele>272</ele>
        <time>2021-08-29T11:43:56Z</time>
      </trkpt>
      <trkpt lat="44.56267" lon="2.40854">
        <ele>267</ele>
        <time>2021-08-29T11:44:20Z</time>
      </trkpt>
      <trkpt lat="44.56238" lon="2.40854">
        <ele>267</ele>
        <time>2021-08-29T11:44:25Z</time>
      </trkpt>
      <trkpt lat="44.56207" lon="2.40865">
        <ele>265</ele>
        <time>2021-08-29T11:44:31Z</time>
      </trkpt>
      <trkpt lat="44.56182" lon="2.4088">
        <ele>265</ele>
        <time>2021-08-29T11:44:37Z</time>
      </trkpt>
      <trkpt lat="44.56177" lon="2.40881">
        <ele>265</ele>
        <time>2021-08-29T11:44:38Z</time>
      </trkpt>
      <trkpt lat="44.56171" lon="2.40881">
        <ele>266</ele>
        <time>2021-08-29T11:44:39Z</time>
      </trkpt>
      <trkpt lat="44.56165" lon="2.4088">
        <ele>265</ele>
        <time>2021-08-29T11:44:40Z</time>
      </trkpt>
      <trkpt lat="44.56155" lon="2.40879">
        <ele>264</ele>
        <time>2021-08-29T11:44:43Z</time>
      </trkpt>
      <trkpt lat="44.5615" lon="2.40883">
        <ele>263</ele>
        <time>2021-08-29T11:44:52Z</time>
      </trkpt>
      <trkpt lat="44.56147" lon="2.4089">
        <ele>262</ele>
        <time>2021-08-29T11:46:17Z</time>
      </trkpt>
      <trkpt lat="44.56142" lon="2.40889">
        <ele>258</ele>
        <time>2021-08-29T11:47:08Z</time>
      </trkpt>
      <trkpt lat="44.5609" lon="2.40858">
        <ele>255</ele>
        <time>2021-08-29T11:47:24Z</time>
      </trkpt>
      <trkpt lat="44.56073" lon="2.40855">
        <ele>255</ele>
        <time>2021-08-29T11:47:28Z</time>
      </trkpt>
      <trkpt lat="44.56047" lon="2.40858">
        <ele>257</ele>
        <time>2021-08-29T11:47:34Z</time>
      </trkpt>
      <trkpt lat="44.56" lon="2.40884">
        <ele>255</ele>
        <time>2021-08-29T11:47:46Z</time>
      </trkpt>
      <trkpt lat="44.55974" lon="2.40904">
        <ele>251</ele>
        <time>2021-08-29T11:47:53Z</time>
      </trkpt>
      <trkpt lat="44.55949" lon="2.40919">
        <ele>248</ele>
        <time>2021-08-29T11:47:59Z</time>
      </trkpt>
      <trkpt lat="44.55928" lon="2.40936">
        <ele>249</ele>
        <time>2021-08-29T11:48:04Z</time>
      </trkpt>
      <trkpt lat="44.55897" lon="2.40954">
        <ele>242</ele>
        <time>2021-08-29T11:48:11Z</time>
      </trkpt>
      <trkpt lat="44.55841" lon="2.4099">
        <ele>241</ele>
        <time>2021-08-29T11:48:22Z</time>
      </trkpt>
      <trkpt lat="44.55674" lon="2.41032">
        <ele>239</ele>
        <time>2021-08-29T11:48:52Z</time>
      </trkpt>
      <trkpt lat="44.55518" lon="2.41068">
        <ele>237</ele>
        <time>2021-08-29T11:49:22Z</time>
      </trkpt>
      <trkpt lat="44.55364" lon="2.41104">
        <ele>230</ele>
        <time>2021-08-29T11:49:52Z</time>
      </trkpt>
      <trkpt lat="44.55335" lon="2.41107">
        <ele>230</ele>
        <time>2021-08-29T11:49:58Z</time>
      </trkpt>
      <trkpt lat="44.55271" lon="2.41096">
        <ele>228</ele>
        <time>2021-08-29T11:50:13Z</time>
      </trkpt>
      <trkpt lat="44.55262" lon="2.41094">
        <ele>228</ele>
        <time>2021-08-29T11:50:16Z</time>
      </trkpt>
      <trkpt lat="44.55258" lon="2.41091">
        <ele>229</ele>
        <time>2021-08-29T11:50:18Z</time>
      </trkpt>
      <trkpt lat="44.5525" lon="2.41089">
        <ele>233</ele>
        <time>2021-08-29T11:50:20Z</time>
      </trkpt>
      <trkpt lat="44.55245" lon="2.41089">
        <ele>235</ele>
        <time>2021-08-29T11:51:00Z</time>
      </trkpt>
      <trkpt lat="44.55238" lon="2.41087">
        <ele>236</ele>
        <time>2021-08-29T11:51:02Z</time>
      </trkpt>
      <trkpt lat="44.55217" lon="2.41083">
        <ele>237</ele>
        <time>2021-08-29T11:51:08Z</time>
      </trkpt>
      <trkpt lat="44.55083" lon="2.41065">
        <ele>237</ele>
        <time>2021-08-29T11:51:37Z</time>
      </trkpt>
      <trkpt lat="44.54986" lon="2.41091">
        <ele>229</ele>
        <time>2021-08-29T11:51:56Z</time>
      </trkpt>
      <trkpt lat="44.54905" lon="2.41089">
        <ele>225</ele>
        <time>2021-08-29T11:52:12Z</time>
      </trkpt>
      <trkpt lat="44.54768" lon="2.41035">
        <ele>216</ele>
        <time>2021-08-29T11:52:42Z</time>
      </trkpt>
      <trkpt lat="44.54719" lon="2.41029">
        <ele>205</ele>
        <time>2021-08-29T11:52:54Z</time>
      </trkpt>
      <trkpt lat="44.54713" lon="2.41028">
        <ele>204</ele>
        <time>2021-08-29T11:52:56Z</time>
      </trkpt>
      <trkpt lat="44.54706" lon="2.41028">
        <ele>203</ele>
        <time>2021-08-29T11:52:59Z</time>
      </trkpt>
      <trkpt lat="44.547" lon="2.41032">
        <ele>203</ele>
        <time>2021-08-29T11:53:05Z</time>
      </trkpt>
      <trkpt lat="44.54695" lon="2.41033">
        <ele>203</ele>
        <time>2021-08-29T11:53:40Z</time>
      </trkpt>
      <trkpt lat="44.54685" lon="2.41028">
        <ele>205</ele>
        <time>2021-08-29T11:53:44Z</time>
      </trkpt>
      <trkpt lat="44.54679" lon="2.41025">
        <ele>206</ele>
        <time>2021-08-29T11:53:46Z</time>
      </trkpt>
      <trkpt lat="44.54649" lon="2.41022">
        <ele>210</ele>
        <time>2021-08-29T11:53:54Z</time>
      </trkpt>
      <trkpt lat="44.54632" lon="2.41019">
        <ele>214</ele>
        <time>2021-08-29T11:53:58Z</time>
      </trkpt>
      <trkpt lat="44.54616" lon="2.41015">
        <ele>217</ele>
        <time>2021-08-29T11:54:02Z</time>
      </trkpt>
      <trkpt lat="44.54611" lon="2.41013">
        <ele>217</ele>
        <time>2021-08-29T11:54:04Z</time>
      </trkpt>
      <trkpt lat="44.5461" lon="2.41006">
        <ele>220</ele>
        <time>2021-08-29T11:54:07Z</time>
      </trkpt>
      <trkpt lat="44.54607" lon="2.41012">
        <ele>225</ele>
        <time>2021-08-29T11:56:26Z</time>
      </trkpt>
      <trkpt lat="44.54604" lon="2.41019">
        <ele>225</ele>
        <time>2021-08-29T11:56:30Z</time>
      </trkpt>
      <trkpt lat="44.54602" lon="2.41025">
        <ele>224</ele>
        <time>2021-08-29T11:56:32Z</time>
      </trkpt>
      <trkpt lat="44.54598" lon="2.41041">
        <ele>224</ele>
        <time>2021-08-29T11:56:37Z</time>
      </trkpt>
      <trkpt lat="44.5458" lon="2.41113">
        <ele>224</ele>
        <time>2021-08-29T11:56:53Z</time>
      </trkpt>
      <trkpt lat="44.54579" lon="2.4112">
        <ele>224</ele>
        <time>2021-08-29T11:56:54Z</time>
      </trkpt>
      <trkpt lat="44.54576" lon="2.41133">
        <ele>221</ele>
        <time>2021-08-29T11:56:56Z</time>
      </trkpt>
      <trkpt lat="44.54574" lon="2.41145">
        <ele>219</ele>
        <time>2021-08-29T11:56:58Z</time>
      </trkpt>
      <trkpt lat="44.54538" lon="2.41278">
        <ele>212</ele>
        <time>2021-08-29T11:57:28Z</time>
      </trkpt>
      <trkpt lat="44.54534" lon="2.41286">
        <ele>211</ele>
        <time>2021-08-29T11:57:30Z</time>
      </trkpt>
      <trkpt lat="44.54529" lon="2.41314">
        <ele>209</ele>
        <time>2021-08-29T11:57:36Z</time>
      </trkpt>
      <trkpt lat="44.54511" lon="2.41371">
        <ele>210</ele>
        <time>2021-08-29T11:57:48Z</time>
      </trkpt>
      <trkpt lat="44.54508" lon="2.41381">
        <ele>213</ele>
        <time>2021-08-29T11:57:50Z</time>
      </trkpt>
      <trkpt lat="44.54497" lon="2.41425">
        <ele>220</ele>
        <time>2021-08-29T11:58:00Z</time>
      </trkpt>
      <trkpt lat="44.54494" lon="2.41433">
        <ele>223</ele>
        <time>2021-08-29T12:00:08Z</time>
      </trkpt>
      <trkpt lat="44.54491" lon="2.4144">
        <ele>223</ele>
        <time>2021-08-29T12:01:12Z</time>
      </trkpt>
      <trkpt lat="44.54495" lon="2.41473">
        <ele>225</ele>
        <time>2021-08-29T12:01:20Z</time>
      </trkpt>
      <trkpt lat="44.54527" lon="2.41569">
        <ele>232</ele>
        <time>2021-08-29T12:01:42Z</time>
      </trkpt>
      <trkpt lat="44.54528" lon="2.41577">
        <ele>232</ele>
        <time>2021-08-29T12:01:44Z</time>
      </trkpt>
      <trkpt lat="44.54529" lon="2.41605">
        <ele>235</ele>
        <time>2021-08-29T12:01:53Z</time>
      </trkpt>
      <trkpt lat="44.54529" lon="2.41613">
        <ele>236</ele>
        <time>2021-08-29T12:01:56Z</time>
      </trkpt>
      <trkpt lat="44.54515" lon="2.4164">
        <ele>238</ele>
        <time>2021-08-29T12:02:07Z</time>
      </trkpt>
      <trkpt lat="44.54512" lon="2.41645">
        <ele>239</ele>
        <time>2021-08-29T12:02:09Z</time>
      </trkpt>
      <trkpt lat="44.54508" lon="2.41651">
        <ele>240</ele>
        <time>2021-08-29T12:02:11Z</time>
      </trkpt>
      <trkpt lat="44.54469" lon="2.417">
        <ele>247</ele>
        <time>2021-08-29T12:02:40Z</time>
      </trkpt>
      <trkpt lat="44.54465" lon="2.41705">
        <ele>248</ele>
        <time>2021-08-29T12:02:43Z</time>
      </trkpt>
      <trkpt lat="44.54458" lon="2.41715">
        <ele>249</ele>
        <time>2021-08-29T12:02:49Z</time>
      </trkpt>
      <trkpt lat="44.54449" lon="2.41733">
        <ele>251</ele>
        <time>2021-08-29T12:02:58Z</time>
      </trkpt>
      <trkpt lat="44.54448" lon="2.41748">
        <ele>254</ele>
        <time>2021-08-29T12:03:04Z</time>
      </trkpt>
      <trkpt lat="44.54447" lon="2.41766">
        <ele>256</ele>
        <time>2021-08-29T12:03:10Z</time>
      </trkpt>
      <trkpt lat="44.54448" lon="2.41775">
        <ele>257</ele>
        <time>2021-08-29T12:03:13Z</time>
      </trkpt>
      <trkpt lat="44.54451" lon="2.41791">
        <ele>259</ele>
        <time>2021-08-29T12:03:19Z</time>
      </trkpt>
      <trkpt lat="44.54457" lon="2.41806">
        <ele>262</ele>
        <time>2021-08-29T12:03:27Z</time>
      </trkpt>
      <trkpt lat="44.54468" lon="2.41819">
        <ele>264</ele>
        <time>2021-08-29T12:03:36Z</time>
      </trkpt>
      <trkpt lat="44.54478" lon="2.41824">
        <ele>265</ele>
        <time>2021-08-29T12:03:42Z</time>
      </trkpt>
      <trkpt lat="44.54483" lon="2.41827">
        <ele>265</ele>
        <time>2021-08-29T12:03:45Z</time>
      </trkpt>
      <trkpt lat="44.54487" lon="2.4183">
        <ele>266</ele>
        <time>2021-08-29T12:03:48Z</time>
      </trkpt>
      <trkpt lat="44.54491" lon="2.41833">
        <ele>266</ele>
        <time>2021-08-29T12:03:51Z</time>
      </trkpt>
      <trkpt lat="44.54504" lon="2.41842">
        <ele>269</ele>
        <time>2021-08-29T12:04:00Z</time>
      </trkpt>
      <trkpt lat="44.54508" lon="2.41846">
        <ele>270</ele>
        <time>2021-08-29T12:04:03Z</time>
      </trkpt>
      <trkpt lat="44.54512" lon="2.41849">
        <ele>270</ele>
        <time>2021-08-29T12:04:06Z</time>
      </trkpt>
      <trkpt lat="44.5452" lon="2.41858">
        <ele>270</ele>
        <time>2021-08-29T12:04:11Z</time>
      </trkpt>
      <trkpt lat="44.54526" lon="2.41863">
        <ele>270</ele>
        <time>2021-08-29T12:04:14Z</time>
      </trkpt>
      <trkpt lat="44.54547" lon="2.41898">
        <ele>273</ele>
        <time>2021-08-29T12:04:33Z</time>
      </trkpt>
      <trkpt lat="44.54554" lon="2.41909">
        <ele>274</ele>
        <time>2021-08-29T12:04:39Z</time>
      </trkpt>
      <trkpt lat="44.54578" lon="2.41926">
        <ele>277</ele>
        <time>2021-08-29T12:04:54Z</time>
      </trkpt>
      <trkpt lat="44.54589" lon="2.41929">
        <ele>278</ele>
        <time>2021-08-29T12:05:00Z</time>
      </trkpt>
      <trkpt lat="44.54621" lon="2.41933">
        <ele>283</ele>
        <time>2021-08-29T12:05:15Z</time>
      </trkpt>
      <trkpt lat="44.54639" lon="2.41927">
        <ele>286</ele>
        <time>2021-08-29T12:05:24Z</time>
      </trkpt>
      <trkpt lat="44.54658" lon="2.41911">
        <ele>289</ele>
        <time>2021-08-29T12:05:35Z</time>
      </trkpt>
      <trkpt lat="44.54675" lon="2.41887">
        <ele>292</ele>
        <time>2021-08-29T12:05:47Z</time>
      </trkpt>
      <trkpt lat="44.54701" lon="2.4182">
        <ele>299</ele>
        <time>2021-08-29T12:06:17Z</time>
      </trkpt>
      <trkpt lat="44.54704" lon="2.41813">
        <ele>300</ele>
        <time>2021-08-29T12:06:20Z</time>
      </trkpt>
      <trkpt lat="44.54706" lon="2.41807">
        <ele>300</ele>
        <time>2021-08-29T12:06:22Z</time>
      </trkpt>
      <trkpt lat="44.54719" lon="2.41793">
        <ele>303</ele>
        <time>2021-08-29T12:06:30Z</time>
      </trkpt>
      <trkpt lat="44.54735" lon="2.41783">
        <ele>304</ele>
        <time>2021-08-29T12:06:39Z</time>
      </trkpt>
      <trkpt lat="44.54775" lon="2.41777">
        <ele>309</ele>
        <time>2021-08-29T12:06:58Z</time>
      </trkpt>
      <trkpt lat="44.54794" lon="2.41767">
        <ele>311</ele>
        <time>2021-08-29T12:07:06Z</time>
      </trkpt>
      <trkpt lat="44.54808" lon="2.41754">
        <ele>312</ele>
        <time>2021-08-29T12:07:14Z</time>
      </trkpt>
      <trkpt lat="44.54849" lon="2.41722">
        <ele>316</ele>
        <time>2021-08-29T12:07:35Z</time>
      </trkpt>
      <trkpt lat="44.54855" lon="2.41721">
        <ele>316</ele>
        <time>2021-08-29T12:07:38Z</time>
      </trkpt>
      <trkpt lat="44.54862" lon="2.41723">
        <ele>317</ele>
        <time>2021-08-29T12:07:41Z</time>
      </trkpt>
      <trkpt lat="44.54867" lon="2.41729">
        <ele>317</ele>
        <time>2021-08-29T12:07:44Z</time>
      </trkpt>
      <trkpt lat="44.5487" lon="2.41735">
        <ele>318</ele>
        <time>2021-08-29T12:07:46Z</time>
      </trkpt>
      <trkpt lat="44.5487" lon="2.41782">
        <ele>319</ele>
        <time>2021-08-29T12:07:58Z</time>
      </trkpt>
      <trkpt lat="44.54868" lon="2.41795">
        <ele>320</ele>
        <time>2021-08-29T12:08:01Z</time>
      </trkpt>
      <trkpt lat="44.54865" lon="2.41908">
        <ele>326</ele>
        <time>2021-08-29T12:08:23Z</time>
      </trkpt>
      <trkpt lat="44.54859" lon="2.41968">
        <ele>327</ele>
        <time>2021-08-29T12:08:35Z</time>
      </trkpt>
      <trkpt lat="44.54864" lon="2.42027">
        <ele>328</ele>
        <time>2021-08-29T12:08:47Z</time>
      </trkpt>
      <trkpt lat="44.54887" lon="2.42105">
        <ele>331</ele>
        <time>2021-08-29T12:09:05Z</time>
      </trkpt>
      <trkpt lat="44.54918" lon="2.42167">
        <ele>333</ele>
        <time>2021-08-29T12:09:25Z</time>
      </trkpt>
      <trkpt lat="44.5497" lon="2.42254">
        <ele>335</ele>
        <time>2021-08-29T12:09:55Z</time>
      </trkpt>
      <trkpt lat="44.55038" lon="2.4235">
        <ele>336</ele>
        <time>2021-08-29T12:10:27Z</time>
      </trkpt>
      <trkpt lat="44.55105" lon="2.42436">
        <ele>338</ele>
        <time>2021-08-29T12:10:59Z</time>
      </trkpt>
      <trkpt lat="44.55125" lon="2.42466">
        <ele>337</ele>
        <time>2021-08-29T12:11:11Z</time>
      </trkpt>
      <trkpt lat="44.55135" lon="2.42495">
        <ele>336</ele>
        <time>2021-08-29T12:11:19Z</time>
      </trkpt>
      <trkpt lat="44.55151" lon="2.4259">
        <ele>342</ele>
        <time>2021-08-29T12:11:46Z</time>
      </trkpt>
      <trkpt lat="44.55153" lon="2.42596">
        <ele>343</ele>
        <time>2021-08-29T12:11:48Z</time>
      </trkpt>
      <trkpt lat="44.55181" lon="2.4264">
        <ele>346</ele>
        <time>2021-08-29T12:12:04Z</time>
      </trkpt>
      <trkpt lat="44.55199" lon="2.42668">
        <ele>347</ele>
        <time>2021-08-29T12:12:14Z</time>
      </trkpt>
      <trkpt lat="44.55207" lon="2.42685">
        <ele>349</ele>
        <time>2021-08-29T12:12:20Z</time>
      </trkpt>
      <trkpt lat="44.55214" lon="2.42713">
        <ele>351</ele>
        <time>2021-08-29T12:12:28Z</time>
      </trkpt>
      <trkpt lat="44.5522" lon="2.42743">
        <ele>353</ele>
        <time>2021-08-29T12:12:36Z</time>
      </trkpt>
      <trkpt lat="44.55216" lon="2.42784">
        <ele>358</ele>
        <time>2021-08-29T12:12:48Z</time>
      </trkpt>
      <trkpt lat="44.55207" lon="2.42816">
        <ele>362</ele>
        <time>2021-08-29T12:12:58Z</time>
      </trkpt>
      <trkpt lat="44.55203" lon="2.42828">
        <ele>364</ele>
        <time>2021-08-29T12:13:02Z</time>
      </trkpt>
      <trkpt lat="44.55201" lon="2.42868">
        <ele>367</ele>
        <time>2021-08-29T12:13:12Z</time>
      </trkpt>
      <trkpt lat="44.55203" lon="2.42926">
        <ele>368</ele>
        <time>2021-08-29T12:13:28Z</time>
      </trkpt>
      <trkpt lat="44.55204" lon="2.42934">
        <ele>368</ele>
        <time>2021-08-29T12:13:30Z</time>
      </trkpt>
      <trkpt lat="44.55205" lon="2.42943">
        <ele>368</ele>
        <time>2021-08-29T12:13:33Z</time>
      </trkpt>
      <trkpt lat="44.55216" lon="2.43021">
        <ele>371</ele>
        <time>2021-08-29T12:13:55Z</time>
      </trkpt>
      <trkpt lat="44.55219" lon="2.43071">
        <ele>373</ele>
        <time>2021-08-29T12:14:09Z</time>
      </trkpt>
      <trkpt lat="44.55228" lon="2.431">
        <ele>374</ele>
        <time>2021-08-29T12:14:17Z</time>
      </trkpt>
      <trkpt lat="44.55235" lon="2.4311">
        <ele>375</ele>
        <time>2021-08-29T12:14:21Z</time>
      </trkpt>
      <trkpt lat="44.55239" lon="2.43114">
        <ele>376</ele>
        <time>2021-08-29T12:14:23Z</time>
      </trkpt>
      <trkpt lat="44.55248" lon="2.43123">
        <ele>377</ele>
        <time>2021-08-29T12:14:28Z</time>
      </trkpt>
      <trkpt lat="44.55304" lon="2.43169">
        <ele>381</ele>
        <time>2021-08-29T12:14:59Z</time>
      </trkpt>
      <trkpt lat="44.55309" lon="2.43173">
        <ele>382</ele>
        <time>2021-08-29T12:15:03Z</time>
      </trkpt>
      <trkpt lat="44.55317" lon="2.43187">
        <ele>384</ele>
        <time>2021-08-29T12:15:10Z</time>
      </trkpt>
      <trkpt lat="44.55323" lon="2.43213">
        <ele>386</ele>
        <time>2021-08-29T12:15:19Z</time>
      </trkpt>
      <trkpt lat="44.55324" lon="2.43222">
        <ele>385</ele>
        <time>2021-08-29T12:15:22Z</time>
      </trkpt>
      <trkpt lat="44.55322" lon="2.43238">
        <ele>386</ele>
        <time>2021-08-29T12:15:28Z</time>
      </trkpt>
      <trkpt lat="44.55315" lon="2.43261">
        <ele>388</ele>
        <time>2021-08-29T12:15:37Z</time>
      </trkpt>
      <trkpt lat="44.55291" lon="2.43307">
        <ele>395</ele>
        <time>2021-08-29T12:15:57Z</time>
      </trkpt>
      <trkpt lat="44.55288" lon="2.43314">
        <ele>395</ele>
        <time>2021-08-29T12:16:00Z</time>
      </trkpt>
      <trkpt lat="44.55282" lon="2.43331">
        <ele>396</ele>
        <time>2021-08-29T12:16:06Z</time>
      </trkpt>
      <trkpt lat="44.55277" lon="2.43345">
        <ele>398</ele>
        <time>2021-08-29T12:16:12Z</time>
      </trkpt>
      <trkpt lat="44.5528" lon="2.43362">
        <ele>399</ele>
        <time>2021-08-29T12:16:18Z</time>
      </trkpt>
      <trkpt lat="44.55286" lon="2.43374">
        <ele>401</ele>
        <time>2021-08-29T12:16:23Z</time>
      </trkpt>
      <trkpt lat="44.55295" lon="2.43383">
        <ele>402</ele>
        <time>2021-08-29T12:16:28Z</time>
      </trkpt>
      <trkpt lat="44.55308" lon="2.4339">
        <ele>404</ele>
        <time>2021-08-29T12:16:34Z</time>
      </trkpt>
      <trkpt lat="44.55313" lon="2.43394">
        <ele>404</ele>
        <time>2021-08-29T12:16:37Z</time>
      </trkpt>
      <trkpt lat="44.55318" lon="2.43398">
        <ele>403</ele>
        <time>2021-08-29T12:16:40Z</time>
      </trkpt>
      <trkpt lat="44.55323" lon="2.43399">
        <ele>404</ele>
        <time>2021-08-29T12:17:16Z</time>
      </trkpt>
      <trkpt lat="44.55338" lon="2.43407">
        <ele>407</ele>
        <time>2021-08-29T12:17:22Z</time>
      </trkpt>
      <trkpt lat="44.55343" lon="2.43409">
        <ele>407</ele>
        <time>2021-08-29T12:17:24Z</time>
      </trkpt>
      <trkpt lat="44.55363" lon="2.43422">
        <ele>406</ele>
        <time>2021-08-29T12:17:32Z</time>
      </trkpt>
      <trkpt lat="44.55368" lon="2.43426">
        <ele>406</ele>
        <time>2021-08-29T12:17:34Z</time>
      </trkpt>
      <trkpt lat="44.55419" lon="2.43461">
        <ele>407</ele>
        <time>2021-08-29T12:17:54Z</time>
      </trkpt>
      <trkpt lat="44.5544" lon="2.43478">
        <ele>406</ele>
        <time>2021-08-29T12:18:03Z</time>
      </trkpt>
      <trkpt lat="44.55458" lon="2.43489">
        <ele>403</ele>
        <time>2021-08-29T12:18:10Z</time>
      </trkpt>
      <trkpt lat="44.55467" lon="2.43495">
        <ele>403</ele>
        <time>2021-08-29T12:18:14Z</time>
      </trkpt>
      <trkpt lat="44.55494" lon="2.43513">
        <ele>398</ele>
        <time>2021-08-29T12:18:24Z</time>
      </trkpt>
      <trkpt lat="44.55501" lon="2.4352">
        <ele>398</ele>
        <time>2021-08-29T12:18:27Z</time>
      </trkpt>
      <trkpt lat="44.55505" lon="2.43534">
        <ele>398</ele>
        <time>2021-08-29T12:18:30Z</time>
      </trkpt>
      <trkpt lat="44.55506" lon="2.4355">
        <ele>399</ele>
        <time>2021-08-29T12:18:33Z</time>
      </trkpt>
      <trkpt lat="44.55501" lon="2.4356">
        <ele>401</ele>
        <time>2021-08-29T12:18:36Z</time>
      </trkpt>
      <trkpt lat="44.55496" lon="2.43563">
        <ele>401</ele>
        <time>2021-08-29T12:18:38Z</time>
      </trkpt>
      <trkpt lat="44.55441" lon="2.4357">
        <ele>418</ele>
        <time>2021-08-29T12:18:58Z</time>
      </trkpt>
      <trkpt lat="44.5536" lon="2.43591">
        <ele>431</ele>
        <time>2021-08-29T12:19:26Z</time>
      </trkpt>
      <trkpt lat="44.55355" lon="2.43593">
        <ele>431</ele>
        <time>2021-08-29T12:19:28Z</time>
      </trkpt>
      <trkpt lat="44.55275" lon="2.43618">
        <ele>435</ele>
        <time>2021-08-29T12:19:58Z</time>
      </trkpt>
      <trkpt lat="44.5527" lon="2.43619">
        <ele>436</ele>
        <time>2021-08-29T12:20:00Z</time>
      </trkpt>
      <trkpt lat="44.55263" lon="2.43618">
        <ele>437</ele>
        <time>2021-08-29T12:20:03Z</time>
      </trkpt>
      <trkpt lat="44.55242" lon="2.43625">
        <ele>441</ele>
        <time>2021-08-29T12:20:11Z</time>
      </trkpt>
      <trkpt lat="44.55237" lon="2.43628">
        <ele>442</ele>
        <time>2021-08-29T12:20:13Z</time>
      </trkpt>
      <trkpt lat="44.55226" lon="2.43644">
        <ele>443</ele>
        <time>2021-08-29T12:20:19Z</time>
      </trkpt>
      <trkpt lat="44.55221" lon="2.43663">
        <ele>444</ele>
        <time>2021-08-29T12:20:25Z</time>
      </trkpt>
      <trkpt lat="44.55211" lon="2.43723">
        <ele>445</ele>
        <time>2021-08-29T12:20:43Z</time>
      </trkpt>
      <trkpt lat="44.55214" lon="2.43764">
        <ele>445</ele>
        <time>2021-08-29T12:20:55Z</time>
      </trkpt>
      <trkpt lat="44.5522" lon="2.4382">
        <ele>450</ele>
        <time>2021-08-29T12:21:14Z</time>
      </trkpt>
      <trkpt lat="44.55222" lon="2.43877">
        <ele>453</ele>
        <time>2021-08-29T12:21:31Z</time>
      </trkpt>
      <trkpt lat="44.55221" lon="2.43883">
        <ele>453</ele>
        <time>2021-08-29T12:21:33Z</time>
      </trkpt>
      <trkpt lat="44.5522" lon="2.43896">
        <ele>453</ele>
        <time>2021-08-29T12:21:37Z</time>
      </trkpt>
      <trkpt lat="44.55204" lon="2.43995">
        <ele>459</ele>
        <time>2021-08-29T12:22:09Z</time>
      </trkpt>
      <trkpt lat="44.55201" lon="2.44033">
        <ele>462</ele>
        <time>2021-08-29T12:22:21Z</time>
      </trkpt>
      <trkpt lat="44.55207" lon="2.44063">
        <ele>464</ele>
        <time>2021-08-29T12:22:30Z</time>
      </trkpt>
      <trkpt lat="44.55209" lon="2.44069">
        <ele>464</ele>
        <time>2021-08-29T12:22:32Z</time>
      </trkpt>
      <trkpt lat="44.55217" lon="2.44086">
        <ele>464</ele>
        <time>2021-08-29T12:22:38Z</time>
      </trkpt>
      <trkpt lat="44.55229" lon="2.44101">
        <ele>464</ele>
        <time>2021-08-29T12:22:45Z</time>
      </trkpt>
      <trkpt lat="44.55242" lon="2.44108">
        <ele>464</ele>
        <time>2021-08-29T12:22:51Z</time>
      </trkpt>
      <trkpt lat="44.553" lon="2.4412">
        <ele>468</ele>
        <time>2021-08-29T12:23:19Z</time>
      </trkpt>
      <trkpt lat="44.55306" lon="2.4412">
        <ele>468</ele>
        <time>2021-08-29T12:23:21Z</time>
      </trkpt>
      <trkpt lat="44.55311" lon="2.4412">
        <ele>468</ele>
        <time>2021-08-29T12:23:23Z</time>
      </trkpt>
      <trkpt lat="44.55317" lon="2.4412">
        <ele>469</ele>
        <time>2021-08-29T12:23:25Z</time>
      </trkpt>
      <trkpt lat="44.55321" lon="2.44119">
        <ele>469</ele>
        <time>2021-08-29T12:23:27Z</time>
      </trkpt>
      <trkpt lat="44.55326" lon="2.44119">
        <ele>469</ele>
        <time>2021-08-29T12:23:29Z</time>
      </trkpt>
      <trkpt lat="44.55332" lon="2.44119">
        <ele>470</ele>
        <time>2021-08-29T12:23:32Z</time>
      </trkpt>
      <trkpt lat="44.55338" lon="2.44119">
        <ele>470</ele>
        <time>2021-08-29T12:23:35Z</time>
      </trkpt>
      <trkpt lat="44.55343" lon="2.44117">
        <ele>470</ele>
        <time>2021-08-29T12:23:37Z</time>
      </trkpt>
      <trkpt lat="44.55374" lon="2.44099">
        <ele>475</ele>
        <time>2021-08-29T12:23:52Z</time>
      </trkpt>
      <trkpt lat="44.55436" lon="2.44152">
        <ele>487</ele>
        <time>2021-08-29T12:24:23Z</time>
      </trkpt>
      <trkpt lat="44.55491" lon="2.44208">
        <ele>488</ele>
        <time>2021-08-29T12:24:53Z</time>
      </trkpt>
      <trkpt lat="44.55554" lon="2.44268">
        <ele>482</ele>
        <time>2021-08-29T12:25:25Z</time>
      </trkpt>
      <trkpt lat="44.55564" lon="2.44293">
        <ele>485</ele>
        <time>2021-08-29T12:25:34Z</time>
      </trkpt>
      <trkpt lat="44.5556" lon="2.44326">
        <ele>488</ele>
        <time>2021-08-29T12:25:44Z</time>
      </trkpt>
      <trkpt lat="44.55505" lon="2.44381">
        <ele>487</ele>
        <time>2021-08-29T12:26:15Z</time>
      </trkpt>
      <trkpt lat="44.55469" lon="2.44449">
        <ele>493</ele>
        <time>2021-08-29T12:26:43Z</time>
      </trkpt>
      <trkpt lat="44.55455" lon="2.44535">
        <ele>501</ele>
        <time>2021-08-29T12:27:11Z</time>
      </trkpt>
      <trkpt lat="44.55433" lon="2.44553">
        <ele>504</ele>
        <time>2021-08-29T12:27:21Z</time>
      </trkpt>
      <trkpt lat="44.55397" lon="2.44569">
        <ele>509</ele>
        <time>2021-08-29T12:27:37Z</time>
      </trkpt>
      <trkpt lat="44.5537" lon="2.44594">
        <ele>511</ele>
        <time>2021-08-29T12:27:49Z</time>
      </trkpt>
      <trkpt lat="44.55335" lon="2.44632">
        <ele>519</ele>
        <time>2021-08-29T12:28:07Z</time>
      </trkpt>
      <trkpt lat="44.55331" lon="2.44645">
        <ele>520</ele>
        <time>2021-08-29T12:28:11Z</time>
      </trkpt>
      <trkpt lat="44.55329" lon="2.44659">
        <ele>520</ele>
        <time>2021-08-29T12:28:15Z</time>
      </trkpt>
      <trkpt lat="44.55332" lon="2.44674">
        <ele>521</ele>
        <time>2021-08-29T12:28:20Z</time>
      </trkpt>
      <trkpt lat="44.55336" lon="2.44686">
        <ele>521</ele>
        <time>2021-08-29T12:28:24Z</time>
      </trkpt>
      <trkpt lat="44.55345" lon="2.44698">
        <ele>521</ele>
        <time>2021-08-29T12:28:30Z</time>
      </trkpt>
      <trkpt lat="44.55406" lon="2.44751">
        <ele>525</ele>
        <time>2021-08-29T12:29:02Z</time>
      </trkpt>
      <trkpt lat="44.5543" lon="2.44777">
        <ele>523</ele>
        <time>2021-08-29T12:29:14Z</time>
      </trkpt>
      <trkpt lat="44.55441" lon="2.44794">
        <ele>522</ele>
        <time>2021-08-29T12:29:21Z</time>
      </trkpt>
      <trkpt lat="44.55447" lon="2.44808">
        <ele>521</ele>
        <time>2021-08-29T12:29:26Z</time>
      </trkpt>
      <trkpt lat="44.55449" lon="2.44821">
        <ele>522</ele>
        <time>2021-08-29T12:29:30Z</time>
      </trkpt>
      <trkpt lat="44.55448" lon="2.44842">
        <ele>524</ele>
        <time>2021-08-29T12:29:36Z</time>
      </trkpt>
      <trkpt lat="44.55439" lon="2.44869">
        <ele>524</ele>
        <time>2021-08-29T12:29:45Z</time>
      </trkpt>
      <trkpt lat="44.55398" lon="2.44929">
        <ele>532</ele>
        <time>2021-08-29T12:30:11Z</time>
      </trkpt>
      <trkpt lat="44.55371" lon="2.44959">
        <ele>536</ele>
        <time>2021-08-29T12:30:27Z</time>
      </trkpt>
      <trkpt lat="44.55344" lon="2.44992">
        <ele>542</ele>
        <time>2021-08-29T12:30:42Z</time>
      </trkpt>
      <trkpt lat="44.5532" lon="2.45058">
        <ele>543</ele>
        <time>2021-08-29T12:31:05Z</time>
      </trkpt>
      <trkpt lat="44.55313" lon="2.45092">
        <ele>545</ele>
        <time>2021-08-29T12:31:16Z</time>
      </trkpt>
      <trkpt lat="44.55311" lon="2.45102">
        <ele>546</ele>
        <time>2021-08-29T12:31:19Z</time>
      </trkpt>
      <trkpt lat="44.55311" lon="2.45109">
        <ele>547</ele>
        <time>2021-08-29T12:31:21Z</time>
      </trkpt>
      <trkpt lat="44.55306" lon="2.45212">
        <ele>556</ele>
        <time>2021-08-29T12:31:53Z</time>
      </trkpt>
      <trkpt lat="44.55305" lon="2.45325">
        <ele>564</ele>
        <time>2021-08-29T12:32:25Z</time>
      </trkpt>
      <trkpt lat="44.55298" lon="2.45411">
        <ele>569</ele>
        <time>2021-08-29T12:32:49Z</time>
      </trkpt>
      <trkpt lat="44.55298" lon="2.45465">
        <ele>572</ele>
        <time>2021-08-29T12:33:03Z</time>
      </trkpt>
      <trkpt lat="44.55291" lon="2.45493">
        <ele>572</ele>
        <time>2021-08-29T12:33:11Z</time>
      </trkpt>
      <trkpt lat="44.55276" lon="2.45524">
        <ele>574</ele>
        <time>2021-08-29T12:33:21Z</time>
      </trkpt>
      <trkpt lat="44.55236" lon="2.45578">
        <ele>577</ele>
        <time>2021-08-29T12:33:43Z</time>
      </trkpt>
      <trkpt lat="44.55227" lon="2.45585">
        <ele>577</ele>
        <time>2021-08-29T12:33:47Z</time>
      </trkpt>
      <trkpt lat="44.55186" lon="2.45598">
        <ele>575</ele>
        <time>2021-08-29T12:34:03Z</time>
      </trkpt>
      <trkpt lat="44.55177" lon="2.45606">
        <ele>574</ele>
        <time>2021-08-29T12:34:07Z</time>
      </trkpt>
      <trkpt lat="44.55165" lon="2.45622">
        <ele>573</ele>
        <time>2021-08-29T12:34:13Z</time>
      </trkpt>
      <trkpt lat="44.5516" lon="2.45635">
        <ele>573</ele>
        <time>2021-08-29T12:34:17Z</time>
      </trkpt>
      <trkpt lat="44.55157" lon="2.45659">
        <ele>573</ele>
        <time>2021-08-29T12:34:23Z</time>
      </trkpt>
      <trkpt lat="44.5516" lon="2.45711">
        <ele>575</ele>
        <time>2021-08-29T12:34:37Z</time>
      </trkpt>
      <trkpt lat="44.55163" lon="2.45733">
        <ele>576</ele>
        <time>2021-08-29T12:34:43Z</time>
      </trkpt>
      <trkpt lat="44.55168" lon="2.45747">
        <ele>576</ele>
        <time>2021-08-29T12:34:47Z</time>
      </trkpt>
      <trkpt lat="44.55176" lon="2.4577">
        <ele>576</ele>
        <time>2021-08-29T12:34:53Z</time>
      </trkpt>
      <trkpt lat="44.55179" lon="2.45778">
        <ele>577</ele>
        <time>2021-08-29T12:34:55Z</time>
      </trkpt>
      <trkpt lat="44.55181" lon="2.45786">
        <ele>577</ele>
        <time>2021-08-29T12:34:57Z</time>
      </trkpt>
      <trkpt lat="44.55182" lon="2.45803">
        <ele>577</ele>
        <time>2021-08-29T12:35:01Z</time>
      </trkpt>
      <trkpt lat="44.55181" lon="2.4581">
        <ele>577</ele>
        <time>2021-08-29T12:35:03Z</time>
      </trkpt>
      <trkpt lat="44.55171" lon="2.45829">
        <ele>575</ele>
        <time>2021-08-29T12:35:09Z</time>
      </trkpt>
      <trkpt lat="44.55135" lon="2.45875">
        <ele>580</ele>
        <time>2021-08-29T12:35:25Z</time>
      </trkpt>
      <trkpt lat="44.55125" lon="2.45897">
        <ele>582</ele>
        <time>2021-08-29T12:35:31Z</time>
      </trkpt>
      <trkpt lat="44.5512" lon="2.45912">
        <ele>582</ele>
        <time>2021-08-29T12:35:35Z</time>
      </trkpt>
      <trkpt lat="44.55119" lon="2.45928">
        <ele>583</ele>
        <time>2021-08-29T12:35:39Z</time>
      </trkpt>
      <trkpt lat="44.55124" lon="2.4595">
        <ele>585</ele>
        <time>2021-08-29T12:35:45Z</time>
      </trkpt>
      <trkpt lat="44.55129" lon="2.45963">
        <ele>586</ele>
        <time>2021-08-29T12:35:49Z</time>
      </trkpt>
      <trkpt lat="44.55143" lon="2.46012">
        <ele>588</ele>
        <time>2021-08-29T12:36:03Z</time>
      </trkpt>
      <trkpt lat="44.55182" lon="2.46078">
        <ele>588</ele>
        <time>2021-08-29T12:36:25Z</time>
      </trkpt>
      <trkpt lat="44.55246" lon="2.46161">
        <ele>588</ele>
        <time>2021-08-29T12:36:56Z</time>
      </trkpt>
      <trkpt lat="44.5529" lon="2.46208">
        <ele>590</ele>
        <time>2021-08-29T12:37:14Z</time>
      </trkpt>
      <trkpt lat="44.55305" lon="2.46228">
        <ele>590</ele>
        <time>2021-08-29T12:37:22Z</time>
      </trkpt>
      <trkpt lat="44.55321" lon="2.46249">
        <ele>590</ele>
        <time>2021-08-29T12:37:30Z</time>
      </trkpt>
      <trkpt lat="44.55383" lon="2.46336">
        <ele>597</ele>
        <time>2021-08-29T12:38:00Z</time>
      </trkpt>
      <trkpt lat="44.55394" lon="2.46365">
        <ele>597</ele>
        <time>2021-08-29T12:38:06Z</time>
      </trkpt>
      <trkpt lat="44.55397" lon="2.46398">
        <ele>600</ele>
        <time>2021-08-29T12:38:16Z</time>
      </trkpt>
      <trkpt lat="44.55392" lon="2.4642">
        <ele>601</ele>
        <time>2021-08-29T12:38:23Z</time>
      </trkpt>
      <trkpt lat="44.55392" lon="2.46419">
        <ele>600</ele>
        <time>2021-08-29T12:40:12Z</time>
      </trkpt>
      <trkpt lat="44.55394" lon="2.46426">
        <ele>601</ele>
        <time>2021-08-29T12:40:24Z</time>
      </trkpt>
      <trkpt lat="44.55353" lon="2.46541">
        <ele>606</ele>
        <time>2021-08-29T12:40:50Z</time>
      </trkpt>
      <trkpt lat="44.55348" lon="2.46639">
        <ele>607</ele>
        <time>2021-08-29T12:41:06Z</time>
      </trkpt>
      <trkpt lat="44.55348" lon="2.4685">
        <ele>604</ele>
        <time>2021-08-29T12:41:36Z</time>
      </trkpt>
      <trkpt lat="44.55344" lon="2.47065">
        <ele>606</ele>
        <time>2021-08-29T12:42:07Z</time>
      </trkpt>
      <trkpt lat="44.55343" lon="2.47262">
        <ele>607</ele>
        <time>2021-08-29T12:42:38Z</time>
      </trkpt>
      <trkpt lat="44.55341" lon="2.4744">
        <ele>607</ele>
        <time>2021-08-29T12:43:08Z</time>
      </trkpt>
      <trkpt lat="44.55342" lon="2.47497">
        <ele>609</ele>
        <time>2021-08-29T12:43:18Z</time>
      </trkpt>
      <trkpt lat="44.55351" lon="2.47531">
        <ele>609</ele>
        <time>2021-08-29T12:43:24Z</time>
      </trkpt>
      <trkpt lat="44.55425" lon="2.47687">
        <ele>608</ele>
        <time>2021-08-29T12:43:48Z</time>
      </trkpt>
      <trkpt lat="44.55428" lon="2.47705">
        <ele>607</ele>
        <time>2021-08-29T12:43:50Z</time>
      </trkpt>
      <trkpt lat="44.55428" lon="2.47743">
        <ele>605</ele>
        <time>2021-08-29T12:43:54Z</time>
      </trkpt>
      <trkpt lat="44.55375" lon="2.48009">
        <ele>591</ele>
        <time>2021-08-29T12:44:22Z</time>
      </trkpt>
      <trkpt lat="44.55396" lon="2.48211">
        <ele>596</ele>
        <time>2021-08-29T12:44:53Z</time>
      </trkpt>
      <trkpt lat="44.5542" lon="2.48359">
        <ele>595</ele>
        <time>2021-08-29T12:45:18Z</time>
      </trkpt>
      <trkpt lat="44.55461" lon="2.48494">
        <ele>595</ele>
        <time>2021-08-29T12:45:36Z</time>
      </trkpt>
      <trkpt lat="44.55493" lon="2.48569">
        <ele>598</ele>
        <time>2021-08-29T12:45:51Z</time>
      </trkpt>
      <trkpt lat="44.55496" lon="2.48578">
        <ele>599</ele>
        <time>2021-08-29T12:45:53Z</time>
      </trkpt>
      <trkpt lat="44.55499" lon="2.48594">
        <ele>600</ele>
        <time>2021-08-29T12:45:57Z</time>
      </trkpt>
      <trkpt lat="44.55505" lon="2.4864">
        <ele>603</ele>
        <time>2021-08-29T12:46:09Z</time>
      </trkpt>
      <trkpt lat="44.55505" lon="2.48661">
        <ele>603</ele>
        <time>2021-08-29T12:46:15Z</time>
      </trkpt>
      <trkpt lat="44.55511" lon="2.48753">
        <ele>602</ele>
        <time>2021-08-29T12:46:42Z</time>
      </trkpt>
      <trkpt lat="44.55511" lon="2.4876">
        <ele>602</ele>
        <time>2021-08-29T12:46:57Z</time>
      </trkpt>
      <trkpt lat="44.55506" lon="2.48767">
        <ele>602</ele>
        <time>2021-08-29T12:47:00Z</time>
      </trkpt>
      <trkpt lat="44.55501" lon="2.48769">
        <ele>602</ele>
        <time>2021-08-29T12:47:02Z</time>
      </trkpt>
      <trkpt lat="44.55492" lon="2.48769">
        <ele>602</ele>
        <time>2021-08-29T12:47:06Z</time>
      </trkpt>
      <trkpt lat="44.55492" lon="2.48771">
        <ele>602</ele>
        <time>2021-08-29T12:49:21Z</time>
      </trkpt>
      <trkpt lat="44.55502" lon="2.4877">
        <ele>604</ele>
        <time>2021-08-29T12:49:31Z</time>
      </trkpt>
      <trkpt lat="44.55502" lon="2.48768">
        <ele>607</ele>
        <time>2021-08-29T12:50:09Z</time>
      </trkpt>
      <trkpt lat="44.55506" lon="2.48769">
        <ele>610</ele>
        <time>2021-08-29T12:55:21Z</time>
      </trkpt>
      <trkpt lat="44.55509" lon="2.48775">
        <ele>610</ele>
        <time>2021-08-29T12:55:24Z</time>
      </trkpt>
      <trkpt lat="44.55512" lon="2.48782">
        <ele>608</ele>
        <time>2021-08-29T12:55:28Z</time>
      </trkpt>
      <trkpt lat="44.55513" lon="2.48798">
        <ele>608</ele>
        <time>2021-08-29T12:55:33Z</time>
      </trkpt>
      <trkpt lat="44.55514" lon="2.48807">
        <ele>608</ele>
        <time>2021-08-29T12:55:35Z</time>
      </trkpt>
      <trkpt lat="44.55515" lon="2.48818">
        <ele>608</ele>
        <time>2021-08-29T12:55:37Z</time>
      </trkpt>
      <trkpt lat="44.55592" lon="2.48971">
        <ele>603</ele>
        <time>2021-08-29T12:56:07Z</time>
      </trkpt>
      <trkpt lat="44.55658" lon="2.49054">
        <ele>602</ele>
        <time>2021-08-29T12:56:24Z</time>
      </trkpt>
      <trkpt lat="44.55813" lon="2.49155">
        <ele>594</ele>
        <time>2021-08-29T12:56:55Z</time>
      </trkpt>
      <trkpt lat="44.5587" lon="2.49192">
        <ele>591</ele>
        <time>2021-08-29T12:57:03Z</time>
      </trkpt>
      <trkpt lat="44.55887" lon="2.49215">
        <ele>590</ele>
        <time>2021-08-29T12:57:06Z</time>
      </trkpt>
      <trkpt lat="44.55962" lon="2.49368">
        <ele>585</ele>
        <time>2021-08-29T12:57:22Z</time>
      </trkpt>
      <trkpt lat="44.56066" lon="2.49525">
        <ele>583</ele>
        <time>2021-08-29T12:57:53Z</time>
      </trkpt>
      <trkpt lat="44.56123" lon="2.4963">
        <ele>582</ele>
        <time>2021-08-29T12:58:11Z</time>
      </trkpt>
      <trkpt lat="44.5619" lon="2.49784">
        <ele>586</ele>
        <time>2021-08-29T12:58:43Z</time>
      </trkpt>
      <trkpt lat="44.56208" lon="2.49853">
        <ele>588</ele>
        <time>2021-08-29T12:58:59Z</time>
      </trkpt>
      <trkpt lat="44.56213" lon="2.50002">
        <ele>591</ele>
        <time>2021-08-29T12:59:31Z</time>
      </trkpt>
      <trkpt lat="44.56224" lon="2.50113">
        <ele>595</ele>
        <time>2021-08-29T12:59:55Z</time>
      </trkpt>
      <trkpt lat="44.56273" lon="2.50263">
        <ele>595</ele>
        <time>2021-08-29T13:00:25Z</time>
      </trkpt>
      <trkpt lat="44.56364" lon="2.50412">
        <ele>592</ele>
        <time>2021-08-29T13:00:56Z</time>
      </trkpt>
      <trkpt lat="44.5644" lon="2.50523">
        <ele>593</ele>
        <time>2021-08-29T13:01:28Z</time>
      </trkpt>
      <trkpt lat="44.56504" lon="2.50637">
        <ele>593</ele>
        <time>2021-08-29T13:01:58Z</time>
      </trkpt>
      <trkpt lat="44.56523" lon="2.50673">
        <ele>594</ele>
        <time>2021-08-29T13:02:06Z</time>
      </trkpt>
      <trkpt lat="44.5656" lon="2.50773">
        <ele>600</ele>
        <time>2021-08-29T13:02:36Z</time>
      </trkpt>
      <trkpt lat="44.56586" lon="2.50824">
        <ele>601</ele>
        <time>2021-08-29T13:02:50Z</time>
      </trkpt>
      <trkpt lat="44.56627" lon="2.50871">
        <ele>601</ele>
        <time>2021-08-29T13:03:06Z</time>
      </trkpt>
      <trkpt lat="44.56674" lon="2.50908">
        <ele>601</ele>
        <time>2021-08-29T13:03:22Z</time>
      </trkpt>
      <trkpt lat="44.56759" lon="2.50957">
        <ele>602</ele>
        <time>2021-08-29T13:03:46Z</time>
      </trkpt>
      <trkpt lat="44.56853" lon="2.51061">
        <ele>601</ele>
        <time>2021-08-29T13:04:16Z</time>
      </trkpt>
      <trkpt lat="44.56918" lon="2.51142">
        <ele>603</ele>
        <time>2021-08-29T13:04:42Z</time>
      </trkpt>
      <trkpt lat="44.56977" lon="2.51241">
        <ele>610</ele>
        <time>2021-08-29T13:05:14Z</time>
      </trkpt>
      <trkpt lat="44.56999" lon="2.51277">
        <ele>613</ele>
        <time>2021-08-29T13:05:28Z</time>
      </trkpt>
      <trkpt lat="44.57026" lon="2.51305">
        <ele>613</ele>
        <time>2021-08-29T13:05:38Z</time>
      </trkpt>
      <trkpt lat="44.57058" lon="2.51321">
        <ele>613</ele>
        <time>2021-08-29T13:05:46Z</time>
      </trkpt>
      <trkpt lat="44.57094" lon="2.51328">
        <ele>613</ele>
        <time>2021-08-29T13:05:54Z</time>
      </trkpt>
      <trkpt lat="44.57135" lon="2.51324">
        <ele>612</ele>
        <time>2021-08-29T13:06:04Z</time>
      </trkpt>
      <trkpt lat="44.5716" lon="2.51327">
        <ele>613</ele>
        <time>2021-08-29T13:06:10Z</time>
      </trkpt>
      <trkpt lat="44.57254" lon="2.51381">
        <ele>618</ele>
        <time>2021-08-29T13:06:40Z</time>
      </trkpt>
      <trkpt lat="44.57259" lon="2.51385">
        <ele>618</ele>
        <time>2021-08-29T13:06:42Z</time>
      </trkpt>
      <trkpt lat="44.57263" lon="2.51394">
        <ele>618</ele>
        <time>2021-08-29T13:06:45Z</time>
      </trkpt>
      <trkpt lat="44.57264" lon="2.51401">
        <ele>619</ele>
        <time>2021-08-29T13:06:47Z</time>
      </trkpt>
      <trkpt lat="44.57262" lon="2.5142">
        <ele>620</ele>
        <time>2021-08-29T13:06:51Z</time>
      </trkpt>
      <trkpt lat="44.57256" lon="2.51438">
        <ele>622</ele>
        <time>2021-08-29T13:06:55Z</time>
      </trkpt>
      <trkpt lat="44.57218" lon="2.51492">
        <ele>624</ele>
        <time>2021-08-29T13:07:08Z</time>
      </trkpt>
      <trkpt lat="44.57144" lon="2.5158">
        <ele>622</ele>
        <time>2021-08-29T13:07:28Z</time>
      </trkpt>
      <trkpt lat="44.57124" lon="2.51594">
        <ele>621</ele>
        <time>2021-08-29T13:07:32Z</time>
      </trkpt>
      <trkpt lat="44.57113" lon="2.51598">
        <ele>621</ele>
        <time>2021-08-29T13:07:34Z</time>
      </trkpt>
      <trkpt lat="44.57098" lon="2.51595">
        <ele>621</ele>
        <time>2021-08-29T13:07:37Z</time>
      </trkpt>
      <trkpt lat="44.57065" lon="2.51576">
        <ele>620</ele>
        <time>2021-08-29T13:07:44Z</time>
      </trkpt>
      <trkpt lat="44.57054" lon="2.51574">
        <ele>619</ele>
        <time>2021-08-29T13:07:46Z</time>
      </trkpt>
      <trkpt lat="44.57038" lon="2.51576">
        <ele>618</ele>
        <time>2021-08-29T13:07:49Z</time>
      </trkpt>
      <trkpt lat="44.56994" lon="2.51598">
        <ele>614</ele>
        <time>2021-08-29T13:07:57Z</time>
      </trkpt>
      <trkpt lat="44.56981" lon="2.51609">
        <ele>615</ele>
        <time>2021-08-29T13:08:00Z</time>
      </trkpt>
      <trkpt lat="44.56974" lon="2.5162">
        <ele>614</ele>
        <time>2021-08-29T13:08:02Z</time>
      </trkpt>
      <trkpt lat="44.56941" lon="2.51735">
        <ele>609</ele>
        <time>2021-08-29T13:08:14Z</time>
      </trkpt>
      <trkpt lat="44.56936" lon="2.51759">
        <ele>609</ele>
        <time>2021-08-29T13:08:16Z</time>
      </trkpt>
      <trkpt lat="44.56944" lon="2.51872">
        <ele>608</ele>
        <time>2021-08-29T13:08:26Z</time>
      </trkpt>
      <trkpt lat="44.56928" lon="2.51967">
        <ele>608</ele>
        <time>2021-08-29T13:08:36Z</time>
      </trkpt>
      <trkpt lat="44.56912" lon="2.52012">
        <ele>610</ele>
        <time>2021-08-29T13:08:42Z</time>
      </trkpt>
      <trkpt lat="44.56872" lon="2.52077">
        <ele>613</ele>
        <time>2021-08-29T13:08:54Z</time>
      </trkpt>
      <trkpt lat="44.56854" lon="2.521">
        <ele>613</ele>
        <time>2021-08-29T13:08:59Z</time>
      </trkpt>
      <trkpt lat="44.56808" lon="2.52134">
        <ele>609</ele>
        <time>2021-08-29T13:09:06Z</time>
      </trkpt>
      <trkpt lat="44.56776" lon="2.52145">
        <ele>607</ele>
        <time>2021-08-29T13:09:10Z</time>
      </trkpt>
      <trkpt lat="44.56741" lon="2.52174">
        <ele>606</ele>
        <time>2021-08-29T13:09:15Z</time>
      </trkpt>
      <trkpt lat="44.56702" lon="2.52218">
        <ele>604</ele>
        <time>2021-08-29T13:09:21Z</time>
      </trkpt>
      <trkpt lat="44.56692" lon="2.52237">
        <ele>603</ele>
        <time>2021-08-29T13:09:23Z</time>
      </trkpt>
      <trkpt lat="44.56681" lon="2.52273">
        <ele>602</ele>
        <time>2021-08-29T13:09:26Z</time>
      </trkpt>
      <trkpt lat="44.56667" lon="2.52389">
        <ele>600</ele>
        <time>2021-08-29T13:09:37Z</time>
      </trkpt>
      <trkpt lat="44.56655" lon="2.52419">
        <ele>600</ele>
        <time>2021-08-29T13:09:41Z</time>
      </trkpt>
      <trkpt lat="44.56568" lon="2.52526">
        <ele>601</ele>
        <time>2021-08-29T13:10:02Z</time>
      </trkpt>
      <trkpt lat="44.56523" lon="2.52571">
        <ele>600</ele>
        <time>2021-08-29T13:10:12Z</time>
      </trkpt>
      <trkpt lat="44.56496" lon="2.52585">
        <ele>599</ele>
        <time>2021-08-29T13:10:17Z</time>
      </trkpt>
      <trkpt lat="44.56423" lon="2.526">
        <ele>596</ele>
        <time>2021-08-29T13:10:28Z</time>
      </trkpt>
      <trkpt lat="44.56283" lon="2.52694">
        <ele>591</ele>
        <time>2021-08-29T13:10:46Z</time>
      </trkpt>
      <trkpt lat="44.56268" lon="2.52708">
        <ele>591</ele>
        <time>2021-08-29T13:10:48Z</time>
      </trkpt>
      <trkpt lat="44.56231" lon="2.52772">
        <ele>591</ele>
        <time>2021-08-29T13:10:57Z</time>
      </trkpt>
      <trkpt lat="44.56197" lon="2.52817">
        <ele>591</ele>
        <time>2021-08-29T13:11:05Z</time>
      </trkpt>
      <trkpt lat="44.56192" lon="2.52826">
        <ele>591</ele>
        <time>2021-08-29T13:11:07Z</time>
      </trkpt>
      <trkpt lat="44.56178" lon="2.5287">
        <ele>594</ele>
        <time>2021-08-29T13:11:14Z</time>
      </trkpt>
      <trkpt lat="44.56102" lon="2.53009">
        <ele>600</ele>
        <time>2021-08-29T13:11:45Z</time>
      </trkpt>
      <trkpt lat="44.56092" lon="2.53024">
        <ele>599</ele>
        <time>2021-08-29T13:11:48Z</time>
      </trkpt>
      <trkpt lat="44.56088" lon="2.53039">
        <ele>599</ele>
        <time>2021-08-29T13:11:50Z</time>
      </trkpt>
      <trkpt lat="44.56087" lon="2.53057">
        <ele>598</ele>
        <time>2021-08-29T13:11:52Z</time>
      </trkpt>
      <trkpt lat="44.56089" lon="2.53077">
        <ele>597</ele>
        <time>2021-08-29T13:11:54Z</time>
      </trkpt>
      <trkpt lat="44.56096" lon="2.53095">
        <ele>597</ele>
        <time>2021-08-29T13:11:56Z</time>
      </trkpt>
      <trkpt lat="44.56116" lon="2.5312">
        <ele>594</ele>
        <time>2021-08-29T13:12:00Z</time>
      </trkpt>
      <trkpt lat="44.56182" lon="2.53187">
        <ele>589</ele>
        <time>2021-08-29T13:12:10Z</time>
      </trkpt>
      <trkpt lat="44.56188" lon="2.53196">
        <ele>588</ele>
        <time>2021-08-29T13:12:11Z</time>
      </trkpt>
      <trkpt lat="44.56201" lon="2.53238">
        <ele>585</ele>
        <time>2021-08-29T13:12:15Z</time>
      </trkpt>
      <trkpt lat="44.56195" lon="2.53332">
        <ele>580</ele>
        <time>2021-08-29T13:12:23Z</time>
      </trkpt>
      <trkpt lat="44.56192" lon="2.53342">
        <ele>580</ele>
        <time>2021-08-29T13:12:24Z</time>
      </trkpt>
      <trkpt lat="44.56166" lon="2.53373">
        <ele>575</ele>
        <time>2021-08-29T13:12:28Z</time>
      </trkpt>
      <trkpt lat="44.56153" lon="2.5339">
        <ele>571</ele>
        <time>2021-08-29T13:12:30Z</time>
      </trkpt>
      <trkpt lat="44.56145" lon="2.53415">
        <ele>570</ele>
        <time>2021-08-29T13:12:32Z</time>
      </trkpt>
      <trkpt lat="44.56142" lon="2.53438">
        <ele>569</ele>
        <time>2021-08-29T13:12:34Z</time>
      </trkpt>
      <trkpt lat="44.56158" lon="2.53615">
        <ele>566</ele>
        <time>2021-08-29T13:12:51Z</time>
      </trkpt>
      <trkpt lat="44.56165" lon="2.53639">
        <ele>564</ele>
        <time>2021-08-29T13:12:57Z</time>
      </trkpt>
      <trkpt lat="44.56167" lon="2.53651">
        <ele>563</ele>
        <time>2021-08-29T13:12:59Z</time>
      </trkpt>
      <trkpt lat="44.56216" lon="2.53767">
        <ele>556</ele>
        <time>2021-08-29T13:13:16Z</time>
      </trkpt>
      <trkpt lat="44.5622" lon="2.53782">
        <ele>557</ele>
        <time>2021-08-29T13:13:18Z</time>
      </trkpt>
      <trkpt lat="44.5622" lon="2.53802">
        <ele>559</ele>
        <time>2021-08-29T13:13:21Z</time>
      </trkpt>
      <trkpt lat="44.5622" lon="2.53809">
        <ele>560</ele>
        <time>2021-08-29T13:13:22Z</time>
      </trkpt>
      <trkpt lat="44.5621" lon="2.53841">
        <ele>561</ele>
        <time>2021-08-29T13:13:31Z</time>
      </trkpt>
      <trkpt lat="44.56195" lon="2.53867">
        <ele>557</ele>
        <time>2021-08-29T13:13:41Z</time>
      </trkpt>
      <trkpt lat="44.56183" lon="2.53899">
        <ele>557</ele>
        <time>2021-08-29T13:13:47Z</time>
      </trkpt>
      <trkpt lat="44.56177" lon="2.53985">
        <ele>560</ele>
        <time>2021-08-29T13:14:00Z</time>
      </trkpt>
      <trkpt lat="44.56149" lon="2.54056">
        <ele>561</ele>
        <time>2021-08-29T13:14:15Z</time>
      </trkpt>
      <trkpt lat="44.56013" lon="2.54262">
        <ele>553</ele>
        <time>2021-08-29T13:14:42Z</time>
      </trkpt>
      <trkpt lat="44.55993" lon="2.54284">
        <ele>551</ele>
        <time>2021-08-29T13:14:48Z</time>
      </trkpt>
      <trkpt lat="44.55988" lon="2.54285">
        <ele>551</ele>
        <time>2021-08-29T13:15:26Z</time>
      </trkpt>
      <trkpt lat="44.55975" lon="2.54291">
        <ele>550</ele>
        <time>2021-08-29T13:15:31Z</time>
      </trkpt>
      <trkpt lat="44.55968" lon="2.54295">
        <ele>550</ele>
        <time>2021-08-29T13:15:33Z</time>
      </trkpt>
      <trkpt lat="44.55863" lon="2.54338">
        <ele>547</ele>
        <time>2021-08-29T13:15:55Z</time>
      </trkpt>
      <trkpt lat="44.55816" lon="2.54341">
        <ele>548</ele>
        <time>2021-08-29T13:16:05Z</time>
      </trkpt>
      <trkpt lat="44.55778" lon="2.54328">
        <ele>548</ele>
        <time>2021-08-29T13:16:13Z</time>
      </trkpt>
      <trkpt lat="44.55747" lon="2.54309">
        <ele>549</ele>
        <time>2021-08-29T13:16:20Z</time>
      </trkpt>
      <trkpt lat="44.55722" lon="2.54305">
        <ele>550</ele>
        <time>2021-08-29T13:16:25Z</time>
      </trkpt>
      <trkpt lat="44.55661" lon="2.54313">
        <ele>552</ele>
        <time>2021-08-29T13:16:38Z</time>
      </trkpt>
      <trkpt lat="44.55627" lon="2.54329">
        <ele>554</ele>
        <time>2021-08-29T13:16:46Z</time>
      </trkpt>
      <trkpt lat="44.55459" lon="2.5448">
        <ele>541</ele>
        <time>2021-08-29T13:17:14Z</time>
      </trkpt>
      <trkpt lat="44.5544" lon="2.54511">
        <ele>538</ele>
        <time>2021-08-29T13:17:17Z</time>
      </trkpt>
      <trkpt lat="44.55426" lon="2.5455">
        <ele>536</ele>
        <time>2021-08-29T13:17:20Z</time>
      </trkpt>
      <trkpt lat="44.55421" lon="2.54588">
        <ele>534</ele>
        <time>2021-08-29T13:17:23Z</time>
      </trkpt>
      <trkpt lat="44.55418" lon="2.54708">
        <ele>528</ele>
        <time>2021-08-29T13:17:33Z</time>
      </trkpt>
      <trkpt lat="44.55416" lon="2.54718">
        <ele>527</ele>
        <time>2021-08-29T13:17:34Z</time>
      </trkpt>
      <trkpt lat="44.55414" lon="2.54726">
        <ele>526</ele>
        <time>2021-08-29T13:17:35Z</time>
      </trkpt>
      <trkpt lat="44.5541" lon="2.54731">
        <ele>525</ele>
        <time>2021-08-29T13:17:36Z</time>
      </trkpt>
      <trkpt lat="44.55403" lon="2.54737">
        <ele>524</ele>
        <time>2021-08-29T13:17:38Z</time>
      </trkpt>
      <trkpt lat="44.55399" lon="2.54741">
        <ele>524</ele>
        <time>2021-08-29T13:17:41Z</time>
      </trkpt>
      <trkpt lat="44.55396" lon="2.54751">
        <ele>523</ele>
        <time>2021-08-29T13:17:44Z</time>
      </trkpt>
      <trkpt lat="44.55415" lon="2.54836">
        <ele>521</ele>
        <time>2021-08-29T13:17:59Z</time>
      </trkpt>
      <trkpt lat="44.55416" lon="2.54856">
        <ele>521</ele>
        <time>2021-08-29T13:18:02Z</time>
      </trkpt>
      <trkpt lat="44.55415" lon="2.5487">
        <ele>521</ele>
        <time>2021-08-29T13:18:04Z</time>
      </trkpt>
      <trkpt lat="44.55399" lon="2.54925">
        <ele>520</ele>
        <time>2021-08-29T13:18:13Z</time>
      </trkpt>
      <trkpt lat="44.55362" lon="2.55015">
        <ele>519</ele>
        <time>2021-08-29T13:18:27Z</time>
      </trkpt>
      <trkpt lat="44.55311" lon="2.55081">
        <ele>518</ele>
        <time>2021-08-29T13:18:41Z</time>
      </trkpt>
      <trkpt lat="44.55306" lon="2.55098">
        <ele>518</ele>
        <time>2021-08-29T13:18:45Z</time>
      </trkpt>
      <trkpt lat="44.55308" lon="2.55105">
        <ele>519</ele>
        <time>2021-08-29T13:19:14Z</time>
      </trkpt>
      <trkpt lat="44.55312" lon="2.55107">
        <ele>519</ele>
        <time>2021-08-29T13:19:16Z</time>
      </trkpt>
      <trkpt lat="44.55317" lon="2.55106">
        <ele>519</ele>
        <time>2021-08-29T13:19:19Z</time>
      </trkpt>
      <trkpt lat="44.55365" lon="2.55122">
        <ele>521</ele>
        <time>2021-08-29T13:19:36Z</time>
      </trkpt>
      <trkpt lat="44.55382" lon="2.55132">
        <ele>522</ele>
        <time>2021-08-29T13:19:42Z</time>
      </trkpt>
      <trkpt lat="44.55391" lon="2.55141">
        <ele>522</ele>
        <time>2021-08-29T13:19:46Z</time>
      </trkpt>
      <trkpt lat="44.55466" lon="2.55205">
        <ele>525</ele>
        <time>2021-08-29T13:20:16Z</time>
      </trkpt>
      <trkpt lat="44.55548" lon="2.55272">
        <ele>528</ele>
        <time>2021-08-29T13:20:48Z</time>
      </trkpt>
      <trkpt lat="44.55601" lon="2.55307">
        <ele>530</ele>
        <time>2021-08-29T13:21:06Z</time>
      </trkpt>
      <trkpt lat="44.55713" lon="2.55323">
        <ele>530</ele>
        <time>2021-08-29T13:21:36Z</time>
      </trkpt>
      <trkpt lat="44.5582" lon="2.55336">
        <ele>532</ele>
        <time>2021-08-29T13:22:08Z</time>
      </trkpt>
      <trkpt lat="44.55854" lon="2.55343">
        <ele>532</ele>
        <time>2021-08-29T13:22:18Z</time>
      </trkpt>
      <trkpt lat="44.55901" lon="2.5537">
        <ele>532</ele>
        <time>2021-08-29T13:22:37Z</time>
      </trkpt>
      <trkpt lat="44.55921" lon="2.55385">
        <ele>534</ele>
        <time>2021-08-29T13:22:46Z</time>
      </trkpt>
      <trkpt lat="44.56004" lon="2.55374">
        <ele>542</ele>
        <time>2021-08-29T13:23:18Z</time>
      </trkpt>
      <trkpt lat="44.56081" lon="2.55321">
        <ele>544</ele>
        <time>2021-08-29T13:23:48Z</time>
      </trkpt>
      <trkpt lat="44.56128" lon="2.55329">
        <ele>548</ele>
        <time>2021-08-29T13:24:02Z</time>
      </trkpt>
      <trkpt lat="44.56232" lon="2.55351">
        <ele>550</ele>
        <time>2021-08-29T13:24:34Z</time>
      </trkpt>
      <trkpt lat="44.56335" lon="2.55378">
        <ele>554</ele>
        <time>2021-08-29T13:25:04Z</time>
      </trkpt>
      <trkpt lat="44.56383" lon="2.55391">
        <ele>559</ele>
        <time>2021-08-29T13:25:18Z</time>
      </trkpt>
      <trkpt lat="44.56407" lon="2.554">
        <ele>562</ele>
        <time>2021-08-29T13:25:26Z</time>
      </trkpt>
      <trkpt lat="44.56412" lon="2.55404">
        <ele>562</ele>
        <time>2021-08-29T13:25:28Z</time>
      </trkpt>
      <trkpt lat="44.56416" lon="2.55408">
        <ele>563</ele>
        <time>2021-08-29T13:25:30Z</time>
      </trkpt>
      <trkpt lat="44.5648" lon="2.5545">
        <ele>567</ele>
        <time>2021-08-29T13:25:50Z</time>
      </trkpt>
      <trkpt lat="44.56567" lon="2.55484">
        <ele>571</ele>
        <time>2021-08-29T13:26:16Z</time>
      </trkpt>
      <trkpt lat="44.56599" lon="2.55514">
        <ele>574</ele>
        <time>2021-08-29T13:26:28Z</time>
      </trkpt>
      <trkpt lat="44.56617" lon="2.55526">
        <ele>574</ele>
        <time>2021-08-29T13:26:34Z</time>
      </trkpt>
      <trkpt lat="44.56715" lon="2.55538">
        <ele>579</ele>
        <time>2021-08-29T13:27:04Z</time>
      </trkpt>
      <trkpt lat="44.5678" lon="2.55442">
        <ele>570</ele>
        <time>2021-08-29T13:27:35Z</time>
      </trkpt>
      <trkpt lat="44.56849" lon="2.55333">
        <ele>575</ele>
        <time>2021-08-29T13:28:07Z</time>
      </trkpt>
      <trkpt lat="44.56946" lon="2.55304">
        <ele>580</ele>
        <time>2021-08-29T13:28:37Z</time>
      </trkpt>
      <trkpt lat="44.5705" lon="2.55289">
        <ele>585</ele>
        <time>2021-08-29T13:29:05Z</time>
      </trkpt>
      <trkpt lat="44.57088" lon="2.5529">
        <ele>588</ele>
        <time>2021-08-29T13:29:15Z</time>
      </trkpt>
      <trkpt lat="44.57153" lon="2.55318">
        <ele>590</ele>
        <time>2021-08-29T13:29:33Z</time>
      </trkpt>
      <trkpt lat="44.57181" lon="2.55334">
        <ele>591</ele>
        <time>2021-08-29T13:29:41Z</time>
      </trkpt>
      <trkpt lat="44.57205" lon="2.55346">
        <ele>591</ele>
        <time>2021-08-29T13:29:47Z</time>
      </trkpt>
      <trkpt lat="44.57222" lon="2.55349">
        <ele>592</ele>
        <time>2021-08-29T13:29:51Z</time>
      </trkpt>
      <trkpt lat="44.57239" lon="2.55345">
        <ele>592</ele>
        <time>2021-08-29T13:29:55Z</time>
      </trkpt>
      <trkpt lat="44.57253" lon="2.55335">
        <ele>592</ele>
        <time>2021-08-29T13:29:59Z</time>
      </trkpt>
      <trkpt lat="44.57264" lon="2.55321">
        <ele>592</ele>
        <time>2021-08-29T13:30:03Z</time>
      </trkpt>
      <trkpt lat="44.57275" lon="2.55294">
        <ele>592</ele>
        <time>2021-08-29T13:30:09Z</time>
      </trkpt>
      <trkpt lat="44.57283" lon="2.55263">
        <ele>591</ele>
        <time>2021-08-29T13:30:15Z</time>
      </trkpt>
      <trkpt lat="44.57286" lon="2.55252">
        <ele>591</ele>
        <time>2021-08-29T13:30:17Z</time>
      </trkpt>
      <trkpt lat="44.57292" lon="2.55243">
        <ele>591</ele>
        <time>2021-08-29T13:30:19Z</time>
      </trkpt>
      <trkpt lat="44.573" lon="2.55238">
        <ele>592</ele>
        <time>2021-08-29T13:30:21Z</time>
      </trkpt>
      <trkpt lat="44.57309" lon="2.55236">
        <ele>592</ele>
        <time>2021-08-29T13:30:23Z</time>
      </trkpt>
      <trkpt lat="44.5733" lon="2.55245">
        <ele>594</ele>
        <time>2021-08-29T13:30:29Z</time>
      </trkpt>
      <trkpt lat="44.57351" lon="2.55251">
        <ele>594</ele>
        <time>2021-08-29T13:30:35Z</time>
      </trkpt>
      <trkpt lat="44.57374" lon="2.55243">
        <ele>594</ele>
        <time>2021-08-29T13:30:41Z</time>
      </trkpt>
      <trkpt lat="44.57389" lon="2.55232">
        <ele>595</ele>
        <time>2021-08-29T13:30:45Z</time>
      </trkpt>
      <trkpt lat="44.57406" lon="2.55205">
        <ele>595</ele>
        <time>2021-08-29T13:30:51Z</time>
      </trkpt>
      <trkpt lat="44.57429" lon="2.55144">
        <ele>596</ele>
        <time>2021-08-29T13:31:03Z</time>
      </trkpt>
      <trkpt lat="44.57441" lon="2.55126">
        <ele>598</ele>
        <time>2021-08-29T13:31:07Z</time>
      </trkpt>
      <trkpt lat="44.57448" lon="2.55119">
        <ele>598</ele>
        <time>2021-08-29T13:31:09Z</time>
      </trkpt>
      <trkpt lat="44.57463" lon="2.55112">
        <ele>600</ele>
        <time>2021-08-29T13:31:13Z</time>
      </trkpt>
      <trkpt lat="44.57478" lon="2.55114">
        <ele>601</ele>
        <time>2021-08-29T13:31:17Z</time>
      </trkpt>
      <trkpt lat="44.5758" lon="2.55177">
        <ele>606</ele>
        <time>2021-08-29T13:31:49Z</time>
      </trkpt>
      <trkpt lat="44.57657" lon="2.55242">
        <ele>612</ele>
        <time>2021-08-29T13:32:19Z</time>
      </trkpt>
      <trkpt lat="44.57669" lon="2.55257">
        <ele>613</ele>
        <time>2021-08-29T13:32:25Z</time>
      </trkpt>
      <trkpt lat="44.57674" lon="2.55269">
        <ele>614</ele>
        <time>2021-08-29T13:32:29Z</time>
      </trkpt>
      <trkpt lat="44.57686" lon="2.55312">
        <ele>616</ele>
        <time>2021-08-29T13:32:41Z</time>
      </trkpt>
      <trkpt lat="44.57694" lon="2.55422">
        <ele>620</ele>
        <time>2021-08-29T13:33:12Z</time>
      </trkpt>
      <trkpt lat="44.57695" lon="2.55429">
        <ele>620</ele>
        <time>2021-08-29T13:33:14Z</time>
      </trkpt>
      <trkpt lat="44.57718" lon="2.55517">
        <ele>626</ele>
        <time>2021-08-29T13:33:39Z</time>
      </trkpt>
      <trkpt lat="44.57723" lon="2.55561">
        <ele>628</ele>
        <time>2021-08-29T13:33:51Z</time>
      </trkpt>
      <trkpt lat="44.57729" lon="2.5558">
        <ele>629</ele>
        <time>2021-08-29T13:33:57Z</time>
      </trkpt>
      <trkpt lat="44.57735" lon="2.55594">
        <ele>630</ele>
        <time>2021-08-29T13:34:01Z</time>
      </trkpt>
      <trkpt lat="44.57765" lon="2.55621">
        <ele>632</ele>
        <time>2021-08-29T13:34:15Z</time>
      </trkpt>
      <trkpt lat="44.57783" lon="2.5565">
        <ele>638</ele>
        <time>2021-08-29T13:34:26Z</time>
      </trkpt>
      <trkpt lat="44.57787" lon="2.55657">
        <ele>639</ele>
        <time>2021-08-29T13:34:28Z</time>
      </trkpt>
      <trkpt lat="44.57796" lon="2.55669">
        <ele>640</ele>
        <time>2021-08-29T13:34:32Z</time>
      </trkpt>
      <trkpt lat="44.57812" lon="2.55681">
        <ele>640</ele>
        <time>2021-08-29T13:34:38Z</time>
      </trkpt>
      <trkpt lat="44.57843" lon="2.55681">
        <ele>639</ele>
        <time>2021-08-29T13:34:48Z</time>
      </trkpt>
      <trkpt lat="44.5785" lon="2.55682">
        <ele>639</ele>
        <time>2021-08-29T13:34:50Z</time>
      </trkpt>
      <trkpt lat="44.57868" lon="2.55689">
        <ele>638</ele>
        <time>2021-08-29T13:34:56Z</time>
      </trkpt>
      <trkpt lat="44.57916" lon="2.55735">
        <ele>634</ele>
        <time>2021-08-29T13:35:14Z</time>
      </trkpt>
      <trkpt lat="44.57993" lon="2.55824">
        <ele>637</ele>
        <time>2021-08-29T13:35:44Z</time>
      </trkpt>
      <trkpt lat="44.58031" lon="2.55913">
        <ele>638</ele>
        <time>2021-08-29T13:36:06Z</time>
      </trkpt>
      <trkpt lat="44.58048" lon="2.56016">
        <ele>640</ele>
        <time>2021-08-29T13:36:30Z</time>
      </trkpt>
      <trkpt lat="44.58055" lon="2.5603">
        <ele>640</ele>
        <time>2021-08-29T13:36:34Z</time>
      </trkpt>
      <trkpt lat="44.58059" lon="2.56035">
        <ele>641</ele>
        <time>2021-08-29T13:36:36Z</time>
      </trkpt>
      <trkpt lat="44.58128" lon="2.56039">
        <ele>647</ele>
        <time>2021-08-29T13:36:58Z</time>
      </trkpt>
      <trkpt lat="44.58144" lon="2.56052">
        <ele>649</ele>
        <time>2021-08-29T13:37:04Z</time>
      </trkpt>
      <trkpt lat="44.58157" lon="2.56068">
        <ele>650</ele>
        <time>2021-08-29T13:37:10Z</time>
      </trkpt>
      <trkpt lat="44.58179" lon="2.56112">
        <ele>652</ele>
        <time>2021-08-29T13:37:22Z</time>
      </trkpt>
      <trkpt lat="44.58182" lon="2.56118">
        <ele>652</ele>
        <time>2021-08-29T13:37:24Z</time>
      </trkpt>
      <trkpt lat="44.58197" lon="2.5613">
        <ele>655</ele>
        <time>2021-08-29T13:37:30Z</time>
      </trkpt>
      <trkpt lat="44.58209" lon="2.56136">
        <ele>655</ele>
        <time>2021-08-29T13:37:34Z</time>
      </trkpt>
      <trkpt lat="44.5822" lon="2.56143">
        <ele>655</ele>
        <time>2021-08-29T13:37:39Z</time>
      </trkpt>
      <trkpt lat="44.58234" lon="2.56142">
        <ele>656</ele>
        <time>2021-08-29T13:39:06Z</time>
      </trkpt>
      <trkpt lat="44.58434" lon="2.56199">
        <ele>644</ele>
        <time>2021-08-29T13:39:37Z</time>
      </trkpt>
      <trkpt lat="44.5858" lon="2.56242">
        <ele>636</ele>
        <time>2021-08-29T13:39:53Z</time>
      </trkpt>
      <trkpt lat="44.58633" lon="2.56283">
        <ele>634</ele>
        <time>2021-08-29T13:40:00Z</time>
      </trkpt>
      <trkpt lat="44.58732" lon="2.56401">
        <ele>628</ele>
        <time>2021-08-29T13:40:19Z</time>
      </trkpt>
      <trkpt lat="44.58743" lon="2.5641">
        <ele>627</ele>
        <time>2021-08-29T13:40:21Z</time>
      </trkpt>
      <trkpt lat="44.58793" lon="2.56428">
        <ele>624</ele>
        <time>2021-08-29T13:40:30Z</time>
      </trkpt>
      <trkpt lat="44.58843" lon="2.56439">
        <ele>621</ele>
        <time>2021-08-29T13:40:39Z</time>
      </trkpt>
      <trkpt lat="44.58902" lon="2.56413">
        <ele>620</ele>
        <time>2021-08-29T13:40:48Z</time>
      </trkpt>
      <trkpt lat="44.58976" lon="2.56353">
        <ele>622</ele>
        <time>2021-08-29T13:41:01Z</time>
      </trkpt>
      <trkpt lat="44.58997" lon="2.56344">
        <ele>621</ele>
        <time>2021-08-29T13:41:04Z</time>
      </trkpt>
      <trkpt lat="44.59012" lon="2.56342">
        <ele>620</ele>
        <time>2021-08-29T13:41:06Z</time>
      </trkpt>
      <trkpt lat="44.59033" lon="2.56349">
        <ele>621</ele>
        <time>2021-08-29T13:41:09Z</time>
      </trkpt>
      <trkpt lat="44.5904" lon="2.56353">
        <ele>622</ele>
        <time>2021-08-29T13:41:10Z</time>
      </trkpt>
      <trkpt lat="44.59055" lon="2.56371">
        <ele>624</ele>
        <time>2021-08-29T13:41:13Z</time>
      </trkpt>
      <trkpt lat="44.59111" lon="2.56463">
        <ele>622</ele>
        <time>2021-08-29T13:41:27Z</time>
      </trkpt>
      <trkpt lat="44.59123" lon="2.56477">
        <ele>622</ele>
        <time>2021-08-29T13:41:30Z</time>
      </trkpt>
      <trkpt lat="44.59129" lon="2.56482">
        <ele>622</ele>
        <time>2021-08-29T13:41:32Z</time>
      </trkpt>
      <trkpt lat="44.59133" lon="2.56486">
        <ele>623</ele>
        <time>2021-08-29T13:41:35Z</time>
      </trkpt>
      <trkpt lat="44.59142" lon="2.56482">
        <ele>623</ele>
        <time>2021-08-29T13:41:57Z</time>
      </trkpt>
      <trkpt lat="44.59166" lon="2.56494">
        <ele>623</ele>
        <time>2021-08-29T13:42:05Z</time>
      </trkpt>
      <trkpt lat="44.59174" lon="2.56494">
        <ele>623</ele>
        <time>2021-08-29T13:42:07Z</time>
      </trkpt>
      <trkpt lat="44.5919" lon="2.565">
        <ele>623</ele>
        <time>2021-08-29T13:42:11Z</time>
      </trkpt>
      <trkpt lat="44.59227" lon="2.5653">
        <ele>620</ele>
        <time>2021-08-29T13:42:18Z</time>
      </trkpt>
      <trkpt lat="44.59236" lon="2.56537">
        <ele>619</ele>
        <time>2021-08-29T13:42:20Z</time>
      </trkpt>
      <trkpt lat="44.5924" lon="2.5654">
        <ele>619</ele>
        <time>2021-08-29T13:42:21Z</time>
      </trkpt>
      <trkpt lat="44.59287" lon="2.56543">
        <ele>617</ele>
        <time>2021-08-29T13:42:31Z</time>
      </trkpt>
      <trkpt lat="44.59304" lon="2.56546">
        <ele>616</ele>
        <time>2021-08-29T13:42:35Z</time>
      </trkpt>
      <trkpt lat="44.59314" lon="2.56553">
        <ele>616</ele>
        <time>2021-08-29T13:42:37Z</time>
      </trkpt>
      <trkpt lat="44.59329" lon="2.56565">
        <ele>616</ele>
        <time>2021-08-29T13:42:40Z</time>
      </trkpt>
      <trkpt lat="44.59346" lon="2.56581">
        <ele>615</ele>
        <time>2021-08-29T13:42:43Z</time>
      </trkpt>
      <trkpt lat="44.59471" lon="2.56653">
        <ele>617</ele>
        <time>2021-08-29T13:43:04Z</time>
      </trkpt>
      <trkpt lat="44.59494" lon="2.56676">
        <ele>616</ele>
        <time>2021-08-29T13:43:12Z</time>
      </trkpt>
      <trkpt lat="44.59538" lon="2.56742">
        <ele>618</ele>
        <time>2021-08-29T13:43:32Z</time>
      </trkpt>
      <trkpt lat="44.59548" lon="2.56752">
        <ele>618</ele>
        <time>2021-08-29T13:43:36Z</time>
      </trkpt>
      <trkpt lat="44.59566" lon="2.56761">
        <ele>620</ele>
        <time>2021-08-29T13:43:42Z</time>
      </trkpt>
      <trkpt lat="44.59669" lon="2.56751">
        <ele>624</ele>
        <time>2021-08-29T13:44:13Z</time>
      </trkpt>
      <trkpt lat="44.59763" lon="2.5676">
        <ele>611</ele>
        <time>2021-08-29T13:44:43Z</time>
      </trkpt>
      <trkpt lat="44.59796" lon="2.56774">
        <ele>615</ele>
        <time>2021-08-29T13:44:53Z</time>
      </trkpt>
      <trkpt lat="44.5989" lon="2.56813">
        <ele>625</ele>
        <time>2021-08-29T13:45:23Z</time>
      </trkpt>
      <trkpt lat="44.59967" lon="2.56816">
        <ele>624</ele>
        <time>2021-08-29T13:45:47Z</time>
      </trkpt>
      <trkpt lat="44.59989" lon="2.56829">
        <ele>624</ele>
        <time>2021-08-29T13:45:53Z</time>
      </trkpt>
      <trkpt lat="44.59999" lon="2.5684">
        <ele>625</ele>
        <time>2021-08-29T13:45:56Z</time>
      </trkpt>
      <trkpt lat="44.60019" lon="2.56871">
        <ele>629</ele>
        <time>2021-08-29T13:46:03Z</time>
      </trkpt>
      <trkpt lat="44.6003" lon="2.56882">
        <ele>629</ele>
        <time>2021-08-29T13:46:05Z</time>
      </trkpt>
      <trkpt lat="44.60098" lon="2.56973">
        <ele>628</ele>
        <time>2021-08-29T13:46:20Z</time>
      </trkpt>
      <trkpt lat="44.60106" lon="2.56982">
        <ele>626</ele>
        <time>2021-08-29T13:46:22Z</time>
      </trkpt>
      <trkpt lat="44.60115" lon="2.56986">
        <ele>625</ele>
        <time>2021-08-29T13:46:24Z</time>
      </trkpt>
      <trkpt lat="44.60133" lon="2.56983">
        <ele>624</ele>
        <time>2021-08-29T13:46:28Z</time>
      </trkpt>
      <trkpt lat="44.60222" lon="2.56939">
        <ele>627</ele>
        <time>2021-08-29T13:46:54Z</time>
      </trkpt>
      <trkpt lat="44.60304" lon="2.56951">
        <ele>630</ele>
        <time>2021-08-29T13:47:22Z</time>
      </trkpt>
      <trkpt lat="44.60303" lon="2.56959">
        <ele>630</ele>
        <time>2021-08-29T13:47:25Z</time>
      </trkpt>
      <trkpt lat="44.60283" lon="2.56972">
        <ele>634</ele>
        <time>2021-08-29T13:47:33Z</time>
      </trkpt>
      <trkpt lat="44.60235" lon="2.56996">
        <ele>637</ele>
        <time>2021-08-29T13:47:47Z</time>
      </trkpt>
      <trkpt lat="44.60195" lon="2.5703">
        <ele>637</ele>
        <time>2021-08-29T13:47:58Z</time>
      </trkpt>
      <trkpt lat="44.60095" lon="2.57186">
        <ele>639</ele>
        <time>2021-08-29T13:48:28Z</time>
      </trkpt>
      <trkpt lat="44.6008" lon="2.57218">
        <ele>642</ele>
        <time>2021-08-29T13:48:34Z</time>
      </trkpt>
      <trkpt lat="44.60077" lon="2.57231">
        <ele>643</ele>
        <time>2021-08-29T13:48:36Z</time>
      </trkpt>
      <trkpt lat="44.60079" lon="2.57269">
        <ele>645</ele>
        <time>2021-08-29T13:48:43Z</time>
      </trkpt>
      <trkpt lat="44.60082" lon="2.57296">
        <ele>649</ele>
        <time>2021-08-29T13:48:49Z</time>
      </trkpt>
      <trkpt lat="44.6008" lon="2.57305">
        <ele>650</ele>
        <time>2021-08-29T13:48:51Z</time>
      </trkpt>
      <trkpt lat="44.60079" lon="2.57394">
        <ele>658</ele>
        <time>2021-08-29T13:49:09Z</time>
      </trkpt>
      <trkpt lat="44.60083" lon="2.57411">
        <ele>659</ele>
        <time>2021-08-29T13:49:13Z</time>
      </trkpt>
      <trkpt lat="44.6009" lon="2.57426">
        <ele>664</ele>
        <time>2021-08-29T13:49:17Z</time>
      </trkpt>
      <trkpt lat="44.6013" lon="2.57466">
        <ele>664</ele>
        <time>2021-08-29T13:49:34Z</time>
      </trkpt>
      <trkpt lat="44.60159" lon="2.57489">
        <ele>664</ele>
        <time>2021-08-29T13:49:46Z</time>
      </trkpt>
      <trkpt lat="44.60211" lon="2.57514">
        <ele>660</ele>
        <time>2021-08-29T13:50:07Z</time>
      </trkpt>
      <trkpt lat="44.60228" lon="2.57528">
        <ele>658</ele>
        <time>2021-08-29T13:50:13Z</time>
      </trkpt>
      <trkpt lat="44.60244" lon="2.57551">
        <ele>659</ele>
        <time>2021-08-29T13:50:21Z</time>
      </trkpt>
      <trkpt lat="44.60255" lon="2.57576">
        <ele>660</ele>
        <time>2021-08-29T13:50:29Z</time>
      </trkpt>
      <trkpt lat="44.60258" lon="2.57584">
        <ele>661</ele>
        <time>2021-08-29T13:50:31Z</time>
      </trkpt>
      <trkpt lat="44.60288" lon="2.57671">
        <ele>661</ele>
        <time>2021-08-29T13:50:55Z</time>
      </trkpt>
      <trkpt lat="44.60295" lon="2.57702">
        <ele>661</ele>
        <time>2021-08-29T13:51:03Z</time>
      </trkpt>
      <trkpt lat="44.60295" lon="2.57718">
        <ele>662</ele>
        <time>2021-08-29T13:51:07Z</time>
      </trkpt>
      <trkpt lat="44.60288" lon="2.57752">
        <ele>663</ele>
        <time>2021-08-29T13:51:15Z</time>
      </trkpt>
      <trkpt lat="44.60274" lon="2.57784">
        <ele>664</ele>
        <time>2021-08-29T13:51:23Z</time>
      </trkpt>
      <trkpt lat="44.60271" lon="2.57792">
        <ele>664</ele>
        <time>2021-08-29T13:51:25Z</time>
      </trkpt>
      <trkpt lat="44.60273" lon="2.578">
        <ele>664</ele>
        <time>2021-08-29T13:51:27Z</time>
      </trkpt>
      <trkpt lat="44.60356" lon="2.57745">
        <ele>673</ele>
        <time>2021-08-29T13:51:59Z</time>
      </trkpt>
      <trkpt lat="44.60361" lon="2.57741">
        <ele>673</ele>
        <time>2021-08-29T13:52:02Z</time>
      </trkpt>
      <trkpt lat="44.60366" lon="2.5774">
        <ele>672</ele>
        <time>2021-08-29T13:52:04Z</time>
      </trkpt>
      <trkpt lat="44.60374" lon="2.57742">
        <ele>672</ele>
        <time>2021-08-29T13:52:06Z</time>
      </trkpt>
      <trkpt lat="44.60378" lon="2.57749">
        <ele>673</ele>
        <time>2021-08-29T13:52:08Z</time>
      </trkpt>
      <trkpt lat="44.60378" lon="2.57862">
        <ele>671</ele>
        <time>2021-08-29T13:52:34Z</time>
      </trkpt>
      <trkpt lat="44.60378" lon="2.57872">
        <ele>671</ele>
        <time>2021-08-29T13:52:36Z</time>
      </trkpt>
      <trkpt lat="44.6038" lon="2.57878">
        <ele>670</ele>
        <time>2021-08-29T13:52:38Z</time>
      </trkpt>
      <trkpt lat="44.60385" lon="2.57883">
        <ele>670</ele>
        <time>2021-08-29T13:52:40Z</time>
      </trkpt>
      <trkpt lat="44.60417" lon="2.57889">
        <ele>669</ele>
        <time>2021-08-29T13:52:54Z</time>
      </trkpt>
      <trkpt lat="44.60423" lon="2.5789">
        <ele>669</ele>
        <time>2021-08-29T13:52:57Z</time>
      </trkpt>
      <trkpt lat="44.60427" lon="2.57895">
        <ele>669</ele>
        <time>2021-08-29T13:53:00Z</time>
      </trkpt>
      <trkpt lat="44.60425" lon="2.57902">
        <ele>669</ele>
        <time>2021-08-29T13:53:14Z</time>
      </trkpt>
      <trkpt lat="44.60422" lon="2.57905">
        <ele>670</ele>
        <time>2021-08-29T13:53:18Z</time>
      </trkpt>
      <trkpt lat="44.60419" lon="2.5791">
        <ele>671</ele>
        <time>2021-08-29T13:53:22Z</time>
      </trkpt>
      <trkpt lat="44.60416" lon="2.57916">
        <ele>671</ele>
        <time>2021-08-29T13:53:27Z</time>
      </trkpt>
      <trkpt lat="44.60413" lon="2.57935">
        <ele>674</ele>
        <time>2021-08-29T13:53:42Z</time>
      </trkpt>
      <trkpt lat="44.60415" lon="2.57941">
        <ele>675</ele>
        <time>2021-08-29T13:53:48Z</time>
      </trkpt>
    </trkseg>
  </trk>
</gpx>